Temperatur und Luftfeuchte

Temperatur und Luftfeuchte

Nummer Datum und Zeit Sensor ID Temperatur in Celsius gef├╝hlte Temperatur Luftfeuchte in %
33858 2020-10-25 08:30:22 Terrasse 11.30 11.09 99.90
33857 2020-10-25 08:02:04 Terrasse 10.90 10.65 99.90
33856 2020-10-25 07:33:47 Terrasse 10.80 10.54 99.90
33855 2020-10-25 07:05:32 Terrasse 10.80 10.54 99.90
33854 2020-10-25 06:37:17 Terrasse 10.90 10.65 99.90
33853 2020-10-25 06:09:01 Terrasse 11.00 10.76 99.90
33852 2020-10-25 05:40:46 Terrasse 11.10 10.87 99.90
33851 2020-10-25 05:12:32 Terrasse 11.20 10.98 99.90
33850 2020-10-25 04:44:16 Terrasse 11.40 11.20 99.90
33849 2020-10-25 04:16:01 Terrasse 11.60 11.42 99.90
33848 2020-10-25 03:47:46 Terrasse 11.80 11.64 99.90
33847 2020-10-25 03:19:32 Terrasse 12.10 11.97 99.90
33846 2020-10-25 02:51:16 Terrasse 12.10 11.97 99.90
33845 2020-10-25 02:23:01 Terrasse 12.30 12.19 99.90
33844 2020-10-25 02:54:45 Terrasse 12.50 12.41 99.90
33843 2020-10-25 02:26:30 Terrasse 12.60 12.52 99.90
33842 2020-10-25 01:58:14 Terrasse 12.70 12.63 99.90
33841 2020-10-25 01:29:59 Terrasse 12.90 12.85 99.90
33840 2020-10-25 01:01:45 Terrasse 12.80 12.74 99.90
33839 2020-10-25 00:33:30 Terrasse 13.20 13.18 99.90
33838 2020-10-25 00:05:15 Terrasse 13.40 13.40 99.90
33837 2020-10-24 23:37:00 Terrasse 13.60 13.62 99.90
33836 2020-10-24 23:08:48 Terrasse 13.70 13.73 99.90
33835 2020-10-24 22:40:31 Terrasse 13.70 13.73 99.90
33834 2020-10-24 22:12:15 Terrasse 13.80 13.84 99.90
33833 2020-10-24 21:43:59 Terrasse 13.80 13.84 99.90
33832 2020-10-24 21:15:43 Terrasse 13.80 13.84 99.90
33831 2020-10-24 20:47:27 Terrasse 13.90 13.95 99.90
33830 2020-10-24 20:19:13 Terrasse 14.00 14.06 99.90
33829 2020-10-24 19:50:57 Terrasse 14.10 14.17 99.90
33828 2020-10-24 19:22:42 Terrasse 14.10 14.17 99.90
33827 2020-10-24 18:54:27 Terrasse 14.20 14.28 99.90
33826 2020-10-24 18:26:11 Terrasse 14.30 14.39 99.90
33825 2020-10-24 17:57:55 Terrasse 14.50 14.61 99.90
33824 2020-10-24 17:29:39 Terrasse 14.70 14.83 99.90
33823 2020-10-24 17:01:24 Terrasse 14.90 15.05 99.90
33822 2020-10-24 16:33:09 Terrasse 15.20 15.38 99.90
33821 2020-10-24 16:04:56 Terrasse 15.60 15.82 99.90
33820 2020-10-24 15:36:46 Terrasse 16.50 16.39 83.70
33819 2020-10-24 15:08:43 Terrasse 18.60 18.29 67.80
33818 2020-10-24 14:40:35 Terrasse 21.60 21.48 63.70
33817 2020-10-24 14:12:28 Terrasse 22.70 22.62 61.20
33816 2020-10-24 13:43:07 Terrasse 16.30 16.59 99.90
33815 2020-10-24 13:14:44 Terrasse 14.10 14.17 99.90
33814 2020-10-24 12:46:24 Terrasse 13.70 13.73 99.90
33813 2020-10-24 12:18:05 Terrasse 13.40 13.40 99.90
33812 2020-10-24 11:49:48 Terrasse 13.30 13.29 99.90
33811 2020-10-24 11:21:28 Terrasse 13.00 12.96 99.90
33810 2020-10-24 10:53:12 Terrasse 13.20 13.18 99.90
33809 2020-10-24 10:24:55 Terrasse 12.80 12.74 99.90
33808 2020-10-24 09:56:38 Terrasse 12.70 12.63 99.90
33807 2020-10-24 09:28:19 Terrasse 12.50 12.41 99.90
33806 2020-10-24 09:00:01 Terrasse 12.30 12.19 99.90
33805 2020-10-24 08:31:59 Terrasse 12.20 12.08 99.90
33804 2020-10-24 08:03:36 Terrasse 12.20 12.08 99.90
33803 2020-10-24 07:35:19 Terrasse 12.40 12.30 99.90
33802 2020-10-24 07:07:02 Terrasse 12.40 12.30 99.90
33801 2020-10-24 06:38:46 Terrasse 12.40 12.30 99.90
33800 2020-10-24 06:10:31 Terrasse 12.40 12.30 99.90
33799 2020-10-24 05:42:12 Terrasse 12.40 12.30 99.90
33798 2020-10-24 05:13:54 Terrasse 12.40 12.30 99.90
33797 2020-10-24 04:45:35 Terrasse 12.20 12.08 99.90
33796 2020-10-24 04:17:19 Terrasse 12.40 12.30 99.90
33795 2020-10-24 03:49:02 Terrasse 12.30 12.19 99.90
33794 2020-10-24 03:20:46 Terrasse 12.20 12.08 99.90
33793 2020-10-24 02:52:31 Terrasse 12.40 12.30 99.90
33792 2020-10-24 02:24:15 Terrasse 12.70 12.63 99.90
33791 2020-10-24 01:55:58 Terrasse 12.90 12.85 99.90
33790 2020-10-24 01:27:43 Terrasse 13.20 13.18 99.90
33789 2020-10-24 00:59:29 Terrasse 13.60 13.62 99.90
33788 2020-10-24 00:31:14 Terrasse 13.80 13.84 99.90
33787 2020-10-24 00:02:59 Terrasse 14.20 14.28 99.90
33786 2020-10-23 23:34:43 Terrasse 14.30 14.39 99.90
33785 2020-10-23 23:06:27 Terrasse 14.30 14.39 99.90
33784 2020-10-23 22:38:11 Terrasse 14.40 14.50 99.90
33783 2020-10-23 22:09:53 Terrasse 14.40 14.50 99.90
33782 2020-10-23 21:41:37 Terrasse 14.50 14.61 99.90
33781 2020-10-23 21:13:21 Terrasse 14.50 14.61 99.90
33780 2020-10-23 20:45:05 Terrasse 14.50 14.61 99.90
33779 2020-10-23 20:16:49 Terrasse 14.60 14.72 99.90
33778 2020-10-23 19:48:31 Terrasse 14.60 14.72 99.90
33777 2020-10-23 19:20:58 Terrasse 14.10 14.17 99.90
33776 2020-10-23 18:52:21 Terrasse 14.20 14.28 99.90
33775 2020-10-23 18:23:20 Terrasse 14.30 14.39 99.90
33774 2020-10-23 17:55:04 Terrasse 14.40 14.50 99.90
33773 2020-10-23 16:59:09 Terrasse 14.60 14.72 99.90
33772 2020-10-23 16:02:00 Terrasse 14.50 14.61 99.90
33771 2020-10-23 15:05:43 Terrasse 14.30 14.39 99.90
33770 2020-10-23 14:37:51 Terrasse 14.20 14.28 99.90
33769 2020-10-23 14:09:32 Terrasse 14.20 14.28 99.90
33768 2020-10-23 13:41:05 Terrasse 14.10 14.17 99.90
33767 2020-10-23 13:13:00 Terrasse 14.00 14.06 99.90
33766 2020-10-23 12:44:57 Terrasse 14.00 14.06 99.90
33765 2020-10-23 11:48:46 Terrasse 13.90 13.95 99.90
33764 2020-10-23 11:20:20 Terrasse 13.90 13.95 99.90
33763 2020-10-23 10:52:01 Terrasse 13.90 13.95 99.90
33762 2020-10-23 09:55:44 Terrasse 13.90 13.95 99.90
33761 2020-10-23 09:27:36 Terrasse 13.90 13.95 99.90
33760 2020-10-23 08:31:08 Terrasse 13.90 13.95 99.90
33759 2020-10-23 08:02:39 Terrasse 14.00 14.06 99.90
33758 2020-10-23 07:34:32 Terrasse 14.10 14.17 99.90
33757 2020-10-23 07:06:26 Terrasse 14.00 14.06 99.90
33756 2020-10-23 06:38:29 Terrasse 14.10 14.17 99.90
33755 2020-10-23 05:42:10 Terrasse 14.20 14.28 99.90
33754 2020-10-23 05:14:05 Terrasse 14.30 14.39 99.90
33753 2020-10-23 04:46:14 Terrasse 14.40 14.50 99.90
33752 2020-10-23 04:17:39 Terrasse 14.30 14.39 99.90
33751 2020-10-23 03:21:03 Terrasse 14.70 14.83 99.90
33750 2020-10-23 02:51:59 Terrasse 14.80 14.94 99.90
33749 2020-10-23 01:55:58 Terrasse 15.10 15.27 99.90
33748 2020-10-23 01:27:50 Terrasse 15.20 15.38 99.90
33747 2020-10-23 00:59:20 Terrasse 15.30 15.49 99.90
33746 2020-10-23 00:31:14 Terrasse 15.40 15.60 99.90
33745 2020-10-22 23:35:25 Terrasse 15.80 16.04 99.90
33744 2020-10-22 23:06:22 Terrasse 16.00 16.26 99.90
33743 2020-10-22 22:38:06 Terrasse 16.10 16.37 99.90
33742 2020-10-22 22:09:53 Terrasse 16.20 16.48 99.90
33741 2020-10-22 21:41:56 Terrasse 16.30 16.59 99.90
33740 2020-10-22 20:45:42 Terrasse 16.70 17.03 99.90
33739 2020-10-22 20:17:37 Terrasse 17.00 17.36 99.90
33738 2020-10-22 19:49:31 Terrasse 17.20 17.58 99.90
33737 2020-10-22 19:21:17 Terrasse 17.40 17.80 99.90
33736 2020-10-22 18:53:06 Terrasse 17.60 18.02 99.90
33735 2020-10-22 18:24:49 Terrasse 18.00 18.46 99.90
33734 2020-10-22 17:56:36 Terrasse 18.50 18.99 98.90
33733 2020-10-22 17:28:27 Terrasse 19.40 19.41 77.00
33732 2020-10-22 17:00:29 Terrasse 22.40 22.36 63.80
33731 2020-10-22 16:31:55 Terrasse 22.50 22.58 67.80
33730 2020-10-22 16:03:39 Terrasse 21.60 21.61 68.80
33729 2020-10-22 15:35:20 Terrasse 22.10 22.17 69.20
33728 2020-10-22 15:07:02 Terrasse 19.70 19.71 76.10
33727 2020-10-22 14:38:45 Terrasse 19.80 19.74 72.90
33726 2020-10-22 14:10:26 Terrasse 19.80 19.66 70.00
33725 2020-10-22 13:42:30 Terrasse 19.60 19.34 66.20
33724 2020-10-22 13:14:18 Terrasse 24.50 24.42 54.20
33723 2020-10-22 12:46:23 Terrasse 31.60 32.32 43.50
33722 2020-10-22 12:17:56 Terrasse 33.60 34.87 40.50
33721 2020-10-22 11:49:10 Terrasse 28.40 28.89 49.80
33720 2020-10-22 11:20:50 Terrasse 28.20 29.30 56.10
33719 2020-10-22 10:51:57 Terrasse 21.20 21.96 99.00
33718 2020-10-22 10:23:37 Terrasse 13.60 13.62 99.90
33717 2020-10-22 09:55:20 Terrasse 14.10 14.17 99.90
33716 2020-10-22 09:26:59 Terrasse 13.00 12.96 99.90
33715 2020-10-22 08:58:42 Terrasse 12.60 12.52 99.90
33714 2020-10-22 08:30:25 Terrasse 12.20 12.08 99.90
33713 2020-10-22 08:02:10 Terrasse 12.10 11.97 99.90
33712 2020-10-22 07:33:53 Terrasse 11.90 11.75 99.90
33711 2020-10-22 07:05:37 Terrasse 11.80 11.64 99.90
33710 2020-10-22 06:37:21 Terrasse 12.10 11.97 99.90
33709 2020-10-22 06:09:06 Terrasse 12.20 12.08 99.90
33708 2020-10-22 05:40:50 Terrasse 12.10 11.97 99.90
33707 2020-10-22 05:12:35 Terrasse 12.40 12.30 99.90
33706 2020-10-22 04:44:22 Terrasse 12.30 12.19 99.90
33705 2020-10-22 04:16:06 Terrasse 12.00 11.86 99.90
33704 2020-10-22 03:47:49 Terrasse 11.80 11.64 99.90
33703 2020-10-22 03:19:33 Terrasse 11.70 11.53 99.90
33702 2020-10-22 02:51:18 Terrasse 11.70 11.53 99.90
33701 2020-10-22 02:23:03 Terrasse 11.80 11.64 99.90
33700 2020-10-22 01:54:55 Terrasse 12.20 12.08 99.90
33699 2020-10-22 01:26:37 Terrasse 12.20 12.08 99.90
33698 2020-10-22 00:58:22 Terrasse 12.50 12.41 99.90
33697 2020-10-22 00:30:07 Terrasse 13.00 12.96 99.90
33696 2020-10-22 00:01:51 Terrasse 13.00 12.96 99.90
33695 2020-10-21 23:33:35 Terrasse 13.00 12.96 99.90
33694 2020-10-21 23:05:18 Terrasse 12.90 12.85 99.90
33693 2020-10-21 22:37:00 Terrasse 12.30 12.19 99.90
33692 2020-10-21 22:08:45 Terrasse 12.30 12.19 99.90
33691 2020-10-21 21:40:30 Terrasse 12.50 12.41 99.90
33690 2020-10-21 21:12:14 Terrasse 12.90 12.85 99.90
33689 2020-10-21 20:43:58 Terrasse 13.10 13.07 99.90
33688 2020-10-21 20:15:44 Terrasse 13.40 13.40 99.90
33687 2020-10-21 19:47:31 Terrasse 13.80 13.84 99.90
33686 2020-10-21 19:19:18 Terrasse 14.30 14.39 99.90
33685 2020-10-21 18:51:04 Terrasse 14.80 14.94 99.90
33684 2020-10-21 18:22:52 Terrasse 15.50 15.71 99.90
33683 2020-10-21 17:54:42 Terrasse 16.50 16.63 92.70
33682 2020-10-21 17:26:30 Terrasse 17.50 17.11 69.00
33681 2020-10-21 16:58:21 Terrasse 18.90 18.47 62.40
33680 2020-10-21 16:30:12 Terrasse 22.80 22.55 54.10
33679 2020-10-21 16:01:53 Terrasse 21.70 21.43 57.70
33678 2020-10-21 15:33:35 Terrasse 22.70 22.53 57.80
33677 2020-10-21 15:05:20 Terrasse 26.80 27.37 52.40
33676 2020-10-21 14:36:52 Terrasse 20.70 20.53 65.20
33675 2020-10-21 14:08:45 Terrasse 22.10 21.95 60.50
33674 2020-10-21 13:39:58 Terrasse 17.40 17.18 76.00
33673 2020-10-21 13:11:48 Terrasse 22.20 22.06 60.50
33672 2020-10-21 12:43:10 Terrasse 15.50 15.71 99.90
33671 2020-10-21 12:14:54 Terrasse 15.30 15.49 99.90
33670 2020-10-21 11:46:41 Terrasse 15.30 15.49 99.90
33669 2020-10-21 11:18:36 Terrasse 17.50 17.31 76.90
33668 2020-10-21 10:50:11 Terrasse 20.80 20.84 72.80
33667 2020-10-21 10:21:37 Terrasse 14.00 14.06 99.90
33666 2020-10-21 09:53:18 Terrasse 13.20 13.18 99.90
33665 2020-10-21 09:24:58 Terrasse 12.60 12.52 99.90
33664 2020-10-21 08:56:40 Terrasse 11.90 11.75 99.90
33663 2020-10-21 08:28:23 Terrasse 11.60 11.42 99.90
33662 2020-10-21 08:00:07 Terrasse 11.60 11.42 99.90
33661 2020-10-21 07:31:49 Terrasse 11.60 11.42 99.90
33660 2020-10-21 07:03:32 Terrasse 11.50 11.31 99.90
33659 2020-10-21 06:35:15 Terrasse 11.50 11.31 99.90
33658 2020-10-21 06:06:59 Terrasse 11.40 11.20 99.90
33657 2020-10-21 05:38:42 Terrasse 11.40 11.20 99.90
33656 2020-10-21 05:10:26 Terrasse 11.30 11.09 99.90
33655 2020-10-21 04:42:09 Terrasse 11.40 11.20 99.90
33654 2020-10-21 04:13:53 Terrasse 11.50 11.31 99.90
33653 2020-10-21 03:45:38 Terrasse 11.50 11.31 99.90
33652 2020-10-21 03:17:21 Terrasse 11.60 11.42 99.90
33651 2020-10-21 02:49:07 Terrasse 11.60 11.42 99.90
33650 2020-10-21 02:20:51 Terrasse 11.60 11.42 99.90
33649 2020-10-21 01:52:34 Terrasse 11.60 11.42 99.90
33648 2020-10-21 01:24:19 Terrasse 11.60 11.42 99.90
33647 2020-10-21 00:56:03 Terrasse 11.50 11.31 99.90
33646 2020-10-21 00:27:47 Terrasse 11.60 11.42 99.90
33645 2020-10-20 23:59:32 Terrasse 11.50 11.31 99.90
33644 2020-10-20 23:31:16 Terrasse 11.50 11.31 99.90
33643 2020-10-20 23:02:59 Terrasse 11.50 11.31 99.90
33642 2020-10-20 22:34:43 Terrasse 11.30 11.09 99.90
33641 2020-10-20 22:06:26 Terrasse 11.30 11.09 99.90
33640 2020-10-20 21:38:11 Terrasse 11.30 11.09 99.90
33639 2020-10-20 21:09:56 Terrasse 11.30 11.09 99.90
33638 2020-10-20 20:41:40 Terrasse 11.40 11.20 99.90
33637 2020-10-20 20:13:24 Terrasse 11.50 11.31 99.90
33636 2020-10-20 19:45:08 Terrasse 11.50 11.31 99.90
33635 2020-10-20 19:16:54 Terrasse 11.50 11.31 99.90
33634 2020-10-20 18:48:38 Terrasse 11.60 11.42 99.90
33633 2020-10-20 18:20:22 Terrasse 11.60 11.42 99.90
33632 2020-10-20 17:52:05 Terrasse 11.70 11.53 99.90
33631 2020-10-20 17:23:51 Terrasse 11.70 11.53 99.90
33630 2020-10-20 16:55:37 Terrasse 11.80 11.64 99.90
33629 2020-10-20 16:27:22 Terrasse 12.00 11.86 99.90
33628 2020-10-20 15:59:07 Terrasse 12.30 12.19 99.90
33627 2020-10-20 15:30:53 Terrasse 12.70 12.63 99.90
33626 2020-10-20 15:02:41 Terrasse 13.00 12.73 90.90
33625 2020-10-20 14:34:25 Terrasse 13.30 12.99 88.20
33624 2020-10-20 14:06:12 Terrasse 13.10 12.51 78.30
33623 2020-10-20 13:38:02 Terrasse 13.80 12.91 64.10
33622 2020-10-20 13:09:56 Terrasse 15.60 14.72 57.80
33621 2020-10-20 12:41:48 Terrasse 16.90 16.08 55.00
33620 2020-10-20 12:13:46 Terrasse 24.00 23.60 44.00
33619 2020-10-20 11:45:19 Terrasse 26.40 26.49 41.00
33618 2020-10-20 11:16:53 Terrasse 26.60 26.74 43.50
33617 2020-10-20 10:48:14 Terrasse 11.00 10.75 99.40
33616 2020-10-20 10:19:49 Terrasse 10.20 9.88 99.90
33615 2020-10-20 09:51:30 Terrasse 8.40 7.90 99.90
33614 2020-10-20 08:55:02 Terrasse 7.40 6.80 99.90
33613 2020-10-20 08:26:44 Terrasse 6.80 6.14 99.90
33612 2020-10-20 07:58:30 Terrasse 6.60 5.92 99.90
33611 2020-10-20 07:30:15 Terrasse 6.60 5.92 99.90
33610 2020-10-20 07:02:00 Terrasse 6.60 5.92 99.90
33609 2020-10-20 06:33:43 Terrasse 6.50 5.81 99.90
33608 2020-10-20 06:05:27 Terrasse 6.40 5.70 99.90
33607 2020-10-20 05:37:13 Terrasse 6.40 5.70 99.90
33606 2020-10-20 05:09:00 Terrasse 6.60 5.92 99.90
33605 2020-10-20 04:40:46 Terrasse 6.50 5.81 99.90
33604 2020-10-20 04:12:30 Terrasse 6.70 6.03 99.90
33603 2020-10-20 03:44:15 Terrasse 6.70 6.03 99.90
33602 2020-10-20 03:16:01 Terrasse 6.80 6.14 99.90
33601 2020-10-20 02:47:47 Terrasse 7.10 6.47 99.90
33600 2020-10-20 02:19:34 Terrasse 7.30 6.69 99.90
33599 2020-10-20 01:51:20 Terrasse 7.60 7.02 99.90
33598 2020-10-20 01:23:06 Terrasse 7.70 7.13 99.90
33597 2020-10-20 00:54:52 Terrasse 8.00 7.46 99.90
33596 2020-10-20 00:26:37 Terrasse 8.20 7.68 99.90
33595 2020-10-19 23:58:23 Terrasse 8.40 7.90 99.90
33594 2020-10-19 23:30:08 Terrasse 8.60 8.12 99.90
33593 2020-10-19 23:01:54 Terrasse 8.50 8.01 99.90
33592 2020-10-19 22:33:40 Terrasse 8.60 8.12 99.90
33591 2020-10-19 22:05:26 Terrasse 8.90 8.45 99.90
33590 2020-10-19 21:37:13 Terrasse 9.30 8.89 99.90
33589 2020-10-19 21:08:59 Terrasse 9.60 9.22 99.90
33588 2020-10-19 20:40:44 Terrasse 9.90 9.55 99.90
33587 2020-10-19 20:12:31 Terrasse 10.30 9.99 99.90
33586 2020-10-19 19:44:19 Terrasse 10.80 10.35 92.50
33585 2020-10-19 19:16:06 Terrasse 11.10 10.08 69.60
33584 2020-10-19 18:47:53 Terrasse 11.50 10.33 62.40
33583 2020-10-19 18:19:44 Terrasse 12.40 11.25 59.50
33582 2020-10-19 17:51:34 Terrasse 13.60 12.44 54.70
33581 2020-10-19 17:23:21 Terrasse 14.70 13.66 54.80
33580 2020-10-19 16:55:10 Terrasse 14.90 13.83 53.10
33579 2020-10-19 16:27:00 Terrasse 16.20 15.22 51.60
33578 2020-10-19 15:59:00 Terrasse 18.20 17.36 49.20
33577 2020-10-19 15:30:52 Terrasse 24.00 23.54 41.40
33576 2020-10-19 15:02:33 Terrasse 26.40 26.08 37.80
33575 2020-10-19 14:34:14 Terrasse 21.50 20.85 43.80
33574 2020-10-19 14:06:07 Terrasse 23.00 22.51 44.10
33573 2020-10-19 13:37:57 Terrasse 32.60 31.76 31.80
33572 2020-10-19 13:09:22 Terrasse 31.00 30.45 36.60
33571 2020-10-19 12:41:14 Terrasse 31.30 30.62 35.10
33570 2020-10-19 12:12:54 Terrasse 34.80 34.87 32.30
33569 2020-10-19 11:44:22 Terrasse 33.50 33.86 36.70
33568 2020-10-19 11:15:54 Terrasse 30.80 30.71 40.40
33567 2020-10-19 10:47:08 Terrasse 25.90 25.89 51.40
33566 2020-10-19 10:18:10 Terrasse 11.70 11.53 99.90
33565 2020-10-19 09:49:56 Terrasse 10.30 9.99 99.90
33564 2020-10-19 09:21:34 Terrasse 9.30 8.89 99.90
33563 2020-10-19 08:53:17 Terrasse 8.50 8.01 99.90
33562 2020-10-19 08:25:02 Terrasse 8.30 7.79 99.90
33561 2020-10-19 07:56:45 Terrasse 8.30 7.79 99.90
33560 2020-10-19 07:28:30 Terrasse 8.30 7.79 99.90
33559 2020-10-19 07:00:13 Terrasse 8.30 7.79 99.90
33558 2020-10-19 06:31:57 Terrasse 8.30 7.79 99.90
33557 2020-10-19 06:03:41 Terrasse 8.30 7.79 99.90
33556 2020-10-19 05:35:26 Terrasse 8.30 7.79 99.90
33555 2020-10-19 05:07:10 Terrasse 8.40 7.90 99.90
33554 2020-10-19 04:38:55 Terrasse 8.40 7.90 99.90
33553 2020-10-19 04:10:41 Terrasse 8.60 8.12 99.90
33552 2020-10-19 03:42:25 Terrasse 8.60 8.12 99.90
33551 2020-10-19 03:14:10 Terrasse 8.70 8.23 99.90
33550 2020-10-19 02:45:55 Terrasse 8.70 8.23 99.90
33549 2020-10-19 02:17:39 Terrasse 8.80 8.34 99.90
33548 2020-10-19 01:49:23 Terrasse 8.80 8.34 99.90
33547 2020-10-19 01:21:07 Terrasse 8.90 8.45 99.90
33546 2020-10-19 00:52:52 Terrasse 8.90 8.45 99.90
33545 2020-10-19 00:24:37 Terrasse 8.80 8.34 99.90
33544 2020-10-18 23:56:22 Terrasse 8.90 8.45 99.90
33543 2020-10-18 23:28:07 Terrasse 9.00 8.56 99.90
33542 2020-10-18 22:59:52 Terrasse 9.00 8.56 99.90
33541 2020-10-18 22:31:36 Terrasse 9.00 8.56 99.90
33540 2020-10-18 22:03:23 Terrasse 9.10 8.67 99.90
33539 2020-10-18 21:35:07 Terrasse 9.10 8.67 99.90
33538 2020-10-18 21:06:52 Terrasse 9.10 8.67 99.90
33537 2020-10-18 20:38:37 Terrasse 9.20 8.78 99.90
33536 2020-10-18 20:10:23 Terrasse 9.30 8.89 99.90
33535 2020-10-18 19:42:09 Terrasse 9.40 9.00 99.90
33534 2020-10-18 19:13:54 Terrasse 9.50 9.11 99.90
33533 2020-10-18 18:45:39 Terrasse 9.60 9.22 99.90
33532 2020-10-18 18:17:25 Terrasse 9.80 9.44 99.90
33531 2020-10-18 17:49:12 Terrasse 10.20 9.88 99.90
33530 2020-10-18 17:20:58 Terrasse 10.30 9.99 99.90
33529 2020-10-18 16:52:43 Terrasse 10.70 10.43 99.90
33528 2020-10-18 16:24:27 Terrasse 10.70 10.43 99.90
33527 2020-10-18 15:56:21 Terrasse 10.90 10.65 99.90
33526 2020-10-18 15:28:11 Terrasse 12.30 12.19 99.90
33525 2020-10-18 14:59:52 Terrasse 12.10 11.97 99.90
33524 2020-10-18 14:31:39 Terrasse 12.60 12.52 99.90
33523 2020-10-18 14:03:21 Terrasse 12.70 12.63 99.90
33522 2020-10-18 13:35:07 Terrasse 13.30 13.29 99.90
33521 2020-10-18 13:06:43 Terrasse 11.60 11.42 99.90
33520 2020-10-18 12:38:39 Terrasse 11.30 11.09 99.90
33519 2020-10-18 12:10:15 Terrasse 10.60 10.32 99.90
33518 2020-10-18 11:41:53 Terrasse 9.40 9.00 99.90
33517 2020-10-18 11:13:35 Terrasse 8.50 8.01 99.90
33516 2020-10-18 10:45:19 Terrasse 8.10 7.57 99.90
33515 2020-10-18 10:17:03 Terrasse 7.90 7.35 99.90
33514 2020-10-18 09:48:49 Terrasse 7.90 7.35 99.90
33513 2020-10-18 09:20:31 Terrasse 7.50 6.91 99.90
33512 2020-10-18 08:52:13 Terrasse 6.80 6.14 99.90
33511 2020-10-18 08:23:56 Terrasse 6.40 5.70 99.90
33510 2020-10-18 07:55:41 Terrasse 6.20 5.48 99.90
33509 2020-10-18 07:27:26 Terrasse 5.90 5.15 99.90
33508 2020-10-18 06:59:13 Terrasse 5.50 4.71 99.90
33507 2020-10-18 06:30:57 Terrasse 4.90 4.05 99.90
33506 2020-10-18 05:34:38 Terrasse 5.30 4.49 99.90
33505 2020-10-18 05:06:25 Terrasse 6.00 5.26 99.90
33504 2020-10-18 04:38:12 Terrasse 6.50 5.81 99.90
33503 2020-10-18 04:09:55 Terrasse 6.30 5.59 99.90
33502 2020-10-18 03:41:40 Terrasse 6.10 5.37 99.90
33501 2020-10-18 03:13:24 Terrasse 6.10 5.37 99.90
33500 2020-10-18 02:45:11 Terrasse 6.40 5.70 99.90
33499 2020-10-18 02:16:56 Terrasse 6.90 6.25 99.90
33498 2020-10-18 01:48:40 Terrasse 6.90 6.25 99.90
33497 2020-10-18 01:20:24 Terrasse 6.30 5.59 99.90
33496 2020-10-18 00:52:11 Terrasse 6.80 6.14 99.90
33495 2020-10-18 00:23:57 Terrasse 7.00 6.36 99.90
33494 2020-10-17 23:55:43 Terrasse 7.00 6.36 99.90
33493 2020-10-17 23:27:28 Terrasse 6.80 6.14 99.90
33492 2020-10-17 22:59:14 Terrasse 6.90 6.25 99.90
33491 2020-10-17 22:30:59 Terrasse 6.50 5.81 99.90
33490 2020-10-17 22:02:47 Terrasse 6.80 6.14 99.90
33489 2020-10-17 21:34:36 Terrasse 7.30 6.69 99.90
33488 2020-10-17 21:06:23 Terrasse 7.80 7.24 99.90
33487 2020-10-17 20:38:10 Terrasse 8.30 7.79 99.90
33486 2020-10-17 20:09:56 Terrasse 8.70 8.23 99.90
33485 2020-10-17 19:41:42 Terrasse 8.90 8.45 99.90
33484 2020-10-17 19:13:29 Terrasse 9.00 8.56 99.90
33483 2020-10-17 18:45:17 Terrasse 9.40 9.00 99.90
33482 2020-10-17 18:17:04 Terrasse 9.80 9.44 99.90
33481 2020-10-17 17:48:58 Terrasse 10.20 9.88 99.90
33480 2020-10-17 17:20:43 Terrasse 10.70 10.43 99.90
33479 2020-10-17 16:52:28 Terrasse 10.70 10.43 99.90
33478 2020-10-17 16:24:14 Terrasse 10.90 10.65 99.90
33477 2020-10-17 15:55:59 Terrasse 11.10 10.87 99.90
33476 2020-10-17 15:27:47 Terrasse 11.50 11.31 99.90
33475 2020-10-17 14:59:33 Terrasse 12.10 11.97 99.90
33474 2020-10-17 14:31:20 Terrasse 12.60 12.52 99.90
33473 2020-10-17 14:02:59 Terrasse 11.90 11.75 99.90
33472 2020-10-17 13:34:42 Terrasse 11.00 10.76 99.90
33471 2020-10-17 13:06:26 Terrasse 10.60 10.32 99.90
33470 2020-10-17 12:38:09 Terrasse 10.20 9.88 99.90
33469 2020-10-17 12:09:54 Terrasse 10.10 9.77 99.90
33468 2020-10-17 11:41:42 Terrasse 10.20 9.88 99.90
33467 2020-10-17 11:13:25 Terrasse 10.00 9.66 99.90
33466 2020-10-17 10:45:09 Terrasse 9.50 9.11 99.90
33465 2020-10-17 10:16:52 Terrasse 9.30 8.89 99.90
33464 2020-10-17 09:48:36 Terrasse 9.30 8.89 99.90
33463 2020-10-17 09:20:19 Terrasse 8.80 8.34 99.90
33462 2020-10-17 08:52:04 Terrasse 8.50 8.01 99.90
33461 2020-10-17 08:23:49 Terrasse 8.10 7.57 99.90
33460 2020-10-17 07:55:34 Terrasse 8.00 7.46 99.90
33459 2020-10-17 07:27:19 Terrasse 8.10 7.57 99.90
33458 2020-10-17 06:59:06 Terrasse 8.20 7.68 99.90
33457 2020-10-17 06:30:54 Terrasse 8.20 7.68 99.90
33456 2020-10-17 06:02:41 Terrasse 8.40 7.90 99.90
33455 2020-10-17 05:34:24 Terrasse 8.30 7.79 99.90
33454 2020-10-17 05:06:09 Terrasse 8.30 7.79 99.90
33453 2020-10-17 04:37:55 Terrasse 8.40 7.90 99.90
33452 2020-10-17 04:09:39 Terrasse 8.40 7.90 99.90
33451 2020-10-17 03:41:24 Terrasse 8.40 7.90 99.90
33450 2020-10-17 03:13:08 Terrasse 8.40 7.90 99.90
33449 2020-10-17 02:44:52 Terrasse 8.40 7.90 99.90
33448 2020-10-17 02:16:35 Terrasse 8.20 7.68 99.90
33447 2020-10-17 01:48:21 Terrasse 8.30 7.79 99.90
33446 2020-10-17 01:20:07 Terrasse 8.50 8.01 99.90
33445 2020-10-17 00:51:52 Terrasse 8.60 8.12 99.90
33444 2020-10-17 00:23:36 Terrasse 8.70 8.23 99.90
33443 2020-10-16 23:55:21 Terrasse 8.60 8.12 99.90
33442 2020-10-16 23:27:07 Terrasse 8.70 8.23 99.90
33441 2020-10-16 22:58:53 Terrasse 8.80 8.34 99.90
33440 2020-10-16 22:30:39 Terrasse 8.80 8.34 99.90
33439 2020-10-16 22:02:26 Terrasse 8.90 8.45 99.90
33438 2020-10-16 21:34:12 Terrasse 9.10 8.67 99.90
33437 2020-10-16 21:05:56 Terrasse 9.20 8.78 99.90
33436 2020-10-16 20:37:42 Terrasse 9.50 9.11 99.90
33435 2020-10-16 20:09:28 Terrasse 9.60 9.22 99.90
33434 2020-10-16 19:41:14 Terrasse 9.70 9.33 99.90
33433 2020-10-16 19:12:58 Terrasse 9.90 9.55 99.90
33432 2020-10-16 18:44:44 Terrasse 10.10 9.77 99.90
33431 2020-10-16 18:16:30 Terrasse 10.40 10.10 99.90
33430 2020-10-16 17:48:17 Terrasse 10.80 10.54 99.90
33429 2020-10-16 17:20:04 Terrasse 11.10 10.87 99.90
33428 2020-10-16 16:51:53 Terrasse 11.60 11.42 99.90
33427 2020-10-16 16:23:40 Terrasse 12.50 12.41 99.90
33426 2020-10-16 15:55:38 Terrasse 15.10 14.53 71.60
33425 2020-10-16 15:27:06 Terrasse 16.30 16.10 81.10
33424 2020-10-16 14:58:54 Terrasse 15.80 15.48 78.30
33423 2020-10-16 14:30:34 Terrasse 12.20 12.08 99.90
33422 2020-10-16 14:02:26 Terrasse 13.80 13.84 99.90
33421 2020-10-16 13:34:05 Terrasse 11.80 11.64 99.90
33420 2020-10-16 13:05:51 Terrasse 11.70 11.53 99.90
33419 2020-10-16 12:37:37 Terrasse 12.90 12.85 99.90
33418 2020-10-16 12:09:21 Terrasse 12.30 12.19 99.90
33417 2020-10-16 11:41:09 Terrasse 13.10 13.07 99.90
33416 2020-10-16 11:12:50 Terrasse 12.90 12.85 99.90
33415 2020-10-16 10:44:34 Terrasse 11.80 11.64 99.90
33414 2020-10-16 10:16:16 Terrasse 10.50 10.21 99.90
33413 2020-10-16 09:47:59 Terrasse 10.10 9.77 99.90
33412 2020-10-16 09:19:43 Terrasse 9.50 9.11 99.90
33411 2020-10-16 08:51:25 Terrasse 9.10 8.67 99.90
33410 2020-10-16 08:23:10 Terrasse 9.00 8.56 99.90
33409 2020-10-16 07:54:55 Terrasse 8.90 8.45 99.90
33408 2020-10-16 07:26:39 Terrasse 8.90 8.45 99.90
33407 2020-10-16 06:58:24 Terrasse 9.00 8.56 99.90
33406 2020-10-16 06:30:10 Terrasse 9.00 8.56 99.90
33405 2020-10-16 06:01:56 Terrasse 9.00 8.56 99.90
33404 2020-10-16 05:33:42 Terrasse 9.10 8.67 99.90
33403 2020-10-16 05:05:26 Terrasse 9.10 8.67 99.90
33402 2020-10-16 04:37:11 Terrasse 9.20 8.78 99.90
33401 2020-10-16 04:08:55 Terrasse 9.20 8.78 99.90
33400 2020-10-16 03:40:39 Terrasse 9.20 8.78 99.90
33399 2020-10-16 03:12:24 Terrasse 9.20 8.78 99.90
33398 2020-10-16 02:44:09 Terrasse 9.30 8.89 99.90
33397 2020-10-16 02:15:55 Terrasse 9.30 8.89 99.90
33396 2020-10-16 01:47:40 Terrasse 9.30 8.89 99.90
33395 2020-10-16 01:19:24 Terrasse 9.30 8.89 99.90
33394 2020-10-16 00:51:08 Terrasse 9.30 8.89 99.90
33393 2020-10-16 00:22:53 Terrasse 9.30 8.89 99.90
33392 2020-10-15 23:54:38 Terrasse 9.40 9.00 99.90
33391 2020-10-15 23:26:22 Terrasse 9.50 9.11 99.90
33390 2020-10-15 22:58:07 Terrasse 9.40 9.00 99.90
33389 2020-10-15 22:29:53 Terrasse 9.50 9.11 99.90
33388 2020-10-15 22:01:38 Terrasse 9.60 9.22 99.90
33387 2020-10-15 21:33:23 Terrasse 9.60 9.22 99.90
33386 2020-10-15 21:05:08 Terrasse 9.60 9.22 99.90
33385 2020-10-15 20:36:54 Terrasse 9.60 9.22 99.90
33384 2020-10-15 20:08:41 Terrasse 9.70 9.33 99.90
33383 2020-10-15 19:40:26 Terrasse 9.70 9.33 99.90
33382 2020-10-15 19:12:13 Terrasse 9.80 9.44 99.90
33381 2020-10-15 18:43:59 Terrasse 10.10 9.77 99.90
33380 2020-10-15 18:15:44 Terrasse 10.30 9.99 99.90
33379 2020-10-15 17:47:29 Terrasse 10.40 10.10 99.90
33378 2020-10-15 17:19:15 Terrasse 10.40 10.10 99.90
33377 2020-10-15 16:51:01 Terrasse 10.70 10.43 99.90
33376 2020-10-15 16:22:47 Terrasse 11.00 10.76 99.90
33375 2020-10-15 15:54:35 Terrasse 11.40 11.20 99.90
33374 2020-10-15 15:26:20 Terrasse 11.90 11.75 99.90
33373 2020-10-15 14:58:04 Terrasse 12.20 12.08 99.90
33372 2020-10-15 12:38:13 Terrasse 11.50 11.31 99.90
33371 2020-10-15 12:08:50 Terrasse 10.30 9.99 99.90
33370 2020-10-15 11:41:51 Terrasse 10.00 9.66 99.90
33369 2020-10-15 11:11:33 Terrasse 9.80 9.44 99.90
33368 2020-10-15 10:14:08 Terrasse 9.20 8.78 99.90
33367 2020-10-15 09:45:54 Terrasse 9.20 8.78 99.90
33366 2020-10-15 08:49:30 Terrasse 8.70 8.23 99.90
33365 2020-10-15 08:21:15 Terrasse 8.60 8.12 99.90
33364 2020-10-15 07:52:59 Terrasse 8.50 8.01 99.90
33363 2020-10-15 07:24:45 Terrasse 8.50 8.01 99.90
33362 2020-10-15 06:56:31 Terrasse 8.50 8.01 99.90
33361 2020-10-15 06:28:16 Terrasse 8.50 8.01 99.90
33360 2020-10-15 06:00:00 Terrasse 8.40 7.90 99.90
33359 2020-10-15 05:31:45 Terrasse 8.40 7.90 99.90
33358 2020-10-15 05:03:31 Terrasse 8.50 8.01 99.90
33357 2020-10-15 04:35:16 Terrasse 8.50 8.01 99.90
33356 2020-10-15 04:07:02 Terrasse 8.60 8.12 99.90
33355 2020-10-15 03:38:48 Terrasse 8.60 8.12 99.90
33354 2020-10-15 03:10:35 Terrasse 8.60 8.12 99.90
33353 2020-10-15 02:42:20 Terrasse 8.60 8.12 99.90
33352 2020-10-15 02:14:05 Terrasse 8.70 8.23 99.90
33351 2020-10-15 01:45:50 Terrasse 8.90 8.45 99.90
33350 2020-10-15 01:17:35 Terrasse 8.90 8.45 99.90
33349 2020-10-15 00:49:21 Terrasse 9.00 8.56 99.90
33348 2020-10-14 23:53:01 Terrasse 9.20 8.78 99.90
33347 2020-10-14 23:24:45 Terrasse 9.30 8.89 99.90
33346 2020-10-14 22:56:32 Terrasse 9.40 9.00 99.90
33345 2020-10-14 22:28:18 Terrasse 9.50 9.11 99.90
33344 2020-10-14 22:00:03 Terrasse 9.50 9.11 99.90
33343 2020-10-14 21:31:51 Terrasse 9.60 9.22 99.90
33342 2020-10-14 21:03:38 Terrasse 9.80 9.44 99.90
33341 2020-10-14 20:35:24 Terrasse 10.00 9.66 99.90
33340 2020-10-14 20:07:12 Terrasse 10.10 9.77 99.90
33339 2020-10-14 19:38:57 Terrasse 10.20 9.88 99.90
33338 2020-10-14 19:10:44 Terrasse 10.40 10.10 99.90
33337 2020-10-14 18:42:29 Terrasse 10.60 10.32 99.90
33336 2020-10-14 18:14:16 Terrasse 10.80 10.54 99.90
33335 2020-10-14 17:46:10 Terrasse 11.00 10.76 99.90
33334 2020-10-14 17:17:55 Terrasse 11.20 10.98 99.90
33333 2020-10-14 16:49:41 Terrasse 11.50 11.31 99.90
33332 2020-10-14 16:21:27 Terrasse 11.60 11.42 99.90
33331 2020-10-14 15:53:11 Terrasse 11.60 11.42 99.90
33330 2020-10-14 15:24:55 Terrasse 11.50 11.31 99.90
33329 2020-10-14 14:56:40 Terrasse 11.60 11.42 99.90
33328 2020-10-14 14:28:26 Terrasse 11.70 11.53 99.90
33327 2020-10-14 14:00:12 Terrasse 11.80 11.64 99.90
33326 2020-10-14 13:31:57 Terrasse 12.00 11.86 99.90
33325 2020-10-14 13:03:54 Terrasse 11.50 11.31 99.90
33324 2020-10-14 12:36:08 Terrasse 11.00 10.76 99.90
33323 2020-10-14 12:07:36 Terrasse 10.80 10.54 99.90
33322 2020-10-14 11:38:20 Terrasse 12.00 11.86 99.90
33321 2020-10-14 11:10:02 Terrasse 11.30 11.09 99.90
33320 2020-10-14 10:41:47 Terrasse 10.80 10.54 99.90
33319 2020-10-14 10:13:31 Terrasse 10.10 9.77 99.90
33318 2020-10-14 09:45:15 Terrasse 9.90 9.55 99.90
33317 2020-10-14 09:17:00 Terrasse 9.40 9.00 99.90
33316 2020-10-14 08:48:44 Terrasse 8.90 8.45 99.90
33315 2020-10-14 08:20:29 Terrasse 8.80 8.34 99.90
33314 2020-10-14 07:52:15 Terrasse 8.60 8.12 99.90
33313 2020-10-14 07:24:00 Terrasse 8.60 8.12 99.90
33312 2020-10-14 06:55:47 Terrasse 8.40 7.90 99.90
33311 2020-10-14 06:27:32 Terrasse 8.40 7.90 99.90
33310 2020-10-14 05:59:19 Terrasse 8.40 7.90 99.90
33309 2020-10-14 05:31:05 Terrasse 8.30 7.79 99.90
33308 2020-10-14 05:02:50 Terrasse 8.10 7.57 99.90
33307 2020-10-14 04:34:35 Terrasse 8.00 7.46 99.90
33306 2020-10-14 04:06:21 Terrasse 8.10 7.57 99.90
33305 2020-10-14 03:38:08 Terrasse 8.20 7.68 99.90
33304 2020-10-14 03:09:54 Terrasse 8.30 7.79 99.90
33303 2020-10-14 02:41:38 Terrasse 8.30 7.79 99.90
33302 2020-10-14 02:13:25 Terrasse 8.30 7.79 99.90
33301 2020-10-14 01:45:12 Terrasse 8.30 7.79 99.90
33300 2020-10-14 01:16:59 Terrasse 8.50 8.01 99.90
33299 2020-10-14 00:48:46 Terrasse 8.60 8.12 99.90
33298 2020-10-14 00:20:33 Terrasse 9.20 8.78 99.90
33297 2020-10-13 23:52:17 Terrasse 9.40 9.00 99.90
33296 2020-10-13 23:24:03 Terrasse 9.60 9.22 99.90
33295 2020-10-13 22:55:48 Terrasse 9.50 9.11 99.90
33294 2020-10-13 22:27:33 Terrasse 9.70 9.33 99.90
33293 2020-10-13 21:59:16 Terrasse 9.30 8.89 99.90
33292 2020-10-13 21:30:59 Terrasse 9.00 8.56 99.90
33291 2020-10-13 21:02:47 Terrasse 9.10 8.67 99.90
33290 2020-10-13 20:34:34 Terrasse 9.40 9.00 99.90
33289 2020-10-13 20:06:21 Terrasse 10.00 9.66 99.90
33288 2020-10-13 19:38:07 Terrasse 10.40 10.10 99.90
33287 2020-10-13 19:09:54 Terrasse 10.80 10.54 99.90
33286 2020-10-13 18:41:43 Terrasse 11.50 11.31 99.90
33285 2020-10-13 18:13:31 Terrasse 12.00 11.86 99.90
33284 2020-10-13 17:45:19 Terrasse 12.60 12.45 96.90
33283 2020-10-13 17:17:08 Terrasse 13.60 12.86 70.70
33282 2020-10-13 16:48:58 Terrasse 15.70 15.01 64.70
33281 2020-10-13 16:20:42 Terrasse 16.20 15.60 65.90
33280 2020-10-13 15:52:26 Terrasse 17.40 16.84 62.90
33279 2020-10-13 15:24:02 Terrasse 17.60 17.08 63.60
33278 2020-10-13 14:55:42 Terrasse 15.50 14.99 72.30
33277 2020-10-13 14:27:32 Terrasse 15.40 14.77 68.10
33276 2020-10-13 13:59:17 Terrasse 20.50 20.16 59.60
33275 2020-10-13 13:30:51 Terrasse 11.80 11.64 99.90
33274 2020-10-13 13:02:37 Terrasse 12.30 12.19 99.90
33273 2020-10-13 12:34:18 Terrasse 11.60 11.42 99.90
33272 2020-10-13 12:06:04 Terrasse 11.20 10.98 99.90
33271 2020-10-13 11:37:55 Terrasse 12.00 11.86 99.90
33270 2020-10-13 11:10:17 Terrasse 19.00 19.56 99.90
33269 2020-10-13 10:41:56 Terrasse 18.60 19.12 99.90
33268 2020-10-13 10:13:30 Terrasse 17.30 17.69 99.90
33267 2020-10-13 09:44:23 Terrasse 10.10 9.77 99.90
33266 2020-10-13 09:16:29 Terrasse 8.40 7.90 99.90
33265 2020-10-13 08:17:20 Terrasse 8.20 7.68 99.90
33264 2020-10-13 03:56:11 Terrasse 8.10 7.57 99.90
33263 2020-10-13 03:25:53 Terrasse 8.00 7.46 99.90
33262 2020-10-13 02:55:27 Terrasse 8.10 7.57 99.90
33261 2020-10-13 02:26:18 Terrasse 8.30 7.79 99.90
33260 2020-10-13 01:55:02 Terrasse 8.60 8.12 99.90
33259 2020-10-12 22:33:51 Terrasse 9.50 9.11 99.90
33258 2020-10-12 22:05:46 Terrasse 9.70 9.33 99.90
33257 2020-10-12 20:13:29 Terrasse 10.80 10.54 99.90
33256 2020-10-12 19:45:14 Terrasse 11.00 10.76 99.90
33255 2020-10-12 19:17:01 Terrasse 11.30 11.09 99.90
33254 2020-10-12 18:20:50 Terrasse 12.90 12.85 99.90
33253 2020-10-12 17:52:43 Terrasse 13.80 13.65 92.40
33252 2020-10-12 17:24:57 Terrasse 16.30 15.66 64.20
33251 2020-10-12 16:56:56 Terrasse 23.40 23.19 53.50
33250 2020-10-12 16:27:46 Terrasse 13.50 13.44 97.10
33249 2020-10-12 15:59:30 Terrasse 15.80 15.63 84.00
33248 2020-10-12 15:31:10 Terrasse 12.90 12.85 99.90
33247 2020-10-12 15:02:58 Terrasse 12.90 12.85 99.90
33246 2020-10-12 14:06:44 Terrasse 12.50 12.41 99.90
33245 2020-10-12 13:10:53 Terrasse 12.30 12.19 99.90
33244 2020-10-12 12:41:35 Terrasse 12.00 11.86 99.90
33243 2020-10-12 12:13:32 Terrasse 12.20 12.08 99.90
33242 2020-10-12 11:45:17 Terrasse 11.40 11.20 99.90
33241 2020-10-12 11:16:55 Terrasse 11.10 10.87 99.90
33240 2020-10-12 10:48:36 Terrasse 10.50 10.21 99.90
33239 2020-10-12 10:20:33 Terrasse 10.10 9.77 99.90
33238 2020-10-12 09:52:27 Terrasse 9.90 9.55 99.90
33237 2020-10-12 07:53:55 Terrasse 9.40 9.00 99.90
33236 2020-10-12 06:57:45 Terrasse 9.50 9.11 99.90
33235 2020-10-12 06:01:35 Terrasse 9.50 9.11 99.90
33234 2020-10-12 05:02:45 Terrasse 9.60 9.22 99.90
33233 2020-10-12 04:04:04 Terrasse 9.50 9.11 99.90
33232 2020-10-12 00:39:24 Terrasse 10.00 9.66 99.90
33231 2020-10-11 22:13:16 Terrasse 10.10 9.77 99.90
33230 2020-10-11 20:45:52 Terrasse 10.30 9.99 99.90
33229 2020-10-11 20:17:45 Terrasse 10.70 10.30 94.70
33228 2020-10-11 19:50:02 Terrasse 11.50 10.44 66.40
33227 2020-10-11 19:20:49 Terrasse 12.40 11.34 62.80
33226 2020-10-11 18:24:45 Terrasse 14.20 13.13 55.80
33225 2020-10-11 17:56:37 Terrasse 15.50 14.47 52.40
33224 2020-10-11 17:28:50 Terrasse 18.70 17.91 49.20
33223 2020-10-11 17:01:01 Terrasse 28.00 27.60 39.10
33222 2020-10-11 16:32:33 Terrasse 27.80 27.73 43.50
33221 2020-10-11 16:03:23 Terrasse 21.80 21.34 50.10
33220 2020-10-11 15:07:03 Terrasse 14.80 14.04 65.20
33219 2020-10-11 14:10:52 Terrasse 13.50 12.93 77.40
33218 2020-10-11 13:42:38 Terrasse 14.50 13.97 75.30
33217 2020-10-11 13:14:31 Terrasse 13.60 13.01 76.30
33216 2020-10-11 12:46:24 Terrasse 13.30 13.25 98.30
33215 2020-10-11 11:21:36 Terrasse 10.20 9.88 99.90
33214 2020-10-11 09:57:03 Terrasse 8.10 7.57 99.90
33213 2020-10-11 09:28:45 Terrasse 7.70 7.13 99.90
33212 2020-10-11 08:33:30 Terrasse 6.80 6.14 99.90
33211 2020-10-11 06:07:23 Terrasse 7.00 6.36 99.90
33210 2020-10-11 04:40:11 Terrasse 7.90 7.35 99.90
33209 2020-10-11 04:10:18 Terrasse 8.10 7.57 99.90
33208 2020-10-11 02:16:03 Terrasse 8.00 7.46 99.90
33207 2020-10-11 00:20:54 Terrasse 8.30 7.79 99.90
33206 2020-10-10 23:51:30 Terrasse 7.90 7.35 99.90
33205 2020-10-10 23:23:05 Terrasse 8.10 7.57 99.90
33204 2020-10-10 22:54:43 Terrasse 8.10 7.57 99.90
33203 2020-10-10 22:26:09 Terrasse 8.60 8.12 99.90
33202 2020-10-10 21:58:19 Terrasse 8.90 8.45 99.90
33201 2020-10-10 21:29:46 Terrasse 9.30 8.89 99.90
33200 2020-10-10 21:01:14 Terrasse 9.50 9.11 99.90
33199 2020-10-10 20:32:47 Terrasse 9.60 9.22 99.90
33198 2020-10-10 20:04:05 Terrasse 10.20 9.64 90.50
33197 2020-10-10 19:36:14 Terrasse 10.60 9.77 78.50
33196 2020-10-10 19:07:57 Terrasse 11.60 10.56 66.80
33195 2020-10-10 18:39:49 Terrasse 12.70 11.65 62.10
33194 2020-10-10 18:11:46 Terrasse 14.00 12.97 58.00
33193 2020-10-10 17:43:47 Terrasse 15.90 14.98 55.10
33192 2020-10-10 17:16:10 Terrasse 22.70 22.30 49.00
33191 2020-10-10 16:48:06 Terrasse 25.40 25.25 48.10
33190 2020-10-10 16:19:00 Terrasse 16.80 16.05 58.00
33189 2020-10-10 15:50:55 Terrasse 15.00 14.10 59.30
33188 2020-10-10 15:22:49 Terrasse 15.90 15.14 61.10
33187 2020-10-10 14:26:36 Terrasse 15.90 15.82 87.00
33186 2020-10-10 13:58:29 Terrasse 14.40 13.87 75.50
33185 2020-10-10 13:30:36 Terrasse 14.90 14.65 84.60
33184 2020-10-10 13:02:26 Terrasse 14.90 14.85 92.00
33183 2020-10-10 12:34:23 Terrasse 13.10 13.07 99.90
33182 2020-10-10 12:04:52 Terrasse 12.30 12.19 99.90
33181 2020-10-10 11:36:34 Terrasse 11.30 11.09 99.90
33180 2020-10-10 10:40:15 Terrasse 10.50 10.21 99.90
33179 2020-10-10 07:47:49 Terrasse 9.60 9.22 99.90
33178 2020-10-10 07:19:52 Terrasse 9.80 9.44 99.90
33177 2020-10-10 06:51:54 Terrasse 9.90 9.55 99.90
33176 2020-10-10 06:24:39 Terrasse 10.00 9.66 99.90
33175 2020-10-10 05:53:11 Terrasse 9.70 9.33 99.90
33174 2020-10-10 01:40:11 Terrasse 11.60 11.42 99.90
33173 2020-10-10 01:09:44 Terrasse 11.70 11.53 99.90
33172 2020-10-10 00:40:08 Terrasse 11.80 11.64 99.90
33171 2020-10-09 23:40:31 Terrasse 11.80 11.64 99.90
33170 2020-10-09 23:12:24 Terrasse 11.80 11.64 99.90
33169 2020-10-09 22:44:20 Terrasse 11.80 11.64 99.90
33168 2020-10-09 21:45:19 Terrasse 11.90 11.75 99.90
33167 2020-10-09 20:20:15 Terrasse 12.60 12.52 99.90
33166 2020-10-09 19:23:58 Terrasse 13.30 13.29 99.90
33165 2020-10-09 18:55:46 Terrasse 13.40 13.40 99.90
33164 2020-10-09 18:27:29 Terrasse 13.40 13.40 99.90
33163 2020-10-09 16:07:27 Terrasse 13.40 13.40 99.90
33162 2020-10-09 15:39:02 Terrasse 13.40 13.40 99.90
33161 2020-10-09 15:08:24 Terrasse 13.50 13.51 99.90
33160 2020-10-09 14:39:55 Terrasse 13.50 13.51 99.90
33159 2020-10-09 12:45:57 Terrasse 13.50 13.51 99.90
33158 2020-10-09 12:16:43 Terrasse 13.40 13.40 99.90
33157 2020-10-09 11:48:26 Terrasse 13.30 13.29 99.90
33156 2020-10-09 11:20:09 Terrasse 13.20 13.18 99.90
33155 2020-10-09 10:51:57 Terrasse 13.20 13.18 99.90
33154 2020-10-09 10:23:45 Terrasse 13.20 13.18 99.90
33153 2020-10-09 09:55:28 Terrasse 13.00 12.96 99.90
33152 2020-10-09 08:59:13 Terrasse 13.00 12.96 99.90
33151 2020-10-09 08:30:57 Terrasse 13.00 12.96 99.90
33150 2020-10-09 08:02:48 Terrasse 12.90 12.85 99.90
33149 2020-10-09 07:34:33 Terrasse 12.90 12.85 99.90
33148 2020-10-09 07:06:18 Terrasse 12.90 12.85 99.90
33147 2020-10-09 06:38:05 Terrasse 12.90 12.85 99.90
33146 2020-10-09 06:10:12 Terrasse 12.90 12.85 99.90
33145 2020-10-09 04:17:32 Terrasse 13.30 13.29 99.90
33144 2020-10-09 03:49:31 Terrasse 13.30 13.29 99.90
33143 2020-10-09 02:53:21 Terrasse 13.40 13.40 99.90
33142 2020-10-09 02:25:20 Terrasse 13.40 13.40 99.90
33141 2020-10-09 01:57:08 Terrasse 13.40 13.40 99.90
33140 2020-10-09 01:29:03 Terrasse 13.40 13.40 99.90
33139 2020-10-09 00:04:27 Terrasse 13.40 13.40 99.90
33138 2020-10-08 23:36:13 Terrasse 13.30 13.29 99.90
33137 2020-10-08 23:07:59 Terrasse 13.30 13.29 99.90
33136 2020-10-08 22:39:43 Terrasse 13.20 13.18 99.90
33135 2020-10-08 22:11:28 Terrasse 13.20 13.18 99.90
33134 2020-10-08 21:43:22 Terrasse 13.20 13.18 99.90
33133 2020-10-08 21:15:13 Terrasse 13.10 13.07 99.90
33132 2020-10-08 20:47:02 Terrasse 13.10 13.07 99.90
33131 2020-10-08 20:18:54 Terrasse 13.00 12.96 99.90
33130 2020-10-08 19:50:52 Terrasse 13.00 12.96 99.90
33129 2020-10-08 19:22:34 Terrasse 12.90 12.85 99.90
33128 2020-10-08 18:54:19 Terrasse 12.90 12.85 99.90
33127 2020-10-08 18:25:53 Terrasse 12.90 12.85 99.90
33126 2020-10-08 17:58:20 Terrasse 12.90 12.85 99.90
33125 2020-10-08 17:29:23 Terrasse 12.90 12.85 99.90
33124 2020-10-08 17:01:17 Terrasse 13.00 12.96 99.90
33123 2020-10-08 14:13:06 Terrasse 12.10 11.97 99.90
33122 2020-10-08 12:48:25 Terrasse 11.40 11.20 99.90
33121 2020-10-08 11:51:17 Terrasse 11.10 10.87 99.90
33120 2020-10-08 09:30:55 Terrasse 10.50 10.21 99.90
33119 2020-10-08 08:34:59 Terrasse 10.30 9.99 99.90
33118 2020-10-08 06:12:30 Terrasse 10.00 9.66 99.90
33117 2020-10-08 05:43:06 Terrasse 10.00 9.66 99.90
33116 2020-10-08 05:13:40 Terrasse 10.00 9.66 99.90
33115 2020-10-08 04:45:19 Terrasse 10.00 9.66 99.90
33114 2020-10-08 04:16:45 Terrasse 9.90 9.55 99.90
33113 2020-10-08 03:20:05 Terrasse 9.90 9.55 99.90
33112 2020-10-08 02:51:46 Terrasse 10.00 9.66 99.90
33111 2020-10-08 02:23:17 Terrasse 10.20 9.88 99.90
33110 2020-10-08 01:54:51 Terrasse 10.30 9.99 99.90
33109 2020-10-08 01:26:04 Terrasse 10.60 10.32 99.90
33108 2020-10-08 00:57:52 Terrasse 10.90 10.65 99.90
33107 2020-10-08 00:29:42 Terrasse 11.20 10.98 99.90
33106 2020-10-08 00:01:32 Terrasse 11.40 11.20 99.90
33105 2020-10-07 23:32:51 Terrasse 11.50 11.31 99.90
33104 2020-10-07 23:04:16 Terrasse 11.60 11.42 99.90
33103 2020-10-07 22:34:59 Terrasse 11.80 11.64 99.90
33102 2020-10-07 20:41:10 Terrasse 11.80 11.64 99.90
33101 2020-10-07 20:12:41 Terrasse 12.30 12.19 99.90
33100 2020-10-07 19:44:06 Terrasse 12.60 12.52 99.90
33099 2020-10-07 17:49:37 Terrasse 13.50 13.51 99.90
33098 2020-10-07 17:21:26 Terrasse 13.80 13.84 99.90
33097 2020-10-07 16:53:23 Terrasse 14.50 14.61 99.90
33096 2020-10-07 16:25:06 Terrasse 13.90 13.95 99.90
33095 2020-10-07 15:57:00 Terrasse 14.20 14.28 99.90
33094 2020-10-07 15:28:52 Terrasse 14.40 14.50 99.90
33093 2020-10-07 15:00:45 Terrasse 14.20 14.28 99.90
33092 2020-10-07 14:32:38 Terrasse 14.40 14.50 99.90
33091 2020-10-07 14:04:30 Terrasse 14.50 14.61 99.90
33090 2020-10-07 13:36:16 Terrasse 15.30 15.49 99.90
33089 2020-10-07 13:08:12 Terrasse 16.30 16.59 99.90
33088 2020-10-07 12:39:50 Terrasse 15.50 15.71 99.90
33087 2020-10-07 12:11:34 Terrasse 12.80 12.74 99.90
33086 2020-10-07 11:43:34 Terrasse 12.30 12.19 99.90
33085 2020-10-07 09:23:04 Terrasse 10.70 10.43 99.90
33084 2020-10-07 08:53:22 Terrasse 10.50 10.21 99.90
33083 2020-10-07 08:25:25 Terrasse 10.40 10.10 99.90
33082 2020-10-07 07:57:10 Terrasse 10.40 10.10 99.90
33081 2020-10-07 07:27:45 Terrasse 10.40 10.10 99.90
33080 2020-10-07 06:03:09 Terrasse 10.40 10.10 99.90
33079 2020-10-07 05:32:41 Terrasse 10.50 10.21 99.90
33078 2020-10-07 05:04:08 Terrasse 10.60 10.32 99.90
33077 2020-10-07 04:36:15 Terrasse 10.70 10.43 99.90
33076 2020-10-07 04:06:43 Terrasse 10.70 10.43 99.90
33075 2020-10-07 03:38:31 Terrasse 10.80 10.54 99.90
33074 2020-10-07 03:08:11 Terrasse 10.80 10.54 99.90
33073 2020-10-07 02:39:58 Terrasse 10.90 10.65 99.90
33072 2020-10-07 02:10:32 Terrasse 10.90 10.65 99.90
33071 2020-10-07 01:41:46 Terrasse 10.90 10.65 99.90
33070 2020-10-07 00:45:17 Terrasse 11.00 10.76 99.90
33069 2020-10-06 23:47:59 Terrasse 11.10 10.87 99.90
33068 2020-10-06 23:17:36 Terrasse 11.00 10.76 99.90
33067 2020-10-06 22:47:59 Terrasse 11.10 10.87 99.90
33066 2020-10-06 22:19:35 Terrasse 11.10 10.87 99.90
33065 2020-10-06 21:49:12 Terrasse 11.20 10.98 99.90
33064 2020-10-06 21:19:47 Terrasse 11.30 11.09 99.90
33063 2020-10-06 20:22:20 Terrasse 11.50 11.31 99.90
33062 2020-10-06 19:52:55 Terrasse 11.60 11.42 99.90
33061 2020-10-06 18:55:05 Terrasse 11.80 11.64 99.90
33060 2020-10-06 17:58:41 Terrasse 12.00 11.86 99.90
33059 2020-10-06 17:30:16 Terrasse 11.90 11.75 99.90
33058 2020-10-06 17:01:53 Terrasse 11.90 11.75 99.90
33057 2020-10-06 15:37:38 Terrasse 11.50 11.31 99.90
33056 2020-10-06 15:09:30 Terrasse 11.40 11.20 99.90
33055 2020-10-06 11:50:41 Terrasse 11.00 10.76 99.90
33054 2020-10-06 10:26:19 Terrasse 10.80 10.54 99.90
33053 2020-10-06 09:57:49 Terrasse 10.70 10.43 99.90
33052 2020-10-06 09:29:02 Terrasse 10.70 10.43 99.90
33051 2020-10-06 09:00:52 Terrasse 10.70 10.43 99.90
33050 2020-10-06 08:32:49 Terrasse 10.60 10.32 99.90
33049 2020-10-06 08:03:29 Terrasse 10.50 10.21 99.90
33048 2020-10-06 07:34:04 Terrasse 10.60 10.32 99.90
33047 2020-10-06 07:05:44 Terrasse 10.70 10.43 99.90
33046 2020-10-06 06:35:53 Terrasse 10.80 10.54 99.90
33045 2020-10-06 06:07:45 Terrasse 10.90 10.65 99.90
33044 2020-10-06 05:39:05 Terrasse 10.90 10.65 99.90
33043 2020-10-06 05:10:35 Terrasse 10.90 10.65 99.90
33042 2020-10-06 04:41:34 Terrasse 10.80 10.54 99.90
33041 2020-10-06 04:12:34 Terrasse 10.80 10.54 99.90
33040 2020-10-06 03:44:40 Terrasse 10.70 10.43 99.90
33039 2020-10-06 03:16:10 Terrasse 10.70 10.43 99.90
33038 2020-10-06 02:47:54 Terrasse 10.70 10.43 99.90
33037 2020-10-06 02:18:22 Terrasse 10.80 10.54 99.90
33036 2020-10-06 01:49:57 Terrasse 10.80 10.54 99.90
33035 2020-10-06 01:21:34 Terrasse 10.80 10.54 99.90
33034 2020-10-06 00:52:56 Terrasse 10.80 10.54 99.90
33033 2020-10-06 00:24:19 Terrasse 10.80 10.54 99.90
33032 2020-10-05 23:55:58 Terrasse 10.80 10.54 99.90
33031 2020-10-05 23:26:17 Terrasse 10.80 10.54 99.90
33030 2020-10-05 22:58:00 Terrasse 10.90 10.65 99.90
33029 2020-10-05 22:28:37 Terrasse 10.90 10.65 99.90
33028 2020-10-05 21:59:30 Terrasse 10.90 10.65 99.90
33027 2020-10-05 21:29:06 Terrasse 10.80 10.54 99.90
33026 2020-10-05 21:00:42 Terrasse 10.90 10.65 99.90
33025 2020-10-05 20:32:08 Terrasse 10.90 10.65 99.90
33024 2020-10-05 20:03:40 Terrasse 11.00 10.76 99.90
33023 2020-10-05 19:34:24 Terrasse 11.00 10.76 99.90
33022 2020-10-05 19:04:50 Terrasse 11.00 10.76 99.90
33021 2020-10-05 18:36:27 Terrasse 11.10 10.87 99.90
33020 2020-10-05 18:06:49 Terrasse 11.10 10.87 99.90
33019 2020-10-05 17:38:50 Terrasse 11.20 10.98 99.90
33018 2020-10-05 16:12:58 Terrasse 11.30 11.09 99.90
33017 2020-10-05 13:51:57 Terrasse 11.50 11.31 99.90
33016 2020-10-05 13:23:25 Terrasse 11.40 11.20 99.90
33015 2020-10-05 12:55:17 Terrasse 11.60 11.42 99.90
33014 2020-10-05 12:26:36 Terrasse 11.90 11.75 99.90
33013 2020-10-05 10:33:43 Terrasse 11.30 11.09 99.90
33012 2020-10-05 10:05:25 Terrasse 11.00 10.76 99.90
33011 2020-10-05 09:37:09 Terrasse 10.60 10.32 99.90
33010 2020-10-05 08:40:47 Terrasse 10.40 10.10 99.90
33009 2020-10-05 08:12:33 Terrasse 10.30 9.99 99.90
33008 2020-10-05 07:44:18 Terrasse 10.30 9.99 99.90
33007 2020-10-05 07:16:04 Terrasse 10.20 9.88 99.90
33006 2020-10-05 06:47:50 Terrasse 10.20 9.88 99.90
33005 2020-10-05 06:19:37 Terrasse 10.40 10.10 99.90
33004 2020-10-05 05:51:59 Terrasse 10.40 10.10 99.90
33003 2020-10-05 05:23:25 Terrasse 10.50 10.21 99.90
33002 2020-10-05 04:25:45 Terrasse 10.50 10.21 99.90
33001 2020-10-05 03:58:04 Terrasse 10.40 10.10 99.90
33000 2020-10-05 03:01:57 Terrasse 10.40 10.10 99.90
32999 2020-10-05 02:32:40 Terrasse 10.30 9.99 99.90
32998 2020-10-05 02:05:03 Terrasse 10.20 9.88 99.90
32997 2020-10-05 01:35:57 Terrasse 10.20 9.88 99.90
32996 2020-10-05 01:08:21 Terrasse 10.20 9.88 99.90
32995 2020-10-05 00:39:11 Terrasse 10.40 10.10 99.90
32994 2020-10-05 00:10:56 Terrasse 10.50 10.21 99.90
32993 2020-10-04 23:42:45 Terrasse 11.10 10.87 99.90
32992 2020-10-04 23:14:31 Terrasse 11.30 11.09 99.90
32991 2020-10-04 22:46:19 Terrasse 11.50 11.31 99.90
32990 2020-10-04 22:18:06 Terrasse 11.60 11.42 99.90
32989 2020-10-04 21:49:54 Terrasse 11.90 11.75 99.90
32988 2020-10-04 21:21:40 Terrasse 12.00 11.86 99.90
32987 2020-10-04 20:53:26 Terrasse 12.10 11.97 99.90
32986 2020-10-04 20:25:14 Terrasse 12.30 12.19 99.90
32985 2020-10-04 19:57:03 Terrasse 12.70 12.63 99.90
32984 2020-10-04 19:28:49 Terrasse 12.90 12.85 99.90
32983 2020-10-04 19:00:37 Terrasse 13.10 13.07 99.90
32982 2020-10-04 18:32:25 Terrasse 13.30 13.29 99.90
32981 2020-10-04 18:04:27 Terrasse 13.60 13.49 94.70
32980 2020-10-04 17:36:09 Terrasse 14.00 13.92 94.30
32979 2020-10-04 17:08:10 Terrasse 14.10 13.76 84.20
32978 2020-10-04 16:39:52 Terrasse 14.40 13.93 77.80
32977 2020-10-04 16:11:46 Terrasse 16.10 15.62 70.90
32976 2020-10-04 15:43:32 Terrasse 15.70 15.29 75.10
32975 2020-10-04 15:15:13 Terrasse 14.00 13.97 96.20
32974 2020-10-04 14:46:55 Terrasse 12.60 12.34 92.80
32973 2020-10-04 14:18:57 Terrasse 13.40 13.27 94.60
32972 2020-10-04 13:50:35 Terrasse 12.40 12.26 98.40
32971 2020-10-04 13:22:25 Terrasse 12.30 12.19 99.90
32970 2020-10-04 12:54:26 Terrasse 11.30 11.09 99.90
32969 2020-10-04 12:25:59 Terrasse 10.70 10.43 99.90
32968 2020-10-04 11:58:30 Terrasse 10.70 10.43 99.90
32967 2020-10-04 11:29:38 Terrasse 10.60 10.32 99.90
32966 2020-10-04 11:01:40 Terrasse 10.60 10.32 99.90
32965 2020-10-04 10:32:19 Terrasse 10.60 10.32 99.90
32964 2020-10-04 10:03:03 Terrasse 10.50 10.21 99.90
32963 2020-10-04 09:32:36 Terrasse 10.40 10.10 99.90
32962 2020-10-04 09:04:05 Terrasse 10.50 10.21 99.90
32961 2020-10-04 08:35:50 Terrasse 10.50 10.21 99.90
32960 2020-10-04 08:06:36 Terrasse 10.30 9.99 99.90
32959 2020-10-04 07:37:22 Terrasse 10.40 10.10 99.90
32958 2020-10-04 07:07:55 Terrasse 10.40 10.10 99.90
32957 2020-10-04 06:39:23 Terrasse 10.40 10.10 99.90
32956 2020-10-04 06:09:38 Terrasse 10.50 10.21 99.90
32955 2020-10-04 05:41:30 Terrasse 10.50 10.21 99.90
32954 2020-10-04 05:13:12 Terrasse 10.70 10.43 99.90
32953 2020-10-04 04:43:28 Terrasse 10.70 10.43 99.90
32952 2020-10-04 04:14:48 Terrasse 10.80 10.54 99.90
32951 2020-10-04 03:45:55 Terrasse 10.70 10.43 99.90
32950 2020-10-04 03:17:52 Terrasse 10.70 10.43 99.90
32949 2020-10-04 02:50:02 Terrasse 10.70 10.43 99.90
32948 2020-10-04 02:21:14 Terrasse 10.70 10.43 99.90
32947 2020-10-04 01:53:07 Terrasse 10.60 10.32 99.90
32946 2020-10-04 01:24:13 Terrasse 10.60 10.32 99.90
32945 2020-10-04 00:56:35 Terrasse 10.70 10.43 99.90
32944 2020-10-04 00:27:42 Terrasse 10.60 10.32 99.90
32943 2020-10-03 23:59:21 Terrasse 10.60 10.32 99.90
32942 2020-10-03 23:31:09 Terrasse 10.60 10.32 99.90
32941 2020-10-03 23:02:55 Terrasse 10.70 10.43 99.90
32940 2020-10-03 22:34:43 Terrasse 10.80 10.54 99.90
32939 2020-10-03 22:06:30 Terrasse 10.80 10.54 99.90
32938 2020-10-03 21:38:18 Terrasse 11.00 10.76 99.90
32937 2020-10-03 21:10:06 Terrasse 11.10 10.87 99.90
32936 2020-10-03 20:41:54 Terrasse 11.20 10.98 99.90
32935 2020-10-03 20:13:42 Terrasse 11.40 11.20 99.90
32934 2020-10-03 19:46:23 Terrasse 11.70 11.53 99.90
32933 2020-10-03 19:17:09 Terrasse 12.10 11.97 99.90
32932 2020-10-03 18:48:58 Terrasse 12.20 12.08 99.90
32931 2020-10-03 18:21:18 Terrasse 12.30 12.19 99.90
32930 2020-10-03 17:53:17 Terrasse 12.40 12.30 99.90
32929 2020-10-03 17:24:34 Terrasse 12.40 12.30 99.90
32928 2020-10-03 16:56:27 Terrasse 12.50 12.41 99.90
32927 2020-10-03 16:27:48 Terrasse 12.30 12.19 99.90
32926 2020-10-03 15:59:18 Terrasse 12.20 12.08 99.90
32925 2020-10-03 15:30:37 Terrasse 12.20 12.08 99.90
32924 2020-10-03 15:02:34 Terrasse 12.20 12.08 99.90
32923 2020-10-03 14:34:08 Terrasse 12.60 12.52 99.90
32922 2020-10-03 14:06:07 Terrasse 13.00 12.96 99.90
32921 2020-10-03 13:37:42 Terrasse 13.30 13.29 99.90
32920 2020-10-03 13:09:41 Terrasse 13.50 13.51 99.90
32919 2020-10-03 12:41:48 Terrasse 14.10 14.17 99.90
32918 2020-10-03 12:13:25 Terrasse 14.80 14.94 99.90
32917 2020-10-03 11:45:14 Terrasse 15.40 15.60 99.90
32916 2020-10-03 11:17:00 Terrasse 15.40 15.60 99.90
32915 2020-10-03 10:48:49 Terrasse 15.70 15.93 99.90
32914 2020-10-03 10:20:34 Terrasse 15.50 15.71 99.90
32913 2020-10-03 09:52:30 Terrasse 15.20 15.38 99.90
32912 2020-10-03 09:24:11 Terrasse 15.00 15.16 99.90
32911 2020-10-03 08:56:07 Terrasse 14.80 14.94 99.90
32910 2020-10-03 08:27:53 Terrasse 14.90 15.05 99.90
32909 2020-10-03 07:59:42 Terrasse 15.20 15.38 99.90
32908 2020-10-03 07:31:29 Terrasse 15.30 15.49 99.90
32907 2020-10-03 07:03:33 Terrasse 15.40 15.60 99.90
32906 2020-10-03 06:35:13 Terrasse 15.50 15.71 99.90
32905 2020-10-03 05:38:56 Terrasse 15.60 15.82 99.90
32904 2020-10-03 05:10:46 Terrasse 15.70 15.93 99.90
32903 2020-10-03 04:14:34 Terrasse 15.80 16.04 99.90
32902 2020-10-03 03:46:26 Terrasse 15.80 16.04 99.90
32901 2020-10-03 03:18:11 Terrasse 15.90 16.15 99.90
32900 2020-10-03 02:50:03 Terrasse 15.90 16.15 99.90
32899 2020-10-03 02:21:49 Terrasse 15.90 16.15 99.90
32898 2020-10-03 01:53:46 Terrasse 16.00 16.26 99.90
32897 2020-10-03 01:25:31 Terrasse 16.10 16.37 99.90
32896 2020-10-03 00:01:09 Terrasse 16.30 16.59 99.90
32895 2020-10-02 23:33:13 Terrasse 16.30 16.59 99.90
32894 2020-10-02 23:05:08 Terrasse 16.40 16.70 99.90
32893 2020-10-02 22:36:57 Terrasse 16.50 16.81 99.90
32892 2020-10-02 22:08:59 Terrasse 16.60 16.92 99.90
32891 2020-10-02 21:40:56 Terrasse 16.60 16.92 99.90
32890 2020-10-02 21:12:40 Terrasse 16.70 17.03 99.90
32889 2020-10-02 20:44:27 Terrasse 16.80 17.14 99.90
32888 2020-10-02 20:16:29 Terrasse 16.90 17.25 99.90
32887 2020-10-02 19:48:28 Terrasse 17.00 17.36 99.90
32886 2020-10-02 19:20:10 Terrasse 17.10 17.47 99.90
32885 2020-10-02 18:51:59 Terrasse 17.30 17.69 99.90
32884 2020-10-02 18:24:06 Terrasse 17.50 17.91 99.90
32883 2020-10-02 17:55:54 Terrasse 17.70 18.13 99.90
32882 2020-10-02 17:27:45 Terrasse 17.90 18.35 99.90
32881 2020-10-02 16:59:36 Terrasse 18.40 18.90 99.90
32880 2020-10-02 16:31:35 Terrasse 19.20 19.78 99.90
32879 2020-10-02 16:03:24 Terrasse 19.40 20.00 99.90
32878 2020-10-02 15:35:04 Terrasse 19.90 20.55 99.90
32877 2020-10-01 07:01:46 Terrasse 11.90 11.75 99.90
32876 2020-10-01 06:33:24 Terrasse 12.10 11.97 99.90
32875 2020-10-01 05:34:23 Terrasse 12.10 11.97 99.90
32874 2020-10-01 05:06:15 Terrasse 12.10 11.97 99.90
32873 2020-10-01 03:38:13 Terrasse 12.30 12.19 99.90
32872 2020-10-01 03:09:54 Terrasse 12.40 12.30 99.90
32871 2020-09-30 22:56:19 Terrasse 13.30 13.29 99.90
32870 2020-09-30 21:58:26 Terrasse 13.40 13.40 99.90
32869 2020-09-30 21:29:55 Terrasse 13.30 13.29 99.90
32868 2020-09-30 20:31:16 Terrasse 13.70 13.73 99.90
32867 2020-09-30 18:10:32 Terrasse 16.50 16.81 99.90
32866 2020-09-30 17:42:10 Terrasse 18.40 18.90 99.90
32865 2020-09-30 16:45:43 Terrasse 16.80 17.14 99.90
32864 2020-09-30 15:48:51 Terrasse 18.70 19.23 99.90
32863 2020-09-30 15:20:46 Terrasse 16.80 17.14 99.90
32862 2020-09-30 14:24:05 Terrasse 14.30 14.39 99.90
32861 2020-09-30 13:26:20 Terrasse 13.70 13.73 99.90
32860 2020-09-30 12:57:50 Terrasse 13.40 13.40 99.90
32859 2020-09-30 12:29:11 Terrasse 13.10 13.07 99.90
32858 2020-09-30 12:00:47 Terrasse 12.90 12.85 99.90
32857 2020-09-30 11:32:24 Terrasse 12.80 12.74 99.90
32856 2020-09-30 11:04:00 Terrasse 12.60 12.52 99.90
32855 2020-09-30 10:35:38 Terrasse 12.50 12.41 99.90
32854 2020-09-30 10:07:14 Terrasse 12.30 12.19 99.90
32853 2020-09-30 09:38:52 Terrasse 12.10 11.97 99.90
32852 2020-09-30 09:10:27 Terrasse 11.90 11.75 99.90
32851 2020-09-30 08:42:02 Terrasse 11.40 11.20 99.90
32850 2020-09-30 08:13:39 Terrasse 11.20 10.98 99.90
32849 2020-09-30 07:45:17 Terrasse 11.30 11.09 99.90
32848 2020-09-30 07:16:53 Terrasse 11.30 11.09 99.90
32847 2020-09-30 06:48:31 Terrasse 11.30 11.09 99.90
32846 2020-09-30 06:20:10 Terrasse 11.80 11.64 99.90
32845 2020-09-30 05:51:48 Terrasse 11.90 11.75 99.90
32844 2020-09-30 05:23:26 Terrasse 11.90 11.75 99.90
32843 2020-09-30 04:55:04 Terrasse 12.10 11.97 99.90
32842 2020-09-30 04:26:41 Terrasse 12.10 11.97 99.90
32841 2020-09-30 03:58:18 Terrasse 12.10 11.97 99.90
32840 2020-09-30 03:29:58 Terrasse 12.20 12.08 99.90
32839 2020-09-30 03:01:34 Terrasse 12.30 12.19 99.90
32838 2020-09-30 02:33:13 Terrasse 12.20 12.08 99.90
32837 2020-09-30 02:04:51 Terrasse 12.30 12.19 99.90
32836 2020-09-30 01:36:29 Terrasse 12.40 12.30 99.90
32835 2020-09-30 01:08:07 Terrasse 12.40 12.30 99.90
32834 2020-09-30 00:39:45 Terrasse 12.40 12.30 99.90
32833 2020-09-30 00:11:22 Terrasse 12.50 12.41 99.90
32832 2020-09-29 23:43:00 Terrasse 12.50 12.41 99.90
32831 2020-09-29 23:14:37 Terrasse 12.50 12.41 99.90
32830 2020-09-29 22:46:16 Terrasse 12.60 12.52 99.90
32829 2020-09-29 22:17:53 Terrasse 12.80 12.74 99.90
32828 2020-09-29 21:49:30 Terrasse 12.80 12.74 99.90
32827 2020-09-29 21:21:07 Terrasse 12.80 12.74 99.90
32826 2020-09-29 20:52:45 Terrasse 12.80 12.74 99.90
32825 2020-09-29 20:24:23 Terrasse 12.90 12.85 99.90
32824 2020-09-29 19:56:00 Terrasse 13.00 12.96 99.90
32823 2020-09-29 19:27:38 Terrasse 13.10 13.07 99.90
32822 2020-09-29 18:59:15 Terrasse 13.10 13.07 99.90
32821 2020-09-29 18:30:53 Terrasse 13.00 12.96 99.90
32820 2020-09-29 18:02:31 Terrasse 13.10 13.07 99.90
32819 2020-09-29 17:34:09 Terrasse 13.00 12.96 99.90
32818 2020-09-29 17:05:55 Terrasse 13.00 12.96 99.90
32817 2020-09-29 16:37:31 Terrasse 13.00 12.96 99.90
32816 2020-09-29 16:09:07 Terrasse 13.00 12.96 99.90
32815 2020-09-29 15:40:46 Terrasse 13.00 12.96 99.90
32814 2020-09-29 15:12:22 Terrasse 13.00 12.96 99.90
32813 2020-09-29 14:44:00 Terrasse 12.90 12.85 99.90
32812 2020-09-29 14:15:37 Terrasse 12.70 12.63 99.90
32811 2020-09-29 13:47:14 Terrasse 12.50 12.41 99.90
32810 2020-09-29 13:18:52 Terrasse 12.50 12.41 99.90
32809 2020-09-29 12:50:27 Terrasse 12.20 12.08 99.90
32808 2020-09-29 12:22:05 Terrasse 12.00 11.86 99.90
32807 2020-09-29 11:53:43 Terrasse 11.90 11.75 99.90
32806 2020-09-29 11:25:20 Terrasse 11.70 11.53 99.90
32805 2020-09-29 10:56:58 Terrasse 11.60 11.42 99.90
32804 2020-09-29 10:28:33 Terrasse 11.40 11.20 99.90
32803 2020-09-29 10:00:11 Terrasse 11.30 11.09 99.90
32802 2020-09-29 09:31:48 Terrasse 11.20 10.98 99.90
32801 2020-09-29 09:03:24 Terrasse 11.00 10.76 99.90
32800 2020-09-29 08:35:02 Terrasse 10.90 10.65 99.90
32799 2020-09-29 08:06:40 Terrasse 10.90 10.65 99.90
32798 2020-09-29 07:38:17 Terrasse 10.90 10.65 99.90
32797 2020-09-29 07:09:54 Terrasse 10.80 10.54 99.90
32796 2020-09-29 06:41:31 Terrasse 10.70 10.43 99.90
32795 2020-09-29 06:13:08 Terrasse 10.60 10.32 99.90
32794 2020-09-29 05:44:46 Terrasse 10.70 10.43 99.90
32793 2020-09-29 05:16:25 Terrasse 10.80 10.54 99.90
32792 2020-09-29 04:48:03 Terrasse 10.80 10.54 99.90
32791 2020-09-29 04:19:42 Terrasse 10.90 10.65 99.90
32790 2020-09-29 03:51:19 Terrasse 10.90 10.65 99.90
32789 2020-09-29 03:22:56 Terrasse 10.80 10.54 99.90
32788 2020-09-29 02:54:34 Terrasse 10.70 10.43 99.90
32787 2020-09-29 02:26:11 Terrasse 10.50 10.21 99.90
32786 2020-09-29 01:57:48 Terrasse 10.40 10.10 99.90
32785 2020-09-29 01:29:26 Terrasse 10.30 9.99 99.90
32784 2020-09-29 01:01:03 Terrasse 10.20 9.88 99.90
32783 2020-09-29 00:32:40 Terrasse 10.40 10.10 99.90
32782 2020-09-29 00:04:19 Terrasse 10.60 10.32 99.90
32781 2020-09-28 23:36:00 Terrasse 11.00 10.76 99.90
32780 2020-09-28 23:07:41 Terrasse 11.60 11.42 99.90
32779 2020-09-28 22:39:19 Terrasse 11.90 11.75 99.90
32778 2020-09-28 22:10:57 Terrasse 12.00 11.86 99.90
32777 2020-09-28 21:42:33 Terrasse 11.90 11.75 99.90
32776 2020-09-28 21:14:17 Terrasse 11.90 11.75 99.90
32775 2020-09-28 20:45:54 Terrasse 12.30 12.19 99.90
32774 2020-09-28 20:17:34 Terrasse 12.80 12.74 99.90
32773 2020-09-28 19:49:15 Terrasse 13.30 13.29 99.90
32772 2020-09-28 19:20:53 Terrasse 13.50 13.51 99.90
32771 2020-09-28 18:52:37 Terrasse 13.80 13.84 99.90
32770 2020-09-28 18:24:15 Terrasse 14.10 14.17 99.90
32769 2020-09-28 17:55:56 Terrasse 14.60 14.72 99.90
32768 2020-09-28 17:27:34 Terrasse 14.50 14.61 99.90
32767 2020-09-28 16:59:13 Terrasse 14.60 14.72 99.90
32766 2020-09-28 16:30:52 Terrasse 14.90 14.94 95.60
32765 2020-09-28 16:03:24 Terrasse 15.60 15.58 90.70
32764 2020-09-28 15:34:21 Terrasse 16.10 16.15 91.50
32763 2020-09-28 15:06:09 Terrasse 14.80 14.87 96.90
32762 2020-09-28 14:39:46 Terrasse 15.20 15.35 98.60
32761 2020-09-28 14:02:52 Terrasse 15.20 15.18 91.90
32760 2020-09-28 13:34:34 Terrasse 15.80 15.92 95.00
32759 2020-09-28 13:06:06 Terrasse 14.40 14.50 99.90
32758 2020-09-28 12:37:37 Terrasse 13.50 13.51 99.90
32757 2020-09-28 12:09:16 Terrasse 13.60 13.62 99.90
32756 2020-09-28 11:40:40 Terrasse 12.30 12.19 99.90
32755 2020-09-28 11:12:14 Terrasse 11.80 11.64 99.90
32754 2020-09-28 10:43:47 Terrasse 10.90 10.65 99.90
32753 2020-09-28 10:15:22 Terrasse 10.30 9.99 99.90
32752 2020-09-28 09:47:00 Terrasse 10.00 9.66 99.90
32751 2020-09-28 09:18:35 Terrasse 9.80 9.44 99.90
32750 2020-09-28 08:50:11 Terrasse 9.40 9.00 99.90
32749 2020-09-28 08:21:48 Terrasse 9.00 8.56 99.90
32748 2020-09-28 07:53:24 Terrasse 8.90 8.45 99.90
32747 2020-09-28 07:25:01 Terrasse 8.70 8.23 99.90
32746 2020-09-28 06:56:39 Terrasse 8.60 8.12 99.90
32745 2020-09-28 06:28:19 Terrasse 8.50 8.01 99.90
32744 2020-09-28 05:59:59 Terrasse 8.70 8.23 99.90
32743 2020-09-28 05:31:38 Terrasse 8.90 8.45 99.90
32742 2020-09-28 05:03:19 Terrasse 9.00 8.56 99.90
32741 2020-09-28 04:34:57 Terrasse 9.20 8.78 99.90
32740 2020-09-28 04:06:36 Terrasse 9.30 8.89 99.90
32739 2020-09-28 03:38:16 Terrasse 9.50 9.11 99.90
32738 2020-09-28 03:09:55 Terrasse 9.70 9.33 99.90
32737 2020-09-28 02:41:36 Terrasse 10.10 9.77 99.90
32736 2020-09-28 02:13:14 Terrasse 10.20 9.88 99.90
32735 2020-09-28 01:44:53 Terrasse 10.30 9.99 99.90
32734 2020-09-28 01:16:32 Terrasse 10.40 10.10 99.90
32733 2020-09-28 00:48:12 Terrasse 10.40 10.10 99.90
32732 2020-09-28 00:19:49 Terrasse 10.40 10.10 99.90
32731 2020-09-27 23:51:36 Terrasse 10.40 10.10 99.90
32730 2020-09-27 23:23:12 Terrasse 10.40 10.10 99.90
32729 2020-09-27 22:54:51 Terrasse 10.40 10.10 99.90
32728 2020-09-27 22:26:30 Terrasse 10.50 10.21 99.90
32727 2020-09-27 21:58:09 Terrasse 10.60 10.32 99.90
32726 2020-09-27 21:29:47 Terrasse 10.60 10.32 99.90
32725 2020-09-27 21:01:26 Terrasse 10.60 10.32 99.90
32724 2020-09-27 20:33:05 Terrasse 10.70 10.43 99.90
32723 2020-09-27 20:04:45 Terrasse 10.80 10.54 99.90
32722 2020-09-27 19:36:22 Terrasse 10.90 10.65 99.90
32721 2020-09-27 19:08:00 Terrasse 11.00 10.76 99.90
32720 2020-09-27 18:39:40 Terrasse 11.20 10.98 99.90
32719 2020-09-27 18:11:18 Terrasse 11.30 11.09 99.90
32718 2020-09-27 17:42:54 Terrasse 11.20 10.98 99.90
32717 2020-09-27 17:14:31 Terrasse 11.20 10.98 99.90
32716 2020-09-27 16:46:09 Terrasse 11.30 11.09 99.90
32715 2020-09-27 16:17:49 Terrasse 11.50 11.31 99.90
32714 2020-09-27 15:49:26 Terrasse 11.40 11.20 99.90
32713 2020-09-27 15:21:05 Terrasse 11.50 11.31 99.90
32712 2020-09-27 14:52:43 Terrasse 11.60 11.42 99.90
32711 2020-09-27 14:24:21 Terrasse 11.40 11.20 99.90
32710 2020-09-27 13:56:09 Terrasse 11.40 11.20 99.90
32709 2020-09-27 13:27:44 Terrasse 11.10 10.87 99.90
32708 2020-09-27 12:59:43 Terrasse 11.00 10.76 99.90
32707 2020-09-27 10:56:55 Terrasse 9.60 9.22 99.90
32706 2020-09-27 10:28:33 Terrasse 9.50 9.11 99.90
32705 2020-09-27 10:00:14 Terrasse 9.40 9.00 99.90
32704 2020-09-27 09:31:52 Terrasse 9.30 8.89 99.90
32703 2020-09-27 09:03:31 Terrasse 9.20 8.78 99.90
32702 2020-09-27 08:35:11 Terrasse 9.30 8.89 99.90
32701 2020-09-27 08:06:52 Terrasse 9.30 8.89 99.90
32700 2020-09-27 07:38:31 Terrasse 9.30 8.89 99.90
32699 2020-09-27 07:10:10 Terrasse 9.20 8.78 99.90
32698 2020-09-27 06:41:49 Terrasse 9.20 8.78 99.90
32697 2020-09-27 06:13:28 Terrasse 9.20 8.78 99.90
32696 2020-09-27 05:45:07 Terrasse 9.10 8.67 99.90
32695 2020-09-27 05:16:48 Terrasse 9.10 8.67 99.90
32694 2020-09-27 04:48:27 Terrasse 9.20 8.78 99.90
32693 2020-09-27 04:20:05 Terrasse 9.30 8.89 99.90
32692 2020-09-27 03:51:45 Terrasse 9.40 9.00 99.90
32691 2020-09-27 03:23:23 Terrasse 9.40 9.00 99.90
32690 2020-09-27 02:55:03 Terrasse 9.40 9.00 99.90
32689 2020-09-27 02:26:43 Terrasse 9.50 9.11 99.90
32688 2020-09-27 01:58:23 Terrasse 9.50 9.11 99.90
32687 2020-09-27 01:30:04 Terrasse 9.60 9.22 99.90
32686 2020-09-27 01:01:44 Terrasse 9.80 9.44 99.90
32685 2020-09-27 00:33:25 Terrasse 9.90 9.55 99.90
32684 2020-09-27 00:05:05 Terrasse 10.00 9.66 99.90
32683 2020-09-26 23:36:45 Terrasse 10.20 9.88 99.90
32682 2020-09-26 23:08:26 Terrasse 10.40 10.10 99.90
32681 2020-09-26 22:40:07 Terrasse 10.60 10.32 99.90
32680 2020-09-26 22:11:46 Terrasse 10.70 10.43 99.90
32679 2020-09-26 21:43:28 Terrasse 10.80 10.54 99.90
32678 2020-09-26 21:15:18 Terrasse 10.80 10.54 99.90
32677 2020-09-26 20:46:55 Terrasse 10.90 10.65 99.90
32676 2020-09-26 20:18:35 Terrasse 11.00 10.76 99.90
32675 2020-09-26 19:50:16 Terrasse 11.10 10.87 99.90
32674 2020-09-26 19:21:55 Terrasse 11.20 10.98 99.90
32673 2020-09-26 18:53:35 Terrasse 11.30 11.09 99.90
32672 2020-09-26 18:25:15 Terrasse 11.40 11.20 99.90
32671 2020-09-26 17:56:56 Terrasse 11.60 11.42 99.90
32670 2020-09-26 17:28:37 Terrasse 11.70 11.53 99.90
32669 2020-09-26 17:00:18 Terrasse 11.70 11.53 99.90
32668 2020-09-26 16:31:57 Terrasse 11.50 11.31 99.90
32667 2020-09-26 16:03:37 Terrasse 11.70 11.53 99.90
32666 2020-09-26 15:35:18 Terrasse 11.80 11.64 99.90
32665 2020-09-26 15:06:58 Terrasse 12.10 11.97 99.90
32664 2020-09-26 14:38:37 Terrasse 11.90 11.75 99.90
32663 2020-09-26 14:10:16 Terrasse 11.70 11.53 99.90
32662 2020-09-26 13:41:57 Terrasse 11.70 11.53 99.90
32661 2020-09-26 13:13:33 Terrasse 11.60 11.42 99.90
32660 2020-09-26 12:45:11 Terrasse 11.30 11.09 99.90
32659 2020-09-26 12:16:51 Terrasse 11.20 10.98 99.90
32658 2020-09-26 11:48:29 Terrasse 11.20 10.98 99.90
32657 2020-09-26 11:20:07 Terrasse 10.80 10.54 99.90
32656 2020-09-26 10:51:47 Terrasse 10.70 10.43 99.90
32655 2020-09-26 10:23:22 Terrasse 10.10 9.77 99.90
32654 2020-09-26 09:55:02 Terrasse 9.90 9.55 99.90
32653 2020-09-26 09:26:40 Terrasse 9.60 9.22 99.90
32652 2020-09-26 08:58:21 Terrasse 9.60 9.22 99.90
32651 2020-09-26 08:30:02 Terrasse 9.80 9.44 99.90
32650 2020-09-26 08:01:43 Terrasse 9.80 9.44 99.90
32649 2020-09-26 07:33:22 Terrasse 9.80 9.44 99.90
32648 2020-09-26 07:05:02 Terrasse 10.00 9.66 99.90
32647 2020-09-26 06:36:42 Terrasse 10.20 9.88 99.90
32646 2020-09-26 06:08:22 Terrasse 10.30 9.99 99.90
32645 2020-09-26 05:40:02 Terrasse 10.40 10.10 99.90
32644 2020-09-26 05:11:42 Terrasse 10.50 10.21 99.90
32643 2020-09-26 04:43:21 Terrasse 10.60 10.32 99.90
32642 2020-09-26 04:15:00 Terrasse 10.50 10.21 99.90
32641 2020-09-26 03:46:39 Terrasse 10.60 10.32 99.90
32640 2020-09-26 03:18:19 Terrasse 10.60 10.32 99.90
32639 2020-09-26 02:49:57 Terrasse 10.60 10.32 99.90
32638 2020-09-26 02:21:37 Terrasse 10.70 10.43 99.90
32637 2020-09-26 01:53:18 Terrasse 10.90 10.65 99.90
32636 2020-09-26 01:25:05 Terrasse 11.00 10.76 99.90
32635 2020-09-26 00:56:46 Terrasse 11.10 10.87 99.90
32634 2020-09-26 00:29:36 Terrasse 11.10 10.87 99.90
32633 2020-09-25 23:58:19 Terrasse 11.20 10.98 99.90
32632 2020-09-25 23:30:00 Terrasse 11.30 11.09 99.90
32631 2020-09-25 23:01:41 Terrasse 11.40 11.20 99.90
32630 2020-09-25 22:33:21 Terrasse 11.60 11.42 99.90
32629 2020-09-25 22:05:02 Terrasse 11.60 11.42 99.90
32628 2020-09-25 21:36:43 Terrasse 11.70 11.53 99.90
32627 2020-09-25 21:08:24 Terrasse 11.80 11.64 99.90
32626 2020-09-25 20:40:05 Terrasse 12.00 11.86 99.90
32625 2020-09-25 20:11:46 Terrasse 12.10 11.97 99.90
32624 2020-09-25 19:43:28 Terrasse 12.30 12.19 99.90
32623 2020-09-25 19:15:11 Terrasse 12.80 12.74 99.90
32622 2020-09-25 18:18:42 Terrasse 13.20 13.18 99.90
32621 2020-09-25 17:50:25 Terrasse 13.50 13.51 99.90
32620 2020-09-25 17:22:03 Terrasse 13.60 13.62 99.90
32619 2020-09-25 16:53:42 Terrasse 13.20 13.18 99.90
32618 2020-09-25 16:25:23 Terrasse 13.30 13.29 99.90
32617 2020-09-25 15:57:03 Terrasse 13.10 13.07 99.90
32616 2020-09-25 15:28:42 Terrasse 13.10 13.07 99.90
32615 2020-09-25 15:00:21 Terrasse 12.90 12.85 99.90
32614 2020-09-25 14:32:03 Terrasse 12.60 12.52 99.90
32613 2020-09-25 14:03:45 Terrasse 13.00 12.96 99.90
32612 2020-09-25 13:35:22 Terrasse 12.90 12.85 99.90
32611 2020-09-25 13:07:00 Terrasse 12.60 12.52 99.90
32610 2020-09-25 12:38:41 Terrasse 12.50 12.41 99.90
32609 2020-09-25 12:10:24 Terrasse 12.70 12.63 99.90
32608 2020-09-25 11:42:00 Terrasse 12.20 12.08 99.90
32607 2020-09-25 11:13:43 Terrasse 12.30 12.19 99.90
32606 2020-09-25 10:45:24 Terrasse 12.40 12.30 99.90
32605 2020-09-25 10:17:05 Terrasse 12.30 12.19 99.90
32604 2020-09-25 09:48:44 Terrasse 12.30 12.19 99.90
32603 2020-09-25 09:20:23 Terrasse 12.30 12.19 99.90
32602 2020-09-25 08:52:04 Terrasse 12.30 12.19 99.90
32601 2020-09-25 08:23:44 Terrasse 12.50 12.41 99.90
32600 2020-09-25 07:55:24 Terrasse 12.40 12.30 99.90
32599 2020-09-25 07:27:04 Terrasse 12.60 12.52 99.90
32598 2020-09-25 06:58:44 Terrasse 12.70 12.63 99.90
32597 2020-09-25 06:30:26 Terrasse 12.90 12.85 99.90
32596 2020-09-25 06:02:10 Terrasse 13.00 12.96 99.90
32595 2020-09-25 05:33:48 Terrasse 13.20 13.18 99.90
32594 2020-09-25 05:05:29 Terrasse 13.40 13.40 99.90
32593 2020-09-25 04:37:11 Terrasse 13.80 13.84 99.90
32592 2020-09-25 04:09:00 Terrasse 14.40 14.50 99.90
32591 2020-09-25 03:40:40 Terrasse 14.90 15.05 99.90
32590 2020-09-25 03:12:20 Terrasse 14.90 15.05 99.90
32589 2020-09-25 02:44:00 Terrasse 15.10 15.27 99.90
32588 2020-09-25 02:15:40 Terrasse 15.10 15.27 99.90
32587 2020-09-25 01:47:22 Terrasse 15.20 15.38 99.90
32586 2020-09-25 01:19:02 Terrasse 15.40 15.60 99.90
32585 2020-09-25 00:50:43 Terrasse 15.70 15.93 99.90
32584 2020-09-25 00:22:25 Terrasse 15.90 16.15 99.90
32583 2020-09-24 23:54:07 Terrasse 16.10 16.37 99.90
32582 2020-09-24 23:25:46 Terrasse 16.40 16.70 99.90
32581 2020-09-24 22:57:28 Terrasse 16.60 16.92 99.90
32580 2020-09-24 22:29:09 Terrasse 16.80 17.14 99.90
32579 2020-09-24 22:00:49 Terrasse 17.10 17.47 99.90
32578 2020-09-24 21:32:30 Terrasse 17.20 17.58 99.90
32577 2020-09-24 21:04:10 Terrasse 17.20 17.58 99.90
32576 2020-09-24 20:35:52 Terrasse 17.60 18.02 99.90
32575 2020-09-24 20:07:33 Terrasse 17.90 18.35 99.90
32574 2020-09-24 19:39:14 Terrasse 18.10 18.50 97.00
32573 2020-09-24 19:10:58 Terrasse 18.80 18.79 78.60
32572 2020-09-24 18:42:39 Terrasse 19.30 19.01 66.20
32571 2020-09-24 18:14:23 Terrasse 19.80 19.56 65.90
32570 2020-09-24 17:46:05 Terrasse 20.40 20.06 60.00
32569 2020-09-24 17:17:47 Terrasse 21.00 20.67 58.10
32568 2020-09-24 16:49:35 Terrasse 22.30 21.97 53.00
32567 2020-09-24 16:21:13 Terrasse 22.70 22.39 52.40
32566 2020-09-24 15:53:23 Terrasse 21.30 20.89 53.70
32565 2020-09-24 15:24:49 Terrasse 23.10 22.76 49.50
32564 2020-09-24 14:56:26 Terrasse 22.60 22.23 50.30
32563 2020-09-24 14:28:02 Terrasse 22.10 21.72 51.80
32562 2020-09-24 13:59:39 Terrasse 22.00 21.58 50.90
32561 2020-09-24 13:31:18 Terrasse 22.10 21.76 53.30
32560 2020-09-24 13:03:00 Terrasse 21.80 21.46 54.60
32559 2020-09-24 12:34:24 Terrasse 20.10 19.67 57.70
32558 2020-09-24 12:05:45 Terrasse 19.00 18.66 65.30
32557 2020-09-24 11:37:20 Terrasse 18.40 18.30 76.80
32556 2020-09-24 11:08:55 Terrasse 17.60 17.39 75.80
32555 2020-09-24 10:40:30 Terrasse 17.00 16.89 81.80
32554 2020-09-24 10:12:06 Terrasse 16.70 16.82 91.90
32553 2020-09-24 09:43:45 Terrasse 16.40 16.70 99.90
32552 2020-09-24 09:15:23 Terrasse 16.20 16.48 99.90
32551 2020-09-24 08:47:03 Terrasse 16.00 16.26 99.90
32550 2020-09-24 08:18:42 Terrasse 16.00 16.26 99.90
32549 2020-09-24 07:50:21 Terrasse 16.10 16.37 99.90
32548 2020-09-24 07:22:01 Terrasse 16.20 16.48 99.90
32547 2020-09-24 06:53:44 Terrasse 16.40 16.70 99.90
32546 2020-09-24 06:25:24 Terrasse 16.60 16.92 99.90
32545 2020-09-24 05:57:04 Terrasse 16.70 17.03 99.90
32544 2020-09-24 05:28:46 Terrasse 16.80 17.14 99.90
32543 2020-09-24 05:00:26 Terrasse 17.00 17.36 99.90
32542 2020-09-24 04:32:06 Terrasse 17.00 17.36 99.90
32541 2020-09-24 04:03:48 Terrasse 17.30 17.69 99.90
32540 2020-09-24 03:35:28 Terrasse 17.30 17.69 99.90
32539 2020-09-24 03:07:08 Terrasse 17.60 18.02 99.90
32538 2020-09-24 02:38:49 Terrasse 17.70 18.05 96.50
32537 2020-09-24 02:10:31 Terrasse 17.90 18.14 91.80
32536 2020-09-24 01:42:11 Terrasse 18.20 18.38 88.20
32535 2020-09-24 01:13:52 Terrasse 18.30 18.36 83.40
32534 2020-09-24 00:45:32 Terrasse 18.30 18.27 79.90
32533 2020-09-24 00:17:19 Terrasse 18.60 18.53 77.10
32532 2020-09-23 23:48:58 Terrasse 19.10 18.97 73.00
32531 2020-09-23 23:20:38 Terrasse 19.20 19.01 70.30
32530 2020-09-23 22:52:18 Terrasse 19.40 19.19 68.90
32529 2020-09-23 22:24:01 Terrasse 19.80 19.56 65.90
32528 2020-09-23 21:55:44 Terrasse 20.30 20.05 63.90
32527 2020-09-23 21:27:26 Terrasse 20.80 20.54 61.50
32526 2020-09-23 20:59:06 Terrasse 21.20 20.98 61.50
32525 2020-09-23 20:30:47 Terrasse 21.50 21.29 60.80
32524 2020-09-23 20:02:27 Terrasse 21.80 21.59 59.60
32523 2020-09-23 19:34:09 Terrasse 22.30 22.09 57.70
32522 2020-09-23 19:05:51 Terrasse 22.80 22.58 55.50
32521 2020-09-23 18:37:35 Terrasse 23.60 23.43 54.00
32520 2020-09-23 18:09:21 Terrasse 24.40 24.28 53.10
32519 2020-09-23 17:41:06 Terrasse 25.60 25.55 51.10
32518 2020-09-23 17:12:47 Terrasse 26.10 26.08 50.40
32517 2020-09-23 16:44:28 Terrasse 26.80 27.14 48.30
32516 2020-09-23 16:16:07 Terrasse 27.20 27.54 49.00
32515 2020-09-23 15:47:49 Terrasse 27.20 27.47 47.80
32514 2020-09-23 15:19:26 Terrasse 26.70 27.16 50.30
32513 2020-09-23 14:51:03 Terrasse 26.20 26.70 49.60
32512 2020-09-23 14:22:31 Terrasse 24.90 24.78 51.10
32511 2020-09-23 13:54:18 Terrasse 25.50 25.32 46.50
32510 2020-09-23 13:25:56 Terrasse 24.60 24.37 48.20
32509 2020-09-23 12:57:41 Terrasse 24.90 24.79 51.40
32508 2020-09-23 12:29:16 Terrasse 23.80 23.66 54.40
32507 2020-09-23 12:00:43 Terrasse 22.30 22.15 60.00
32506 2020-09-23 11:32:16 Terrasse 21.50 21.22 57.90
32505 2020-09-23 11:03:50 Terrasse 20.60 20.34 62.40
32504 2020-09-23 10:35:25 Terrasse 20.00 19.72 63.90
32503 2020-09-23 10:06:59 Terrasse 19.10 18.90 70.20
32502 2020-09-23 09:38:33 Terrasse 18.50 18.27 71.30
32501 2020-09-23 09:10:11 Terrasse 18.00 17.79 74.20
32500 2020-09-23 08:41:49 Terrasse 17.50 17.21 73.00
32499 2020-09-23 08:13:28 Terrasse 17.70 17.52 76.40
32498 2020-09-23 07:45:08 Terrasse 17.80 17.59 74.70
32497 2020-09-23 07:16:48 Terrasse 17.80 17.54 72.80
32496 2020-09-23 06:48:28 Terrasse 17.90 17.66 73.30
32495 2020-09-23 06:20:08 Terrasse 17.90 17.61 71.50
32494 2020-09-23 05:51:47 Terrasse 18.00 17.85 76.40
32493 2020-09-23 05:23:28 Terrasse 18.10 17.99 77.50
32492 2020-09-23 04:55:09 Terrasse 18.40 18.29 76.50
32491 2020-09-23 04:26:51 Terrasse 18.70 18.57 74.50
32490 2020-09-23 03:58:31 Terrasse 18.80 18.66 73.60
32489 2020-09-23 03:30:10 Terrasse 18.80 18.64 72.90
32488 2020-09-23 03:01:50 Terrasse 19.00 18.84 72.20
32487 2020-09-23 02:33:30 Terrasse 19.00 18.87 73.50
32486 2020-09-23 02:05:11 Terrasse 19.20 19.07 72.50
32485 2020-09-23 01:36:51 Terrasse 19.20 19.01 70.20
32484 2020-09-23 01:08:30 Terrasse 19.40 19.16 67.60
32483 2020-09-23 00:40:10 Terrasse 19.60 19.34 66.20
32482 2020-09-23 00:11:48 Terrasse 19.50 19.30 68.90
32481 2020-09-22 23:43:28 Terrasse 19.70 19.48 67.10
32480 2020-09-22 23:15:09 Terrasse 19.90 19.63 64.70
32479 2020-09-22 22:46:51 Terrasse 20.20 19.93 63.50
32478 2020-09-22 22:18:31 Terrasse 20.50 20.24 62.50
32477 2020-09-22 21:50:11 Terrasse 20.70 20.44 62.00
32476 2020-09-22 21:21:55 Terrasse 21.10 20.86 61.20
32475 2020-09-22 20:53:37 Terrasse 21.60 21.38 60.10
32474 2020-09-22 20:25:20 Terrasse 22.10 21.92 59.60
32473 2020-09-22 19:57:03 Terrasse 22.70 22.54 58.20
32472 2020-09-22 19:28:45 Terrasse 23.50 23.40 57.10
32471 2020-09-22 19:00:27 Terrasse 24.10 24.04 56.30
32470 2020-09-22 18:32:08 Terrasse 24.70 24.60 52.70
32469 2020-09-22 18:03:53 Terrasse 25.50 25.42 50.50
32468 2020-09-22 17:35:36 Terrasse 27.00 27.26 47.40
32467 2020-09-22 17:07:16 Terrasse 27.40 27.55 46.20
32466 2020-09-22 16:38:58 Terrasse 28.20 28.27 45.50
32465 2020-09-22 16:10:33 Terrasse 28.60 28.65 45.00
32464 2020-09-22 15:42:09 Terrasse 27.60 27.72 46.00
32463 2020-09-22 15:13:43 Terrasse 27.00 27.23 46.80
32462 2020-09-22 14:45:23 Terrasse 26.70 26.99 47.10
32461 2020-09-22 14:16:57 Terrasse 26.00 26.01 51.70
32460 2020-09-22 13:48:34 Terrasse 25.40 25.42 54.60
32459 2020-09-22 13:20:11 Terrasse 25.10 25.16 57.20
32458 2020-09-22 12:51:52 Terrasse 24.20 24.22 59.10
32457 2020-09-22 12:23:29 Terrasse 22.50 22.55 66.90
32456 2020-09-22 11:54:58 Terrasse 21.00 21.22 79.10
32455 2020-09-22 11:26:31 Terrasse 19.90 20.06 80.80
32454 2020-09-22 10:58:03 Terrasse 18.80 19.33 99.50
32453 2020-09-22 10:29:37 Terrasse 17.90 18.34 99.50
32452 2020-09-22 10:01:13 Terrasse 17.20 17.58 99.80
32451 2020-09-22 09:32:50 Terrasse 16.50 16.81 99.90
32450 2020-09-22 09:04:25 Terrasse 15.80 16.04 99.90
32449 2020-09-22 08:36:02 Terrasse 15.20 15.38 99.90
32448 2020-09-22 08:07:40 Terrasse 14.90 15.05 99.90
32447 2020-09-22 07:39:22 Terrasse 14.90 14.91 94.20
32446 2020-09-22 07:11:04 Terrasse 15.00 14.87 88.60
32445 2020-09-22 06:42:47 Terrasse 15.20 14.98 84.40
32444 2020-09-22 06:14:29 Terrasse 15.50 15.21 80.60
32443 2020-09-22 05:46:11 Terrasse 15.70 15.36 77.90
32442 2020-09-22 05:17:51 Terrasse 15.90 15.49 74.40
32441 2020-09-22 04:49:33 Terrasse 16.10 15.63 71.50
32440 2020-09-22 04:21:13 Terrasse 16.10 15.58 69.40
32439 2020-09-22 03:52:56 Terrasse 16.20 15.61 66.50
32438 2020-09-22 03:24:36 Terrasse 16.50 15.88 64.30
32437 2020-09-22 02:56:17 Terrasse 16.60 15.98 63.60
32436 2020-09-22 02:27:57 Terrasse 16.80 16.18 62.80
32435 2020-09-22 01:59:38 Terrasse 16.90 16.25 61.50
32434 2020-09-22 01:31:20 Terrasse 17.30 16.67 60.80
32433 2020-09-22 01:03:01 Terrasse 17.60 16.99 60.40
32432 2020-09-22 00:34:42 Terrasse 17.80 17.20 60.10
32431 2020-09-22 00:06:25 Terrasse 18.10 17.52 59.40
32430 2020-09-21 23:38:07 Terrasse 18.30 17.71 58.50
32429 2020-09-21 23:09:50 Terrasse 18.70 18.14 58.10
32428 2020-09-21 22:41:32 Terrasse 19.10 18.56 57.10
32427 2020-09-21 22:13:14 Terrasse 19.40 18.88 56.70
32426 2020-09-21 21:44:54 Terrasse 19.70 19.19 56.00
32425 2020-09-21 21:16:36 Terrasse 20.00 19.51 55.80
32424 2020-09-21 20:48:18 Terrasse 20.20 19.75 56.30
32423 2020-09-21 20:20:01 Terrasse 20.60 20.22 57.70
32422 2020-09-21 19:51:44 Terrasse 21.40 21.23 62.70
32421 2020-09-21 19:23:29 Terrasse 22.10 22.11 66.90
32420 2020-09-21 18:55:15 Terrasse 22.90 23.57 88.90
32419 2020-09-21 18:26:59 Terrasse 24.40 24.08 45.50
32418 2020-09-21 17:58:43 Terrasse 25.50 25.25 44.00
32417 2020-09-21 17:30:27 Terrasse 26.50 26.70 44.30
32416 2020-09-21 17:02:09 Terrasse 26.90 26.98 43.80
32415 2020-09-21 16:34:02 Terrasse 27.90 27.85 43.90
32414 2020-09-21 16:05:37 Terrasse 28.50 28.22 41.30
32413 2020-09-21 15:37:11 Terrasse 27.50 27.54 44.70
32412 2020-09-21 15:08:46 Terrasse 26.10 26.00 47.30
32411 2020-09-21 14:40:31 Terrasse 25.90 25.88 51.10
32410 2020-09-21 14:12:05 Terrasse 25.70 25.66 51.20
32409 2020-09-21 13:43:42 Terrasse 25.50 25.34 47.20
32408 2020-09-21 13:15:21 Terrasse 25.20 25.06 49.20
32407 2020-09-21 12:46:53 Terrasse 24.30 24.08 49.60
32406 2020-09-21 12:18:15 Terrasse 22.20 21.84 52.30
32405 2020-09-21 11:49:48 Terrasse 21.10 20.66 53.30
32404 2020-09-21 11:21:21 Terrasse 20.00 19.48 54.50
32403 2020-09-21 10:52:53 Terrasse 19.10 18.52 55.90
32402 2020-09-21 10:24:37 Terrasse 18.30 17.70 58.10
32401 2020-09-21 09:56:15 Terrasse 17.50 16.76 55.90
32400 2020-09-21 09:27:46 Terrasse 16.70 15.98 59.70
32399 2020-09-21 08:59:23 Terrasse 16.00 15.36 65.10
32398 2020-09-21 08:31:00 Terrasse 15.60 14.87 63.30
32397 2020-09-21 08:02:40 Terrasse 15.40 14.56 59.80
32396 2020-09-21 07:34:19 Terrasse 15.20 14.31 58.70
32395 2020-09-21 07:05:59 Terrasse 15.20 14.29 57.90
32394 2020-09-21 06:37:41 Terrasse 15.50 14.60 57.30
32393 2020-09-21 06:09:23 Terrasse 15.70 14.82 57.20
32392 2020-09-21 05:41:05 Terrasse 16.20 15.33 55.80
32391 2020-09-21 05:12:50 Terrasse 16.90 16.03 53.00
32390 2020-09-21 04:44:31 Terrasse 17.30 16.43 51.50
32389 2020-09-21 04:16:12 Terrasse 17.60 16.75 51.20
32388 2020-09-21 03:47:55 Terrasse 17.80 16.95 50.50
32387 2020-09-21 03:19:36 Terrasse 18.10 17.26 49.60
32386 2020-09-21 02:51:16 Terrasse 18.30 17.46 49.00
32385 2020-09-21 02:22:57 Terrasse 18.50 17.67 48.50
32384 2020-09-21 01:54:37 Terrasse 18.60 17.78 48.50
32383 2020-09-21 01:26:17 Terrasse 18.70 17.89 48.50
32382 2020-09-21 00:57:58 Terrasse 18.80 18.02 49.20
32381 2020-09-21 00:29:39 Terrasse 19.00 18.25 49.60
32380 2020-09-21 00:01:21 Terrasse 19.30 18.56 48.70
32379 2020-09-20 23:33:02 Terrasse 19.70 19.00 48.70
32378 2020-09-20 23:04:43 Terrasse 20.00 19.30 47.50
32377 2020-09-20 22:36:24 Terrasse 20.20 19.51 47.20
32376 2020-09-20 22:08:04 Terrasse 20.30 19.62 47.10
32375 2020-09-20 21:39:46 Terrasse 20.60 19.94 46.90
32374 2020-09-20 21:11:27 Terrasse 21.00 20.36 46.20
32373 2020-09-20 20:43:09 Terrasse 21.40 20.80 46.20
32372 2020-09-20 20:14:49 Terrasse 21.60 21.04 47.00
32371 2020-09-20 19:46:31 Terrasse 22.00 21.52 48.50
32370 2020-09-20 19:18:14 Terrasse 22.60 22.11 45.60
32369 2020-09-20 18:49:58 Terrasse 23.50 23.09 45.30
32368 2020-09-20 18:21:43 Terrasse 24.50 24.17 44.70
32367 2020-09-20 17:53:29 Terrasse 25.70 25.43 42.20
32366 2020-09-20 17:25:13 Terrasse 27.10 27.05 42.20
32365 2020-09-20 16:56:54 Terrasse 27.20 27.10 41.70
32364 2020-09-20 16:28:34 Terrasse 28.20 28.07 43.00
32363 2020-09-20 16:00:12 Terrasse 28.50 28.27 41.90
32362 2020-09-20 15:31:50 Terrasse 27.90 27.95 45.20
32361 2020-09-20 15:03:25 Terrasse 26.90 27.19 47.60
32360 2020-09-20 14:35:01 Terrasse 26.20 26.10 46.80
32359 2020-09-20 14:06:36 Terrasse 25.50 25.36 48.00
32358 2020-09-20 13:38:13 Terrasse 24.90 24.78 51.00
32357 2020-09-20 13:09:55 Terrasse 24.60 24.42 50.00
32356 2020-09-20 12:41:19 Terrasse 23.40 23.16 52.40
32355 2020-09-20 12:12:39 Terrasse 21.50 21.10 53.40
32354 2020-09-20 11:44:14 Terrasse 20.80 20.46 58.40
32353 2020-09-20 11:15:49 Terrasse 19.80 19.36 58.50
32352 2020-09-20 10:47:22 Terrasse 18.80 18.31 60.30
32351 2020-09-20 10:18:56 Terrasse 17.90 17.33 60.60
32350 2020-09-20 09:50:28 Terrasse 16.80 16.19 63.30
32349 2020-09-20 09:22:04 Terrasse 16.10 15.41 63.00
32348 2020-09-20 08:53:41 Terrasse 15.50 14.82 65.50
32347 2020-09-20 08:25:20 Terrasse 15.00 14.23 64.30
32346 2020-09-20 07:57:01 Terrasse 14.90 14.07 62.10
32345 2020-09-20 07:28:41 Terrasse 14.90 14.04 60.90
32344 2020-09-20 07:00:24 Terrasse 15.00 14.11 59.60
32343 2020-09-20 06:32:04 Terrasse 15.10 14.23 60.00
32342 2020-09-20 06:03:44 Terrasse 14.80 13.94 61.60
32341 2020-09-20 05:35:25 Terrasse 14.80 13.91 60.30
32340 2020-09-20 05:07:07 Terrasse 14.90 13.99 59.30
32339 2020-09-20 04:38:52 Terrasse 15.50 14.61 57.60
32338 2020-09-20 04:10:36 Terrasse 16.00 15.11 55.70
32337 2020-09-20 03:42:16 Terrasse 16.30 15.40 54.20
32336 2020-09-20 03:13:58 Terrasse 16.60 15.69 52.70
32335 2020-09-20 02:45:39 Terrasse 16.80 15.90 52.40
32334 2020-09-20 02:17:21 Terrasse 17.00 16.09 51.20
32333 2020-09-20 01:49:01 Terrasse 17.30 16.40 50.50
32332 2020-09-20 01:20:42 Terrasse 17.30 16.42 51.20
32331 2020-09-20 00:52:23 Terrasse 17.40 16.54 51.60
32330 2020-09-20 00:24:03 Terrasse 17.50 16.66 51.70
32329 2020-09-19 23:55:42 Terrasse 17.40 16.57 52.70
32328 2020-09-19 23:27:24 Terrasse 17.50 16.69 53.00
32327 2020-09-19 22:59:06 Terrasse 17.70 16.90 52.70
32326 2020-09-19 22:30:47 Terrasse 17.90 17.13 53.20
32325 2020-09-19 22:02:30 Terrasse 18.10 17.32 51.90
32324 2020-09-19 21:34:14 Terrasse 18.50 17.76 52.00
32323 2020-09-19 21:06:05 Terrasse 19.00 18.29 51.00
32322 2020-09-19 20:37:47 Terrasse 19.50 18.84 51.00
32321 2020-09-19 20:09:31 Terrasse 20.10 19.48 50.40
32320 2020-09-19 19:41:18 Terrasse 21.00 20.46 50.00
32319 2020-09-19 19:13:03 Terrasse 21.90 21.39 47.80
32318 2020-09-19 18:44:49 Terrasse 23.10 22.65 45.40
32317 2020-09-19 18:16:33 Terrasse 23.90 23.50 44.40
32316 2020-09-19 17:48:19 Terrasse 24.90 24.57 42.90
32315 2020-09-19 17:20:02 Terrasse 26.00 25.75 42.00
32314 2020-09-19 16:51:42 Terrasse 26.20 25.97 41.90
32313 2020-09-19 16:23:26 Terrasse 27.30 27.17 41.40
32312 2020-09-19 15:55:02 Terrasse 27.20 27.15 42.50
32311 2020-09-19 15:26:37 Terrasse 26.30 26.53 43.60
32310 2020-09-19 14:58:14 Terrasse 25.30 25.09 46.30
32309 2020-09-19 14:29:52 Terrasse 24.90 24.66 46.70
32308 2020-09-19 14:01:28 Terrasse 24.10 23.81 47.70
32307 2020-09-19 13:33:04 Terrasse 23.50 23.18 49.00
32306 2020-09-19 13:04:48 Terrasse 23.10 22.75 49.10
32305 2020-09-19 12:36:07 Terrasse 21.80 21.33 49.40
32304 2020-09-19 12:07:30 Terrasse 19.80 19.22 53.20
32303 2020-09-19 11:39:01 Terrasse 18.80 18.09 52.00
32302 2020-09-19 11:10:37 Terrasse 18.20 17.40 50.60
32301 2020-09-19 10:42:11 Terrasse 17.40 16.61 54.20
32300 2020-09-19 10:13:46 Terrasse 16.50 15.62 54.00
32299 2020-09-19 09:45:22 Terrasse 15.90 14.92 52.50
32298 2020-09-19 09:16:59 Terrasse 15.40 14.39 53.50
32297 2020-09-19 08:48:45 Terrasse 15.00 13.97 54.20
32296 2020-09-19 08:20:43 Terrasse 14.70 13.66 54.90
32295 2020-09-19 07:52:06 Terrasse 14.60 13.55 54.80
32294 2020-09-19 06:55:30 Terrasse 14.60 13.54 54.60
32293 2020-09-19 06:27:12 Terrasse 14.70 13.65 54.70
32292 2020-09-19 05:58:54 Terrasse 14.80 13.78 55.30
32291 2020-09-19 05:30:35 Terrasse 14.90 13.87 54.70
32290 2020-09-19 05:02:18 Terrasse 15.10 14.07 53.70
32289 2020-09-19 04:33:59 Terrasse 15.30 14.27 53.00
32288 2020-09-19 04:05:40 Terrasse 15.60 14.58 52.20
32287 2020-09-19 03:37:21 Terrasse 15.80 14.79 51.70
32286 2020-09-19 03:09:02 Terrasse 15.90 14.88 51.20
32285 2020-09-19 02:40:45 Terrasse 16.20 15.20 50.90
32284 2020-09-19 02:12:26 Terrasse 16.50 15.53 50.70
32283 2020-09-19 01:44:05 Terrasse 16.60 15.64 50.80
32282 2020-09-19 01:15:47 Terrasse 16.70 15.75 50.70
32281 2020-09-19 00:47:34 Terrasse 16.90 15.95 50.10
32280 2020-09-19 00:19:28 Terrasse 17.10 16.17 50.00
32279 2020-09-18 23:51:03 Terrasse 17.30 16.38 49.60
32278 2020-09-18 23:22:51 Terrasse 17.40 16.49 49.40
32277 2020-09-18 22:54:30 Terrasse 17.60 16.70 49.20
32276 2020-09-18 22:26:12 Terrasse 17.70 16.80 48.90
32275 2020-09-18 21:57:53 Terrasse 18.10 17.23 48.40
32274 2020-09-18 21:29:35 Terrasse 18.50 17.64 47.40
32273 2020-09-18 21:01:18 Terrasse 18.80 17.96 47.00
32272 2020-09-18 20:32:59 Terrasse 19.10 18.31 47.50
32271 2020-09-18 20:04:42 Terrasse 19.70 18.98 48.00
32270 2020-09-18 19:36:27 Terrasse 20.50 19.90 49.40
32269 2020-09-18 19:08:10 Terrasse 21.40 20.86 48.60
32268 2020-09-18 18:39:54 Terrasse 22.20 21.70 46.80
32267 2020-09-18 18:11:38 Terrasse 22.80 22.42 49.30
32266 2020-09-18 17:43:23 Terrasse 23.70 23.44 50.50
32265 2020-09-18 17:15:02 Terrasse 24.00 23.77 50.50
32264 2020-09-18 16:46:44 Terrasse 24.30 24.08 49.40
32263 2020-09-18 16:18:25 Terrasse 24.90 24.72 48.70
32262 2020-09-18 15:50:03 Terrasse 24.70 24.53 49.80
32261 2020-09-18 15:21:43 Terrasse 24.50 24.33 50.70
32260 2020-09-18 14:53:21 Terrasse 24.20 24.01 51.10
32259 2020-09-18 14:25:00 Terrasse 24.00 23.82 52.20
32258 2020-09-18 13:56:44 Terrasse 24.00 23.89 54.90
32257 2020-09-18 13:28:18 Terrasse 23.40 23.25 55.80
32256 2020-09-18 13:00:07 Terrasse 22.80 22.60 56.10
32255 2020-09-18 12:31:31 Terrasse 21.60 21.32 57.50
32254 2020-09-18 12:03:00 Terrasse 19.60 19.17 59.60
32253 2020-09-18 11:34:31 Terrasse 18.40 17.85 59.50
32252 2020-09-18 11:06:05 Terrasse 17.50 16.89 60.60
32251 2020-09-18 10:37:38 Terrasse 16.70 16.02 61.10
32250 2020-09-18 10:09:14 Terrasse 16.00 15.24 60.70
32249 2020-09-18 09:40:50 Terrasse 15.40 14.58 60.70
32248 2020-09-18 09:12:26 Terrasse 14.90 14.01 59.80
32247 2020-09-18 08:44:05 Terrasse 14.70 13.78 59.60
32246 2020-09-18 08:15:45 Terrasse 14.40 13.44 59.20
32245 2020-09-18 07:47:25 Terrasse 14.50 13.55 59.00
32244 2020-09-18 07:19:07 Terrasse 14.50 13.54 58.70
32243 2020-09-18 06:50:48 Terrasse 14.50 13.54 58.70
32242 2020-09-18 06:22:38 Terrasse 14.70 13.75 58.50
32241 2020-09-18 05:54:16 Terrasse 14.70 13.75 58.40
32240 2020-09-18 05:25:57 Terrasse 14.80 13.85 58.00
32239 2020-09-18 04:57:38 Terrasse 15.00 14.06 57.50
32238 2020-09-18 04:29:20 Terrasse 15.00 14.06 57.70
32237 2020-09-18 04:01:00 Terrasse 15.20 14.27 57.30
32236 2020-09-18 03:32:49 Terrasse 15.40 14.49 57.40
32235 2020-09-18 03:04:29 Terrasse 15.60 14.71 57.10
32234 2020-09-18 02:36:10 Terrasse 15.80 14.92 56.80
32233 2020-09-18 02:07:52 Terrasse 15.90 15.02 56.50
32232 2020-09-18 01:39:33 Terrasse 16.10 15.25 57.00
32231 2020-09-18 01:11:14 Terrasse 16.20 15.36 57.00
32230 2020-09-18 00:43:02 Terrasse 16.40 15.58 57.00
32229 2020-09-18 00:14:49 Terrasse 16.60 15.79 56.50
32228 2020-09-17 23:46:34 Terrasse 16.70 15.90 56.50
32227 2020-09-17 23:18:30 Terrasse 17.00 16.22 56.00
32226 2020-09-17 22:50:22 Terrasse 17.40 16.63 54.80
32225 2020-09-17 22:22:06 Terrasse 17.80 17.04 53.80
32224 2020-09-17 21:54:01 Terrasse 18.10 17.36 53.30
32223 2020-09-17 21:25:47 Terrasse 18.40 17.68 53.20
32222 2020-09-17 20:57:39 Terrasse 18.70 17.99 52.30
32221 2020-09-17 20:29:19 Terrasse 18.90 18.20 52.00
32220 2020-09-17 20:01:04 Terrasse 19.60 18.94 50.80
32219 2020-09-17 19:32:48 Terrasse 20.30 19.62 47.20
32218 2020-09-17 19:04:34 Terrasse 21.10 20.47 46.10
32217 2020-09-17 18:36:20 Terrasse 21.80 21.24 46.20
32216 2020-09-17 18:08:09 Terrasse 22.80 22.32 45.40
32215 2020-09-17 17:39:57 Terrasse 24.40 24.04 44.00
32214 2020-09-17 17:11:40 Terrasse 24.70 24.39 44.50
32213 2020-09-17 16:43:21 Terrasse 25.20 24.96 45.20
32212 2020-09-17 16:15:03 Terrasse 26.40 26.62 44.10
32211 2020-09-17 15:46:40 Terrasse 26.10 26.00 47.40
32210 2020-09-17 15:18:17 Terrasse 25.50 25.42 50.40
32209 2020-09-17 14:49:54 Terrasse 25.00 24.89 51.20
32208 2020-09-17 14:21:30 Terrasse 24.60 24.53 54.30
32207 2020-09-17 13:53:14 Terrasse 24.40 24.34 55.20
32206 2020-09-17 13:24:54 Terrasse 24.10 23.99 54.40
32205 2020-09-17 12:56:45 Terrasse 23.60 23.55 58.90
32204 2020-09-17 12:28:09 Terrasse 22.20 22.11 62.60
32203 2020-09-17 11:59:44 Terrasse 20.70 20.64 69.60
32202 2020-09-17 11:31:15 Terrasse 19.70 19.63 73.10
32201 2020-09-17 11:02:48 Terrasse 18.80 18.77 78.00
32200 2020-09-17 10:34:24 Terrasse 17.80 17.77 81.80
32199 2020-09-17 10:05:58 Terrasse 17.20 17.03 78.80
32198 2020-09-17 09:37:40 Terrasse 17.20 16.94 75.20
32197 2020-09-17 09:09:18 Terrasse 17.00 16.65 72.50
32196 2020-09-17 08:40:56 Terrasse 16.70 16.28 71.10
32195 2020-09-17 08:12:35 Terrasse 16.50 16.18 75.60
32194 2020-09-17 07:44:17 Terrasse 16.50 16.32 81.00
32193 2020-09-17 07:16:00 Terrasse 16.70 16.76 89.50
32192 2020-09-17 06:47:44 Terrasse 17.30 17.31 85.30
32191 2020-09-17 06:19:28 Terrasse 17.90 17.75 76.80
32190 2020-09-17 05:51:10 Terrasse 18.20 18.09 77.10
32189 2020-09-17 05:22:53 Terrasse 18.40 18.35 78.60
32188 2020-09-17 04:54:37 Terrasse 18.80 18.74 76.80
32187 2020-09-17 04:26:19 Terrasse 19.30 19.26 75.60
32186 2020-09-17 03:58:03 Terrasse 19.70 19.63 73.00
32185 2020-09-17 03:29:44 Terrasse 20.10 20.00 70.40
32184 2020-09-17 03:01:28 Terrasse 20.40 20.30 69.00
32183 2020-09-17 02:33:09 Terrasse 20.90 20.83 68.40
32182 2020-09-17 02:04:51 Terrasse 21.30 21.21 66.10
32181 2020-09-17 01:36:34 Terrasse 21.60 21.52 65.30
32180 2020-09-17 01:08:15 Terrasse 21.90 21.88 66.60
32179 2020-09-17 00:39:57 Terrasse 22.10 22.13 67.50
32178 2020-09-17 00:11:39 Terrasse 22.40 22.44 66.90
32177 2020-09-16 23:43:22 Terrasse 23.00 23.65 88.00
32176 2020-09-16 23:15:03 Terrasse 23.30 23.94 86.30
32175 2020-09-16 22:46:44 Terrasse 23.60 24.08 79.20
32174 2020-09-16 22:18:25 Terrasse 23.90 24.32 75.60
32173 2020-09-16 21:50:08 Terrasse 24.20 24.59 73.50
32172 2020-09-16 21:21:50 Terrasse 24.50 24.86 70.90
32171 2020-09-16 20:53:32 Terrasse 24.80 25.15 69.60
32170 2020-09-16 20:25:13 Terrasse 25.00 25.29 66.60
32169 2020-09-16 19:56:56 Terrasse 25.50 25.73 62.10
32168 2020-09-16 19:28:37 Terrasse 25.90 26.08 58.70
32167 2020-09-16 19:00:21 Terrasse 26.40 27.23 57.40
32166 2020-09-16 18:32:11 Terrasse 26.80 27.55 55.40
32165 2020-09-16 18:03:49 Terrasse 27.10 28.73 66.60
32164 2020-09-16 17:35:32 Terrasse 27.50 29.28 65.70
32163 2020-09-16 17:07:19 Terrasse 28.60 29.62 54.10
32162 2020-09-16 16:39:04 Terrasse 29.50 30.50 51.20
32161 2020-09-16 16:10:43 Terrasse 30.00 30.83 48.60
32160 2020-09-16 15:42:14 Terrasse 28.50 30.47 61.90
32159 2020-09-16 15:13:47 Terrasse 26.60 29.18 84.20
32158 2020-09-16 14:45:26 Terrasse 25.90 27.87 92.80
32157 2020-09-16 14:17:08 Terrasse 26.20 28.42 87.40
32156 2020-09-16 13:48:52 Terrasse 26.60 29.46 87.90
32155 2020-09-16 13:20:23 Terrasse 25.50 26.83 99.90
32154 2020-09-16 12:51:54 Terrasse 23.80 24.84 99.90
32153 2020-09-16 12:23:30 Terrasse 23.20 24.18 99.90
32152 2020-09-16 11:55:07 Terrasse 22.80 23.74 99.90
32151 2020-09-16 11:26:43 Terrasse 22.30 23.19 99.90
32150 2020-09-16 10:58:22 Terrasse 21.90 22.75 99.90
32149 2020-09-16 10:30:07 Terrasse 21.70 22.53 99.90
32148 2020-09-16 10:01:45 Terrasse 21.60 22.42 99.90
32147 2020-09-16 09:33:21 Terrasse 21.20 21.98 99.90
32146 2020-09-16 09:04:56 Terrasse 20.60 21.32 99.90
32145 2020-09-16 08:36:31 Terrasse 19.90 20.55 99.90
32144 2020-09-16 08:08:10 Terrasse 19.50 20.11 99.90
32143 2020-09-16 07:39:48 Terrasse 19.30 19.89 99.90
32142 2020-09-16 07:11:29 Terrasse 19.20 19.78 99.90
32141 2020-09-16 06:43:11 Terrasse 19.30 19.89 99.90
32140 2020-09-16 06:14:50 Terrasse 19.40 20.00 99.90
32139 2020-09-16 05:46:31 Terrasse 19.60 20.22 99.90
32138 2020-09-16 05:18:13 Terrasse 19.70 20.33 99.90
32137 2020-09-16 04:49:54 Terrasse 20.00 20.66 99.90
32136 2020-09-16 04:21:36 Terrasse 20.40 21.00 95.80
32135 2020-09-16 03:53:24 Terrasse 20.70 21.26 93.40
32134 2020-09-16 03:25:03 Terrasse 20.90 21.44 91.80
32133 2020-09-16 02:56:45 Terrasse 21.20 21.76 91.30
32132 2020-09-16 02:28:25 Terrasse 21.40 21.92 88.90
32131 2020-09-16 02:00:15 Terrasse 21.70 22.16 85.60
32130 2020-09-16 01:31:54 Terrasse 21.90 22.31 82.80
32129 2020-09-16 01:03:35 Terrasse 22.10 22.46 80.30
32128 2020-09-16 00:35:14 Terrasse 22.30 22.62 77.90
32127 2020-09-16 00:06:55 Terrasse 22.50 22.79 76.10
32126 2020-09-15 23:38:35 Terrasse 22.70 22.96 74.00
32125 2020-09-15 23:10:17 Terrasse 23.00 23.25 72.60
32124 2020-09-15 22:41:59 Terrasse 23.20 23.44 71.30
32123 2020-09-15 22:13:41 Terrasse 23.60 23.84 69.70
32122 2020-09-15 21:45:23 Terrasse 23.90 24.15 69.00
32121 2020-09-15 21:17:05 Terrasse 24.30 24.56 67.90
32120 2020-09-15 20:48:48 Terrasse 24.60 24.84 66.10
32119 2020-09-15 20:20:30 Terrasse 25.10 25.38 65.80
32118 2020-09-15 19:52:13 Terrasse 25.80 26.90 66.10
32117 2020-09-15 19:23:56 Terrasse 26.40 27.61 64.90
32116 2020-09-15 18:55:39 Terrasse 27.20 28.61 63.30
32115 2020-09-15 18:27:23 Terrasse 28.10 29.41 58.30
32114 2020-09-15 17:59:08 Terrasse 28.90 30.21 55.40
32113 2020-09-15 17:30:49 Terrasse 29.90 31.81 55.50
32112 2020-09-15 17:02:30 Terrasse 29.90 32.19 57.60
32111 2020-09-15 16:34:11 Terrasse 30.40 32.71 55.70
32110 2020-09-15 16:05:51 Terrasse 31.10 33.85 55.00
32109 2020-09-15 15:37:29 Terrasse 30.80 33.19 54.50
32108 2020-09-15 15:09:11 Terrasse 30.50 32.63 54.40
32107 2020-09-15 14:40:48 Terrasse 30.10 31.98 54.60
32106 2020-09-15 14:12:23 Terrasse 29.50 31.77 59.20
32105 2020-09-15 13:44:02 Terrasse 29.20 31.77 62.40
32104 2020-09-15 13:15:50 Terrasse 29.20 31.49 60.70
32103 2020-09-15 12:47:20 Terrasse 28.20 30.94 69.20
32102 2020-09-15 12:18:36 Terrasse 25.70 27.31 90.90
32101 2020-09-15 11:50:14 Terrasse 24.90 25.90 94.00
32100 2020-09-15 11:21:42 Terrasse 23.50 24.51 99.90
32099 2020-09-15 10:53:13 Terrasse 22.20 23.08 99.90
32098 2020-09-15 10:24:46 Terrasse 21.00 21.76 99.90
32097 2020-09-15 09:56:22 Terrasse 20.10 20.77 99.90
32096 2020-09-15 09:27:56 Terrasse 19.30 19.89 99.90
32095 2020-09-15 08:59:35 Terrasse 18.90 19.45 99.90
32094 2020-09-15 08:31:17 Terrasse 18.70 19.23 99.90
32093 2020-09-15 08:02:56 Terrasse 18.60 19.12 99.90
32092 2020-09-15 07:34:36 Terrasse 18.40 18.90 99.90
32091 2020-09-15 07:06:19 Terrasse 18.50 18.91 96.00
32090 2020-09-15 06:38:01 Terrasse 18.90 19.22 90.90
32089 2020-09-15 06:09:44 Terrasse 19.10 19.33 86.60
32088 2020-09-15 05:41:25 Terrasse 19.30 19.46 83.40
32087 2020-09-15 05:13:07 Terrasse 19.60 19.71 80.10
32086 2020-09-15 04:44:53 Terrasse 19.80 19.86 77.40
32085 2020-09-15 04:16:34 Terrasse 19.90 19.91 75.20
32084 2020-09-15 03:48:15 Terrasse 20.10 20.08 73.30
32083 2020-09-15 03:19:59 Terrasse 20.40 20.35 71.00
32082 2020-09-15 02:51:41 Terrasse 20.70 20.64 69.60
32081 2020-09-15 02:23:28 Terrasse 21.00 20.95 68.90
32080 2020-09-15 01:55:10 Terrasse 21.20 21.17 68.80
32079 2020-09-15 01:26:52 Terrasse 21.30 21.25 67.60
32078 2020-09-15 00:58:35 Terrasse 21.60 21.56 67.00
32077 2020-09-15 00:30:30 Terrasse 21.90 21.86 65.50
32076 2020-09-15 00:02:08 Terrasse 22.40 22.38 64.50
32075 2020-09-14 23:33:51 Terrasse 22.70 22.68 63.50
32074 2020-09-14 23:05:33 Terrasse 22.90 22.91 63.60
32073 2020-09-14 22:37:15 Terrasse 23.20 23.23 63.40
32072 2020-09-14 22:08:55 Terrasse 23.40 23.44 62.80
32071 2020-09-14 21:40:36 Terrasse 23.60 23.65 62.70
32070 2020-09-14 21:12:19 Terrasse 23.90 23.96 61.70
32069 2020-09-14 20:44:02 Terrasse 24.30 24.40 61.90
32068 2020-09-14 20:15:45 Terrasse 24.80 24.92 60.70
32067 2020-09-14 19:47:28 Terrasse 25.40 25.56 60.00
32066 2020-09-14 19:19:13 Terrasse 26.10 27.01 59.30
32065 2020-09-14 18:50:57 Terrasse 26.80 27.75 58.70
32064 2020-09-14 18:22:41 Terrasse 27.60 28.49 55.80
32063 2020-09-14 17:54:25 Terrasse 28.30 29.42 55.90
32062 2020-09-14 17:26:04 Terrasse 28.80 30.20 56.40
32061 2020-09-14 16:57:42 Terrasse 28.70 29.98 55.90
32060 2020-09-14 16:29:24 Terrasse 29.40 30.98 55.40
32059 2020-09-14 16:01:06 Terrasse 29.50 31.07 55.00
32058 2020-09-14 15:32:48 Terrasse 30.80 32.68 52.00
32057 2020-09-14 15:04:23 Terrasse 29.90 31.53 53.90
32056 2020-09-14 14:36:03 Terrasse 29.90 31.72 55.00
32055 2020-09-14 14:07:40 Terrasse 29.40 31.66 59.60
32054 2020-09-14 13:39:19 Terrasse 29.00 31.39 62.30
32053 2020-09-14 13:11:08 Terrasse 29.00 31.57 63.40
32052 2020-09-14 12:42:24 Terrasse 27.60 29.92 70.10
32051 2020-09-14 12:13:48 Terrasse 25.30 25.93 78.20
32050 2020-09-14 11:45:15 Terrasse 24.40 25.24 89.90
32049 2020-09-14 11:16:47 Terrasse 23.10 24.02 97.90
32048 2020-09-14 10:48:21 Terrasse 22.00 22.86 99.90
32047 2020-09-14 10:19:54 Terrasse 21.00 21.76 99.90
32046 2020-09-14 09:51:29 Terrasse 20.20 20.88 99.90
32045 2020-09-14 09:23:05 Terrasse 19.50 20.11 99.90
32044 2020-09-14 08:54:43 Terrasse 18.90 19.45 99.90
32043 2020-09-14 08:26:24 Terrasse 18.40 18.90 99.90
32042 2020-09-14 07:58:02 Terrasse 18.10 18.57 99.90
32041 2020-09-14 07:29:42 Terrasse 17.90 18.35 99.90
32040 2020-09-14 07:01:22 Terrasse 17.80 18.24 99.90
32039 2020-09-14 06:33:04 Terrasse 17.90 18.35 99.90
32038 2020-09-14 06:04:44 Terrasse 17.90 18.35 99.90
32037 2020-09-14 05:36:25 Terrasse 17.70 18.13 99.90
32036 2020-09-14 05:08:06 Terrasse 17.80 18.24 99.90
32035 2020-09-14 04:39:48 Terrasse 17.90 18.35 99.90
32034 2020-09-14 04:11:30 Terrasse 18.20 18.68 99.90
32033 2020-09-14 03:43:13 Terrasse 18.50 18.92 96.30
32032 2020-09-14 03:14:53 Terrasse 18.60 18.72 84.50
32031 2020-09-14 02:46:34 Terrasse 18.60 18.46 74.50
32030 2020-09-14 02:18:16 Terrasse 18.70 18.47 70.50
32029 2020-09-14 01:50:00 Terrasse 18.80 18.53 68.80
32028 2020-09-14 01:21:42 Terrasse 19.20 18.91 66.50
32027 2020-09-14 00:53:23 Terrasse 19.40 19.08 64.40
32026 2020-09-14 00:25:04 Terrasse 19.50 19.12 61.90
32025 2020-09-13 23:56:47 Terrasse 19.70 19.30 60.30
32024 2020-09-13 23:28:28 Terrasse 20.00 19.58 58.20
32023 2020-09-13 23:00:10 Terrasse 20.20 19.76 57.00
32022 2020-09-13 22:31:52 Terrasse 20.60 20.17 55.70
32021 2020-09-13 22:03:35 Terrasse 20.90 20.47 54.40
32020 2020-09-13 21:35:19 Terrasse 21.20 20.77 53.40
32019 2020-09-13 21:07:02 Terrasse 21.50 21.08 52.70
32018 2020-09-13 20:38:44 Terrasse 21.90 21.52 52.50
32017 2020-09-13 20:10:27 Terrasse 22.50 22.17 52.10
32016 2020-09-13 19:42:11 Terrasse 23.20 22.87 49.70
32015 2020-09-13 19:13:55 Terrasse 24.00 23.75 49.60
32014 2020-09-13 18:45:39 Terrasse 25.10 24.96 49.60
32013 2020-09-13 18:17:24 Terrasse 25.90 25.65 42.40
32012 2020-09-13 17:49:09 Terrasse 26.80 26.82 42.20
32011 2020-09-13 17:20:50 Terrasse 27.20 27.08 41.30
32010 2020-09-13 16:52:32 Terrasse 27.60 27.66 45.10
32009 2020-09-13 16:24:14 Terrasse 28.10 27.95 42.70
32008 2020-09-13 15:55:55 Terrasse 28.50 28.93 49.00
32007 2020-09-13 15:27:31 Terrasse 28.00 28.48 50.40
32006 2020-09-13 14:59:10 Terrasse 27.80 28.33 51.20
32005 2020-09-13 14:30:46 Terrasse 26.90 27.56 53.90
32004 2020-09-13 14:02:27 Terrasse 26.60 27.31 54.90
32003 2020-09-13 13:34:08 Terrasse 26.70 27.77 61.00
32002 2020-09-13 13:06:00 Terrasse 26.50 27.53 60.90
32001 2020-09-13 12:37:18 Terrasse 24.70 24.99 67.40
32000 2020-09-13 12:08:51 Terrasse 23.10 23.43 75.20
31999 2020-09-13 11:40:16 Terrasse 21.90 22.45 88.20
31998 2020-09-13 11:11:51 Terrasse 20.80 21.39 94.10
31997 2020-09-13 10:43:25 Terrasse 19.90 20.55 99.90
31996 2020-09-13 10:15:00 Terrasse 18.90 19.45 99.90
31995 2020-09-13 09:46:36 Terrasse 18.20 18.68 99.90
31994 2020-09-13 09:18:13 Terrasse 17.60 18.02 99.90
31993 2020-09-13 08:49:50 Terrasse 17.00 17.36 99.90
31992 2020-09-13 08:21:26 Terrasse 16.40 16.70 99.90
31991 2020-09-13 07:53:07 Terrasse 16.10 16.37 99.90
31990 2020-09-13 07:24:48 Terrasse 16.10 16.37 99.90
31989 2020-09-13 06:56:30 Terrasse 16.30 16.59 99.90
31988 2020-09-13 06:28:12 Terrasse 16.40 16.70 99.90
31987 2020-09-13 05:59:55 Terrasse 16.60 16.92 99.90
31986 2020-09-13 05:31:38 Terrasse 16.80 17.14 99.90
31985 2020-09-13 05:03:35 Terrasse 17.00 17.36 99.90
31984 2020-09-13 04:35:11 Terrasse 17.20 17.58 99.90
31983 2020-09-13 04:07:00 Terrasse 17.40 17.80 99.90
31982 2020-09-13 03:38:40 Terrasse 17.70 18.13 99.90
31981 2020-09-13 03:10:23 Terrasse 18.00 18.46 99.90
31980 2020-09-13 02:42:06 Terrasse 18.50 19.01 99.90
31979 2020-09-13 02:13:49 Terrasse 18.60 19.02 95.80
31978 2020-09-13 01:45:34 Terrasse 18.90 19.18 89.30
31977 2020-09-13 01:17:15 Terrasse 19.30 19.43 82.10
31976 2020-09-13 00:48:58 Terrasse 19.70 19.73 76.80
31975 2020-09-13 00:20:48 Terrasse 20.30 20.26 71.80
31974 2020-09-12 23:52:28 Terrasse 20.70 20.60 68.10
31973 2020-09-12 23:24:10 Terrasse 20.90 20.82 67.90
31972 2020-09-12 22:55:51 Terrasse 21.30 21.23 66.90
31971 2020-09-12 22:27:32 Terrasse 21.60 21.55 66.30
31970 2020-09-12 21:59:14 Terrasse 22.00 21.97 65.50
31969 2020-09-12 21:30:56 Terrasse 22.30 22.26 64.10
31968 2020-09-12 21:02:37 Terrasse 22.60 22.54 62.40
31967 2020-09-12 20:34:20 Terrasse 23.10 23.11 62.90
31966 2020-09-12 20:06:03 Terrasse 23.90 23.90 59.50
31965 2020-09-12 19:37:46 Terrasse 24.40 24.42 58.30
31964 2020-09-12 19:09:28 Terrasse 25.00 24.99 55.00
31963 2020-09-12 18:41:12 Terrasse 25.60 25.65 55.00
31962 2020-09-12 18:12:54 Terrasse 26.00 26.08 54.40
31961 2020-09-12 17:44:38 Terrasse 26.60 27.24 53.60
31960 2020-09-12 17:16:21 Terrasse 27.40 27.88 51.00
31959 2020-09-12 16:48:03 Terrasse 27.90 28.38 50.50
31958 2020-09-12 16:19:43 Terrasse 28.20 28.67 49.90
31957 2020-09-12 15:51:23 Terrasse 28.30 28.87 50.80
31956 2020-09-12 15:23:01 Terrasse 27.80 28.42 52.20
31955 2020-09-12 14:54:39 Terrasse 27.60 28.36 54.20
31954 2020-09-12 14:26:16 Terrasse 27.20 27.94 54.80
31953 2020-09-12 13:57:53 Terrasse 26.60 27.32 55.00
31952 2020-09-12 13:29:34 Terrasse 26.30 27.13 57.50
31951 2020-09-12 13:01:19 Terrasse 25.90 26.05 57.80
31950 2020-09-12 12:32:44 Terrasse 24.20 24.35 64.20
31949 2020-09-12 12:04:21 Terrasse 22.60 22.94 77.50
31948 2020-09-12 11:35:47 Terrasse 21.30 21.65 82.90
31947 2020-09-12 11:07:20 Terrasse 20.30 20.75 90.70
31946 2020-09-12 10:38:54 Terrasse 19.40 20.00 99.90
31945 2020-09-12 10:10:27 Terrasse 18.50 18.91 96.00
31944 2020-09-12 09:42:03 Terrasse 17.70 18.13 99.90
31943 2020-09-12 09:13:38 Terrasse 17.00 17.36 99.90
31942 2020-09-12 08:45:15 Terrasse 16.40 16.70 99.90
31941 2020-09-12 08:16:52 Terrasse 16.00 16.26 99.90
31940 2020-09-12 07:48:30 Terrasse 15.80 16.04 99.90
31939 2020-09-12 07:20:09 Terrasse 15.70 15.93 99.90
31938 2020-09-12 06:51:51 Terrasse 15.90 16.14 99.50
31937 2020-09-12 06:23:33 Terrasse 16.20 16.30 92.90
31936 2020-09-12 05:55:19 Terrasse 16.40 16.34 86.10
31935 2020-09-12 05:27:01 Terrasse 16.50 16.34 81.80
31934 2020-09-12 04:58:51 Terrasse 16.60 16.31 76.40
31933 2020-09-12 04:30:32 Terrasse 16.70 16.34 73.40
31932 2020-09-12 04:02:19 Terrasse 16.80 16.41 71.80
31931 2020-09-12 03:34:02 Terrasse 17.00 16.59 70.30
31930 2020-09-12 03:05:47 Terrasse 17.20 16.78 69.00
31929 2020-09-12 02:37:30 Terrasse 17.30 16.87 68.30
31928 2020-09-12 02:09:12 Terrasse 17.40 16.97 67.80
31927 2020-09-12 01:40:54 Terrasse 17.50 17.07 67.60
31926 2020-09-12 01:12:35 Terrasse 17.60 17.15 66.40
31925 2020-09-12 00:44:18 Terrasse 17.90 17.46 65.60
31924 2020-09-12 00:16:00 Terrasse 18.10 17.64 64.20
31923 2020-09-11 23:48:10 Terrasse 18.40 17.98 64.40
31922 2020-09-11 23:19:48 Terrasse 19.00 18.57 61.90
31921 2020-09-11 22:51:55 Terrasse 19.30 18.88 61.10
31920 2020-09-11 22:23:28 Terrasse 19.70 19.29 60.00
31919 2020-09-11 21:55:10 Terrasse 20.00 19.61 59.60
31918 2020-09-11 21:27:11 Terrasse 20.30 19.92 58.80
31917 2020-09-11 20:58:25 Terrasse 20.50 20.16 59.50
31916 2020-09-11 20:30:09 Terrasse 20.80 20.47 58.90
31915 2020-09-11 20:01:52 Terrasse 21.30 21.03 59.20
31914 2020-09-11 19:33:37 Terrasse 22.10 21.90 58.80
31913 2020-09-11 19:05:19 Terrasse 22.90 22.70 55.90
31912 2020-09-11 18:37:03 Terrasse 23.50 23.34 55.00
31911 2020-09-11 18:08:46 Terrasse 24.20 24.07 53.50
31910 2020-09-11 17:40:30 Terrasse 24.90 24.82 52.80
31909 2020-09-11 17:12:12 Terrasse 25.40 25.31 50.30
31908 2020-09-11 16:43:54 Terrasse 26.00 25.93 48.80
31907 2020-09-11 16:15:36 Terrasse 26.70 27.06 48.50
31906 2020-09-11 15:47:13 Terrasse 26.70 27.15 50.10
31905 2020-09-11 15:18:51 Terrasse 26.20 26.69 49.20
31904 2020-09-11 14:50:33 Terrasse 26.00 25.99 51.20
31903 2020-09-11 14:22:09 Terrasse 25.90 25.90 52.00
31902 2020-09-11 13:53:47 Terrasse 25.50 25.48 52.60
31901 2020-09-11 13:25:30 Terrasse 25.50 25.48 52.80
31900 2020-09-11 12:57:14 Terrasse 25.20 25.23 55.70
31899 2020-09-11 12:28:29 Terrasse 22.80 22.67 58.70
31898 2020-09-11 11:27:36 Terrasse 19.70 19.86 81.70
31897 2020-09-11 10:59:09 Terrasse 18.60 18.98 94.50
31896 2020-09-11 10:30:43 Terrasse 17.70 18.13 99.90
31895 2020-09-11 10:02:22 Terrasse 17.40 17.62 92.90
31894 2020-09-11 09:33:56 Terrasse 16.70 17.03 99.90
31893 2020-09-11 09:05:32 Terrasse 16.10 16.37 99.90
31892 2020-09-11 08:37:09 Terrasse 15.50 15.71 99.90
31891 2020-09-11 08:08:47 Terrasse 15.10 15.27 99.90
31890 2020-09-11 07:40:27 Terrasse 14.80 14.94 99.90
31889 2020-09-11 07:12:08 Terrasse 14.80 14.94 99.90
31888 2020-09-11 06:43:50 Terrasse 14.90 14.95 96.00
31887 2020-09-11 06:15:30 Terrasse 15.00 14.97 92.40
31886 2020-09-11 05:47:27 Terrasse 15.30 15.09 84.50
31885 2020-09-11 05:19:18 Terrasse 15.40 15.02 77.70
31884 2020-09-11 04:51:00 Terrasse 15.70 15.26 74.10
31883 2020-09-11 04:22:44 Terrasse 15.90 15.42 71.80
31882 2020-09-11 03:54:27 Terrasse 16.10 15.61 70.70
31881 2020-09-11 03:26:20 Terrasse 16.20 15.70 69.70
31880 2020-09-11 02:57:59 Terrasse 16.30 15.81 69.80
31879 2020-09-11 02:29:41 Terrasse 16.30 15.83 70.50
31878 2020-09-11 02:01:25 Terrasse 16.80 16.33 68.80
31877 2020-09-11 01:33:10 Terrasse 17.30 16.81 66.00
31876 2020-09-11 01:04:54 Terrasse 17.50 17.02 65.70
31875 2020-09-11 00:36:36 Terrasse 17.80 17.32 64.40
31874 2020-09-11 00:08:16 Terrasse 17.70 17.18 63.50
31873 2020-09-10 23:39:58 Terrasse 17.70 17.17 63.10
31872 2020-09-10 23:11:38 Terrasse 17.80 17.30 63.90
31871 2020-09-10 22:43:22 Terrasse 17.80 17.27 62.70
31870 2020-09-10 22:15:06 Terrasse 18.30 17.83 62.80
31869 2020-09-10 21:46:49 Terrasse 18.70 18.22 61.10
31868 2020-09-10 21:18:33 Terrasse 19.20 18.77 61.00
31867 2020-09-10 20:50:16 Terrasse 19.70 19.29 60.00
31866 2020-09-10 20:22:05 Terrasse 20.20 19.83 59.50
31865 2020-09-10 19:53:55 Terrasse 21.10 20.75 56.90
31864 2020-09-10 19:25:37 Terrasse 21.70 21.38 55.80
31863 2020-09-10 18:57:33 Terrasse 22.40 22.15 55.90
31862 2020-09-10 17:54:49 Terrasse 23.70 23.57 55.30
31861 2020-09-10 17:26:30 Terrasse 24.40 24.29 53.60
31860 2020-09-10 16:25:51 Terrasse 26.50 26.99 50.40
31859 2020-09-10 15:57:31 Terrasse 26.60 27.17 52.20
31858 2020-09-10 15:29:11 Terrasse 26.10 26.79 53.90
31857 2020-09-10 15:00:52 Terrasse 26.00 26.10 55.20
31856 2020-09-10 14:32:32 Terrasse 26.00 26.09 54.90
31855 2020-09-10 14:04:09 Terrasse 25.80 25.91 56.40
31854 2020-09-10 13:35:47 Terrasse 25.50 25.56 55.60
31853 2020-09-10 13:07:47 Terrasse 26.00 26.81 56.70
31852 2020-09-10 12:39:05 Terrasse 24.40 24.54 62.80
31851 2020-09-10 12:10:43 Terrasse 23.00 23.21 70.90
31850 2020-09-10 11:42:06 Terrasse 21.70 22.00 79.40
31849 2020-09-10 11:13:40 Terrasse 20.30 20.35 75.10
31848 2020-09-10 10:45:15 Terrasse 19.00 18.97 77.20
31847 2020-09-10 10:16:55 Terrasse 18.60 18.60 79.80
31846 2020-09-10 09:48:32 Terrasse 18.00 17.99 81.70
31845 2020-09-10 09:20:11 Terrasse 17.60 17.51 80.20
31844 2020-09-10 08:51:50 Terrasse 17.50 17.35 78.30
31843 2020-09-10 08:23:33 Terrasse 17.60 17.44 77.70
31842 2020-09-10 07:55:16 Terrasse 17.70 17.65 81.40
31841 2020-09-10 07:26:57 Terrasse 17.90 18.12 90.80
31840 2020-09-10 06:58:42 Terrasse 18.10 18.39 92.70
31839 2020-09-10 06:30:23 Terrasse 18.30 18.79 99.90
31838 2020-09-10 06:02:06 Terrasse 18.50 19.01 99.90
31837 2020-09-10 05:33:48 Terrasse 18.70 19.23 99.90
31836 2020-09-10 05:05:28 Terrasse 19.00 19.56 99.90
31835 2020-09-10 04:37:09 Terrasse 19.20 19.78 99.90
31834 2020-09-10 04:08:48 Terrasse 19.20 19.78 99.90
31833 2020-09-10 03:40:29 Terrasse 19.30 19.89 99.90
31832 2020-09-10 03:12:12 Terrasse 19.30 19.89 99.90
31831 2020-09-10 02:43:55 Terrasse 19.50 20.11 99.90
31830 2020-09-10 02:15:37 Terrasse 19.80 20.44 99.90
31829 2020-09-10 01:47:30 Terrasse 20.00 20.66 99.90
31828 2020-09-10 01:19:12 Terrasse 20.10 20.77 99.90
31827 2020-09-10 00:50:55 Terrasse 20.10 20.77 99.90
31826 2020-09-10 00:22:41 Terrasse 20.10 20.77 99.90
31825 2020-09-09 23:54:19 Terrasse 20.00 20.66 99.90
31824 2020-09-09 23:26:01 Terrasse 20.10 20.77 99.90
31823 2020-09-09 22:57:42 Terrasse 20.30 20.99 99.90
31822 2020-09-09 22:29:23 Terrasse 20.60 21.32 99.90
31821 2020-09-09 22:01:10 Terrasse 20.70 21.43 99.90
31820 2020-09-09 21:32:53 Terrasse 21.00 21.76 99.90
31819 2020-09-09 21:04:40 Terrasse 21.20 21.98 99.90
31818 2020-09-09 20:36:20 Terrasse 21.50 22.31 99.80
31817 2020-09-09 20:08:02 Terrasse 21.70 22.46 97.20
31816 2020-09-09 19:39:47 Terrasse 22.40 22.72 77.50
31815 2020-09-09 19:11:30 Terrasse 23.00 23.24 72.30
31814 2020-09-09 18:43:13 Terrasse 23.40 23.65 70.90
31813 2020-09-09 18:14:59 Terrasse 24.00 24.25 68.90
31812 2020-09-09 17:46:41 Terrasse 24.60 24.91 68.70
31811 2020-09-09 17:18:18 Terrasse 24.60 24.93 69.40
31810 2020-09-09 16:50:00 Terrasse 24.70 25.11 72.00
31809 2020-09-09 16:21:39 Terrasse 24.20 24.56 72.10
31808 2020-09-09 15:53:20 Terrasse 24.40 24.79 72.70
31807 2020-09-09 15:24:58 Terrasse 24.00 24.32 71.30
31806 2020-09-09 14:56:37 Terrasse 24.10 24.41 70.60
31805 2020-09-09 14:28:24 Terrasse 24.80 25.10 67.50
31804 2020-09-09 13:27:10 Terrasse 27.90 28.89 56.00
31803 2020-09-09 12:59:16 Terrasse 26.80 27.69 57.70
31802 2020-09-09 12:30:22 Terrasse 24.40 24.48 60.50
31801 2020-09-09 11:28:52 Terrasse 21.30 21.32 70.10
31800 2020-09-09 11:00:24 Terrasse 20.20 20.22 74.60
31799 2020-09-09 10:31:58 Terrasse 19.10 19.10 77.80
31798 2020-09-09 10:03:34 Terrasse 18.20 18.32 85.90
31797 2020-09-09 09:35:10 Terrasse 17.50 17.91 99.90
31796 2020-09-09 09:06:47 Terrasse 16.80 17.14 99.90
31795 2020-09-09 08:38:23 Terrasse 16.20 16.48 99.90
31794 2020-09-09 08:10:00 Terrasse 15.70 15.93 99.90
31793 2020-09-09 07:41:40 Terrasse 15.30 15.49 99.90
31792 2020-09-09 07:13:21 Terrasse 15.30 15.49 99.90
31791 2020-09-09 06:45:03 Terrasse 15.30 15.47 99.00
31790 2020-09-09 06:16:46 Terrasse 15.60 15.51 87.90
31789 2020-09-09 05:48:28 Terrasse 15.70 15.33 76.80
31788 2020-09-09 05:20:11 Terrasse 15.90 15.46 73.20
31787 2020-09-09 04:51:54 Terrasse 16.20 15.70 69.80
31786 2020-09-09 04:23:35 Terrasse 16.40 15.82 66.20
31785 2020-09-09 03:55:17 Terrasse 16.60 16.02 65.30
31784 2020-09-09 03:26:58 Terrasse 16.80 16.20 63.90
31783 2020-09-09 02:58:40 Terrasse 17.10 16.49 62.10
31782 2020-09-09 02:30:22 Terrasse 17.30 16.68 61.00
31781 2020-09-09 02:02:05 Terrasse 17.60 16.97 59.70
31780 2020-09-09 01:33:46 Terrasse 17.90 17.30 59.50
31779 2020-09-09 01:05:39 Terrasse 18.20 17.61 58.60
31778 2020-09-09 00:37:16 Terrasse 18.50 17.90 57.20
31777 2020-09-09 00:08:57 Terrasse 18.60 18.01 57.40
31776 2020-09-08 23:40:37 Terrasse 18.90 18.34 57.10
31775 2020-09-08 23:12:20 Terrasse 19.30 18.77 57.00
31774 2020-09-08 21:42:45 Terrasse 20.30 19.84 55.70
31773 2020-09-08 20:09:45 Terrasse 21.80 21.46 54.60
31772 2020-09-08 19:41:31 Terrasse 22.70 22.40 52.60
31771 2020-09-08 19:13:14 Terrasse 23.60 23.26 47.80
31770 2020-09-08 18:44:57 Terrasse 24.00 23.64 45.20
31769 2020-09-08 18:16:40 Terrasse 24.60 24.32 46.20
31768 2020-09-08 17:48:24 Terrasse 25.10 24.87 46.20
31767 2020-09-08 17:20:07 Terrasse 25.50 25.27 44.60
31766 2020-09-08 16:51:48 Terrasse 25.80 25.61 45.00
31765 2020-09-08 16:23:31 Terrasse 26.10 25.96 45.80
31764 2020-09-08 15:55:13 Terrasse 26.50 26.71 44.50
31763 2020-09-08 15:26:52 Terrasse 26.30 26.60 45.30
31762 2020-09-08 14:58:30 Terrasse 26.00 25.82 44.50
31761 2020-09-08 14:30:09 Terrasse 25.70 25.54 46.70
31760 2020-09-08 14:01:50 Terrasse 25.50 25.34 47.20
31759 2020-09-08 13:33:33 Terrasse 25.40 25.27 48.70
31758 2020-09-08 13:05:23 Terrasse 25.00 24.84 49.30
31757 2020-09-08 12:36:38 Terrasse 23.10 22.92 55.70
31756 2020-09-08 12:08:17 Terrasse 21.20 20.93 59.40
31755 2020-09-08 11:39:38 Terrasse 20.00 19.70 62.80
31754 2020-09-08 11:11:08 Terrasse 18.30 18.00 69.40
31753 2020-09-08 10:42:43 Terrasse 17.30 17.02 74.00
31752 2020-09-08 10:14:18 Terrasse 16.30 16.07 79.70
31751 2020-09-08 09:45:56 Terrasse 15.50 15.13 77.60
31750 2020-09-08 09:17:34 Terrasse 14.90 14.81 90.40
31749 2020-09-08 08:49:12 Terrasse 14.40 14.39 95.40
31748 2020-09-08 08:20:51 Terrasse 13.80 13.84 99.90
31747 2020-09-08 07:52:30 Terrasse 13.40 13.15 90.30
31746 2020-09-08 07:24:12 Terrasse 13.20 12.66 80.00
31745 2020-09-08 06:55:52 Terrasse 13.20 12.57 76.30
31744 2020-09-08 06:27:34 Terrasse 13.40 12.71 73.40
31743 2020-09-08 05:59:33 Terrasse 13.50 12.77 71.30
31742 2020-09-08 05:31:08 Terrasse 13.60 12.85 70.20
31741 2020-09-08 05:02:51 Terrasse 13.70 12.92 68.90
31740 2020-09-08 04:34:33 Terrasse 13.90 13.12 68.10
31739 2020-09-08 04:06:16 Terrasse 14.00 13.20 67.00
31738 2020-09-08 03:37:59 Terrasse 14.20 13.40 66.20
31737 2020-09-08 03:09:42 Terrasse 14.40 13.61 65.80
31736 2020-09-08 02:41:23 Terrasse 14.50 13.72 65.60
31735 2020-09-08 02:13:06 Terrasse 14.60 13.81 65.00
31734 2020-09-08 01:44:49 Terrasse 14.90 14.12 64.10
31733 2020-09-08 01:16:31 Terrasse 15.20 14.42 63.00
31732 2020-09-08 00:48:15 Terrasse 15.40 14.63 62.50
31731 2020-09-08 00:19:56 Terrasse 15.60 14.82 61.40
31730 2020-09-07 23:51:40 Terrasse 15.80 15.01 60.30
31729 2020-09-07 23:23:23 Terrasse 16.10 15.35 60.60
31728 2020-09-07 22:55:06 Terrasse 16.40 15.67 60.30
31727 2020-09-07 22:26:49 Terrasse 16.60 15.88 59.90
31726 2020-09-07 21:58:31 Terrasse 16.80 16.08 59.20
31725 2020-09-07 21:30:15 Terrasse 17.30 16.61 58.40
31724 2020-09-07 21:01:59 Terrasse 17.70 17.03 57.50
31723 2020-09-07 20:33:42 Terrasse 18.30 17.66 56.40
31722 2020-09-07 20:05:28 Terrasse 19.00 18.45 57.30
31721 2020-09-07 19:37:14 Terrasse 19.80 19.28 55.50
31720 2020-09-07 19:08:58 Terrasse 20.40 19.88 53.10
31719 2020-09-07 18:40:42 Terrasse 20.90 20.38 51.30
31718 2020-09-07 18:12:28 Terrasse 21.60 21.08 48.60
31717 2020-09-07 17:44:11 Terrasse 22.00 21.51 48.10
31716 2020-09-07 17:15:53 Terrasse 22.40 21.97 49.00
31715 2020-09-07 16:47:33 Terrasse 22.50 22.07 48.30
31714 2020-09-07 16:19:11 Terrasse 22.50 22.12 50.30
31713 2020-09-07 15:50:47 Terrasse 22.00 21.58 50.80
31712 2020-09-07 15:22:23 Terrasse 21.30 20.92 54.80
31711 2020-09-07 14:54:05 Terrasse 20.70 20.26 55.00
31710 2020-09-07 14:25:52 Terrasse 21.70 21.34 54.20
31709 2020-09-07 13:57:37 Terrasse 22.60 22.31 53.50
31708 2020-09-07 13:28:55 Terrasse 19.60 19.15 58.70
31707 2020-09-07 13:00:50 Terrasse 20.90 20.56 57.90
31706 2020-09-07 12:32:13 Terrasse 20.50 20.20 61.00
31705 2020-09-07 12:03:48 Terrasse 18.50 18.13 66.20
31704 2020-09-07 11:35:32 Terrasse 18.50 18.16 67.30
31703 2020-09-07 11:07:04 Terrasse 17.70 17.50 75.50
31702 2020-09-07 10:38:39 Terrasse 16.60 16.53 85.00
31701 2020-09-07 10:10:14 Terrasse 15.60 15.56 89.80
31700 2020-09-07 09:41:50 Terrasse 14.70 14.81 99.00
31699 2020-09-07 09:14:34 Terrasse 14.20 14.28 99.90
31698 2020-09-07 08:45:02 Terrasse 13.60 13.62 99.90
31697 2020-09-07 08:16:20 Terrasse 13.00 12.96 99.90
31696 2020-09-07 07:47:00 Terrasse 12.70 12.63 99.90
31695 2020-09-07 07:18:41 Terrasse 12.70 12.53 96.00
31694 2020-09-07 06:50:22 Terrasse 12.80 12.51 90.80
31693 2020-09-07 06:22:02 Terrasse 12.70 12.39 90.60
31692 2020-09-07 05:53:46 Terrasse 13.00 12.44 79.90
31691 2020-09-07 05:25:29 Terrasse 13.40 12.71 73.40
31690 2020-09-07 04:57:11 Terrasse 13.60 12.85 70.40
31689 2020-09-07 04:28:54 Terrasse 13.70 12.93 69.00
31688 2020-09-07 04:00:37 Terrasse 13.90 13.15 69.10
31687 2020-09-07 03:32:21 Terrasse 14.10 13.36 68.80
31686 2020-09-07 03:04:05 Terrasse 14.40 13.64 66.90
31685 2020-09-07 02:35:50 Terrasse 14.80 14.01 64.20
31684 2020-09-07 02:07:35 Terrasse 15.10 14.32 63.40
31683 2020-09-07 01:39:17 Terrasse 15.30 14.53 62.80
31682 2020-09-07 01:10:59 Terrasse 15.50 14.72 61.90
31681 2020-09-07 00:42:42 Terrasse 15.60 14.85 62.50
31680 2020-09-07 00:14:23 Terrasse 15.70 14.94 61.70
31679 2020-09-06 23:46:04 Terrasse 15.70 14.94 61.90
31678 2020-09-06 23:17:45 Terrasse 15.80 15.02 60.70
31677 2020-09-06 22:49:26 Terrasse 16.00 15.22 59.90
31676 2020-09-06 22:21:10 Terrasse 16.30 15.52 58.70
31675 2020-09-06 21:52:51 Terrasse 16.60 15.82 57.80
31674 2020-09-06 21:24:33 Terrasse 16.80 16.03 57.10
31673 2020-09-06 20:56:15 Terrasse 17.00 16.23 56.40
31672 2020-09-06 19:59:52 Terrasse 18.20 17.51 54.80
31671 2020-09-06 19:31:38 Terrasse 18.70 18.01 53.00
31670 2020-09-06 19:03:21 Terrasse 19.20 18.56 53.10
31669 2020-09-06 18:35:07 Terrasse 19.70 19.06 51.10
31668 2020-09-06 18:06:51 Terrasse 20.10 19.59 54.50
31667 2020-09-06 17:38:35 Terrasse 20.40 19.85 52.00
31666 2020-09-06 17:10:19 Terrasse 20.80 20.16 46.90
31665 2020-09-06 16:42:05 Terrasse 21.60 21.01 45.60
31664 2020-09-06 16:13:48 Terrasse 21.90 21.35 46.20
31663 2020-09-06 15:45:44 Terrasse 23.20 22.79 46.60
31662 2020-09-06 15:17:18 Terrasse 22.70 22.24 46.70
31661 2020-09-06 14:49:08 Terrasse 23.60 23.11 41.90
31660 2020-09-06 14:20:45 Terrasse 23.20 22.70 42.90
31659 2020-09-06 13:54:00 Terrasse 23.00 22.57 46.70
31658 2020-09-06 12:50:12 Terrasse 21.10 20.63 52.10
31657 2020-09-06 12:21:42 Terrasse 19.60 19.21 61.20
31656 2020-09-06 11:53:25 Terrasse 18.90 18.32 56.60
31655 2020-09-06 11:24:47 Terrasse 17.30 16.92 70.30
31654 2020-09-06 10:56:20 Terrasse 16.10 15.69 73.80
31653 2020-09-06 10:27:58 Terrasse 15.60 15.47 86.50
31652 2020-09-06 09:59:35 Terrasse 15.10 15.12 93.90
31651 2020-09-06 09:31:10 Terrasse 14.10 14.17 99.90
31650 2020-09-06 09:02:48 Terrasse 13.60 13.62 99.90
31649 2020-09-06 08:34:26 Terrasse 13.10 13.07 99.90
31648 2020-09-06 08:06:07 Terrasse 13.00 12.96 99.90
31647 2020-09-06 07:38:43 Terrasse 12.80 12.74 99.90
31646 2020-09-06 07:09:34 Terrasse 12.80 12.74 99.90
31645 2020-09-06 06:42:08 Terrasse 13.10 12.94 94.90
31644 2020-09-06 06:13:41 Terrasse 13.60 13.22 84.40
31643 2020-09-06 05:43:43 Terrasse 13.80 13.47 85.70
31642 2020-09-06 05:16:12 Terrasse 13.90 13.46 80.80
31641 2020-09-06 04:47:43 Terrasse 14.10 13.54 75.50
31640 2020-09-06 04:18:28 Terrasse 14.40 13.81 73.20
31639 2020-09-06 03:50:12 Terrasse 14.50 13.89 72.00
31638 2020-09-06 03:21:55 Terrasse 14.60 13.98 71.50
31637 2020-09-06 02:53:54 Terrasse 14.80 14.16 70.00
31636 2020-09-06 02:25:35 Terrasse 15.10 14.47 69.30
31635 2020-09-06 01:57:44 Terrasse 15.40 14.79 68.80
31634 2020-09-06 01:29:17 Terrasse 15.60 15.15 73.90
31633 2020-09-06 01:01:00 Terrasse 15.80 15.40 75.10
31632 2020-09-06 00:32:45 Terrasse 16.20 15.78 73.00
31631 2020-09-06 00:04:29 Terrasse 16.50 16.06 71.10
31630 2020-09-05 23:36:10 Terrasse 16.60 16.15 70.10
31629 2020-09-05 23:07:52 Terrasse 16.60 16.14 69.80
31628 2020-09-05 22:39:33 Terrasse 16.50 16.04 70.20
31627 2020-09-05 22:11:16 Terrasse 16.50 16.10 72.70
31626 2020-09-05 21:43:00 Terrasse 16.70 16.35 73.60
31625 2020-09-05 21:14:44 Terrasse 17.20 16.82 70.50
31624 2020-09-05 20:46:29 Terrasse 17.50 17.04 66.30
31623 2020-09-05 20:18:16 Terrasse 18.10 17.69 65.90
31622 2020-09-05 19:50:01 Terrasse 18.60 18.10 60.50
31621 2020-09-05 19:21:46 Terrasse 19.00 18.61 63.50
31620 2020-09-05 18:53:30 Terrasse 19.40 19.06 63.60
31619 2020-09-05 18:25:16 Terrasse 19.90 19.61 63.70
31618 2020-09-05 17:57:01 Terrasse 20.40 20.17 64.10
31617 2020-09-05 17:28:44 Terrasse 20.70 20.56 66.40
31616 2020-09-05 17:00:28 Terrasse 21.50 21.46 67.20
31615 2020-09-05 16:32:12 Terrasse 21.70 21.63 65.20
31614 2020-09-05 16:03:50 Terrasse 21.80 21.76 66.20
31613 2020-09-05 15:35:36 Terrasse 22.50 22.48 64.00
31612 2020-09-05 15:07:24 Terrasse 23.50 23.50 61.10
31611 2020-09-05 14:39:02 Terrasse 23.00 23.08 66.00
31610 2020-09-05 14:10:42 Terrasse 22.40 22.45 67.20
31609 2020-09-05 13:42:33 Terrasse 24.00 24.14 64.60
31608 2020-09-05 13:14:10 Terrasse 22.60 22.68 67.70
31607 2020-09-05 12:45:34 Terrasse 20.30 20.54 82.50
31606 2020-09-05 12:17:09 Terrasse 20.00 20.48 92.80
31605 2020-09-05 11:48:55 Terrasse 19.90 20.41 94.20
31604 2020-09-05 11:20:29 Terrasse 19.50 20.11 99.90
31603 2020-09-05 10:52:07 Terrasse 18.90 19.45 99.90
31602 2020-09-05 10:23:40 Terrasse 17.60 18.02 99.90
31601 2020-09-05 09:55:20 Terrasse 17.30 17.69 99.90
31600 2020-09-05 09:26:58 Terrasse 17.10 17.47 99.90
31599 2020-09-05 08:58:41 Terrasse 17.40 17.80 99.90
31598 2020-09-05 08:30:23 Terrasse 17.70 18.13 99.90
31597 2020-09-05 08:02:02 Terrasse 17.30 17.69 99.90
31596 2020-09-05 07:33:41 Terrasse 17.10 17.47 99.90
31595 2020-09-05 07:05:22 Terrasse 17.10 17.47 99.90
31594 2020-09-05 06:37:03 Terrasse 17.10 17.47 99.90
31593 2020-09-05 06:08:45 Terrasse 17.30 17.69 99.90
31592 2020-09-05 05:40:28 Terrasse 17.40 17.80 99.90
31591 2020-09-05 05:12:09 Terrasse 17.60 18.02 99.90
31590 2020-09-05 04:43:49 Terrasse 17.40 17.80 99.90
31589 2020-09-05 04:15:31 Terrasse 17.50 17.91 99.90
31588 2020-09-05 03:47:14 Terrasse 17.70 18.13 99.90
31587 2020-09-05 03:18:55 Terrasse 17.70 18.13 99.90
31586 2020-09-05 02:50:38 Terrasse 17.90 18.35 99.90
31585 2020-09-05 02:22:21 Terrasse 18.10 18.57 99.90
31584 2020-09-05 01:54:04 Terrasse 18.30 18.79 99.90
31583 2020-09-05 01:25:47 Terrasse 18.50 19.01 99.90
31582 2020-09-05 00:57:31 Terrasse 18.90 19.45 99.90
31581 2020-09-05 00:29:15 Terrasse 19.10 19.67 99.90
31580 2020-09-05 00:00:58 Terrasse 19.50 20.11 99.90
31579 2020-09-04 23:32:41 Terrasse 19.90 20.55 99.90
31578 2020-09-04 23:04:25 Terrasse 20.30 20.81 92.90
31577 2020-09-04 22:36:07 Terrasse 20.80 21.29 90.30
31576 2020-09-04 22:07:49 Terrasse 21.10 21.65 91.20
31575 2020-09-04 21:39:31 Terrasse 21.20 21.82 93.50
31574 2020-09-04 21:11:13 Terrasse 21.50 22.12 92.30
31573 2020-09-04 20:42:56 Terrasse 21.90 22.43 87.50
31572 2020-09-04 20:14:40 Terrasse 22.30 22.61 77.60
31571 2020-09-04 19:46:24 Terrasse 22.80 23.02 72.00
31570 2020-09-04 19:18:07 Terrasse 23.30 23.35 63.80
31569 2020-09-04 18:49:50 Terrasse 23.80 23.91 64.20
31568 2020-09-04 18:21:32 Terrasse 24.30 24.41 62.10
31567 2020-09-04 17:53:15 Terrasse 25.00 25.20 63.00
31566 2020-09-04 17:24:57 Terrasse 25.30 25.48 61.10
31565 2020-09-04 16:56:36 Terrasse 25.40 25.59 60.90
31564 2020-09-04 16:28:21 Terrasse 25.80 26.01 60.20
31563 2020-09-04 16:00:04 Terrasse 25.80 26.10 63.90
31562 2020-09-04 15:31:39 Terrasse 24.50 24.88 71.90
31561 2020-09-04 15:03:21 Terrasse 24.00 24.35 72.50
31560 2020-09-04 14:34:59 Terrasse 23.80 24.14 73.10
31559 2020-09-04 14:06:27 Terrasse 22.60 23.32 92.00
31558 2020-09-04 13:37:57 Terrasse 21.30 22.09 99.90
31557 2020-09-04 13:09:32 Terrasse 20.40 21.10 99.90
31556 2020-09-04 12:41:07 Terrasse 19.80 20.44 99.90
31555 2020-09-04 12:12:42 Terrasse 19.10 19.67 99.90
31554 2020-09-04 11:44:20 Terrasse 18.30 18.79 99.90
31553 2020-09-04 11:16:09 Terrasse 17.90 18.35 99.90
31552 2020-09-04 10:47:45 Terrasse 17.70 18.13 99.90
31551 2020-09-04 10:19:23 Terrasse 17.40 17.80 99.90
31550 2020-09-04 09:51:03 Terrasse 17.20 17.58 99.90
31549 2020-09-04 09:22:44 Terrasse 17.00 17.36 99.90
31548 2020-09-04 08:54:24 Terrasse 16.90 17.25 99.90
31547 2020-09-04 08:26:10 Terrasse 16.70 17.03 99.90
31546 2020-09-04 07:58:16 Terrasse 16.60 16.92 99.90
31545 2020-09-04 07:29:27 Terrasse 16.50 16.81 99.90
31544 2020-09-04 07:01:08 Terrasse 16.50 16.81 99.90
31543 2020-09-04 06:32:49 Terrasse 16.50 16.81 99.90
31542 2020-09-04 06:04:53 Terrasse 16.50 16.81 99.90
31541 2020-09-04 03:21:48 Terrasse 16.50 16.81 99.90
31540 2020-09-04 02:53:59 Terrasse 16.50 16.81 99.90
31539 2020-09-04 02:22:20 Terrasse 16.50 16.81 99.90
31538 2020-09-04 01:54:00 Terrasse 16.40 16.70 99.90
31537 2020-09-04 01:25:41 Terrasse 16.40 16.70 99.90
31536 2020-09-04 00:57:22 Terrasse 16.40 16.70 99.90
31535 2020-09-04 00:29:04 Terrasse 16.40 16.70 99.90
31534 2020-09-04 00:00:47 Terrasse 16.40 16.70 99.90
31533 2020-09-03 23:32:28 Terrasse 16.50 16.81 99.90
31532 2020-09-03 23:04:17 Terrasse 16.50 16.81 99.90
31531 2020-09-03 22:35:31 Terrasse 16.60 16.92 99.90
31530 2020-09-03 22:09:26 Terrasse 16.70 17.03 99.90
31529 2020-09-03 21:31:28 Terrasse 16.60 16.92 99.90
31528 2020-09-03 21:03:11 Terrasse 16.60 16.92 99.90
31527 2020-09-03 20:35:51 Terrasse 16.70 17.03 99.90
31526 2020-09-03 20:05:15 Terrasse 16.70 17.03 99.90
31525 2020-09-03 19:36:57 Terrasse 16.80 17.14 99.90
31524 2020-09-03 19:08:39 Terrasse 16.90 17.25 99.90
31523 2020-09-03 18:40:24 Terrasse 17.30 17.69 99.90
31522 2020-09-03 18:12:08 Terrasse 17.90 18.35 99.90
31521 2020-09-03 17:43:51 Terrasse 18.00 18.46 99.90
31520 2020-09-03 17:15:35 Terrasse 18.30 18.79 99.90
31519 2020-09-03 16:47:19 Terrasse 18.60 18.98 94.50
31518 2020-09-03 16:19:05 Terrasse 19.00 19.30 89.90
31517 2020-09-03 15:50:49 Terrasse 19.40 19.79 91.60
31516 2020-09-03 15:22:31 Terrasse 19.50 19.87 90.60
31515 2020-09-03 14:54:10 Terrasse 19.30 19.71 92.90
31514 2020-09-03 14:25:52 Terrasse 19.20 19.62 93.70
31513 2020-09-03 13:57:37 Terrasse 19.20 19.61 93.30
31512 2020-09-03 13:29:21 Terrasse 19.30 19.55 86.60
31511 2020-09-03 13:00:58 Terrasse 18.60 18.91 91.90
31510 2020-09-03 12:32:40 Terrasse 18.60 18.88 90.60
31509 2020-09-03 12:04:21 Terrasse 18.20 18.44 90.50
31508 2020-09-03 11:36:00 Terrasse 18.00 18.46 99.90
31507 2020-09-03 11:07:37 Terrasse 17.30 17.69 99.90
31506 2020-09-03 10:39:13 Terrasse 16.70 17.03 99.90
31505 2020-09-03 10:10:51 Terrasse 16.00 16.26 99.90
31504 2020-09-03 09:42:24 Terrasse 15.00 15.16 99.90
31503 2020-09-03 09:14:03 Terrasse 14.50 14.61 99.90
31502 2020-09-03 08:45:43 Terrasse 14.20 14.28 99.90
31501 2020-09-03 08:17:22 Terrasse 13.70 13.73 99.90
31500 2020-09-03 07:49:01 Terrasse 13.40 13.40 99.90
31499 2020-09-03 07:20:41 Terrasse 13.10 13.07 99.90
31498 2020-09-03 06:52:23 Terrasse 13.00 12.96 99.90
31497 2020-09-03 06:24:06 Terrasse 12.90 12.85 99.90
31496 2020-09-03 05:55:51 Terrasse 13.10 13.07 99.90
31495 2020-09-03 05:27:33 Terrasse 13.20 13.18 99.90
31494 2020-09-03 04:59:17 Terrasse 13.30 13.29 99.90
31493 2020-09-03 04:31:03 Terrasse 13.60 13.62 99.90
31492 2020-09-03 04:03:15 Terrasse 13.70 13.73 99.90
31491 2020-09-03 03:34:30 Terrasse 13.90 13.95 99.90
31490 2020-09-03 03:06:14 Terrasse 14.10 14.10 97.20
31489 2020-09-03 02:37:57 Terrasse 14.20 14.16 95.30
31488 2020-09-03 02:09:40 Terrasse 14.40 14.33 93.40
31487 2020-09-03 01:41:25 Terrasse 14.70 14.53 88.40
31486 2020-09-03 01:13:09 Terrasse 14.90 14.68 85.70
31485 2020-09-03 00:44:52 Terrasse 15.20 14.89 81.00
31484 2020-09-03 00:16:35 Terrasse 15.50 15.13 77.70
31483 2020-09-02 23:48:17 Terrasse 15.50 15.24 81.80
31482 2020-09-02 23:20:01 Terrasse 15.40 15.11 80.80
31481 2020-09-02 22:51:45 Terrasse 15.70 15.21 72.00
31480 2020-09-02 22:23:28 Terrasse 16.10 15.63 71.50
31479 2020-09-02 21:55:13 Terrasse 16.40 16.00 72.90
31478 2020-09-02 21:26:58 Terrasse 16.70 16.34 73.30
31477 2020-09-02 20:58:43 Terrasse 17.20 16.87 72.40
31476 2020-09-02 20:30:28 Terrasse 17.60 17.43 77.20
31475 2020-09-02 20:02:13 Terrasse 18.10 17.95 76.10
31474 2020-09-02 19:34:00 Terrasse 18.90 18.70 71.00
31473 2020-09-02 19:05:44 Terrasse 19.20 18.84 63.90
31472 2020-09-02 18:37:30 Terrasse 19.70 19.40 64.10
31471 2020-09-02 18:09:13 Terrasse 20.00 19.60 59.20
31470 2020-09-02 17:41:00 Terrasse 20.70 20.29 56.10
31469 2020-09-02 17:12:47 Terrasse 21.60 21.31 57.10
31468 2020-09-02 16:44:28 Terrasse 21.50 21.24 58.70
31467 2020-09-02 16:16:01 Terrasse 20.70 20.48 63.20
31466 2020-09-02 15:47:37 Terrasse 19.60 19.37 67.10
31465 2020-09-02 15:19:19 Terrasse 19.60 19.26 63.10
31464 2020-09-02 14:51:00 Terrasse 19.50 19.26 67.20
31463 2020-09-02 14:22:47 Terrasse 20.30 20.24 71.10
31462 2020-09-02 13:54:44 Terrasse 21.90 21.72 60.20
31461 2020-09-02 13:26:31 Terrasse 22.60 22.50 60.60
31460 2020-09-02 12:57:35 Terrasse 19.20 19.05 71.90
31459 2020-09-02 12:29:25 Terrasse 20.40 20.40 72.80
31458 2020-09-02 12:01:04 Terrasse 18.80 19.09 90.20
31457 2020-09-02 11:32:45 Terrasse 18.00 18.37 96.20
31456 2020-09-02 11:04:21 Terrasse 18.00 18.36 95.90
31455 2020-09-02 10:36:00 Terrasse 17.00 17.36 99.90
31454 2020-09-02 10:07:35 Terrasse 16.00 16.26 99.90
31453 2020-09-02 09:39:15 Terrasse 15.40 15.60 99.90
31452 2020-09-02 09:10:50 Terrasse 14.40 14.50 99.90
31451 2020-09-02 08:42:30 Terrasse 13.90 13.95 99.90
31450 2020-09-02 08:14:09 Terrasse 13.40 13.40 99.90
31449 2020-09-02 07:45:51 Terrasse 13.20 13.18 99.90
31448 2020-09-02 07:17:32 Terrasse 13.00 12.96 99.90
31447 2020-09-02 06:49:14 Terrasse 13.00 12.96 99.90
31446 2020-09-02 06:20:57 Terrasse 13.10 13.07 99.90
31445 2020-09-02 05:52:41 Terrasse 13.30 13.29 99.90
31444 2020-09-02 05:24:24 Terrasse 13.50 13.51 99.90
31443 2020-09-02 04:56:08 Terrasse 13.80 13.84 99.90
31442 2020-09-02 04:27:52 Terrasse 14.10 14.17 99.90
31441 2020-09-02 03:59:36 Terrasse 14.40 14.50 99.90
31440 2020-09-02 03:31:21 Terrasse 14.60 14.72 99.90
31439 2020-09-02 03:03:05 Terrasse 15.00 15.16 99.90
31438 2020-09-02 02:34:52 Terrasse 15.30 15.49 99.90
31437 2020-09-02 02:06:35 Terrasse 15.60 15.82 99.90
31436 2020-09-02 01:38:18 Terrasse 16.00 16.26 99.90
31435 2020-09-02 01:10:00 Terrasse 16.20 16.48 99.90
31434 2020-09-02 00:41:43 Terrasse 16.40 16.70 99.90
31433 2020-09-02 00:13:25 Terrasse 16.40 16.70 99.90
31432 2020-09-01 23:45:07 Terrasse 16.60 16.82 96.10
31431 2020-09-01 23:16:50 Terrasse 16.80 16.72 83.60
31430 2020-09-01 22:48:32 Terrasse 16.90 16.64 76.40
31429 2020-09-01 22:20:14 Terrasse 16.90 16.59 74.30
31428 2020-09-01 21:51:57 Terrasse 17.20 16.77 68.90
31427 2020-09-01 21:23:40 Terrasse 17.40 16.94 66.80
31426 2020-09-01 20:55:23 Terrasse 17.70 17.25 66.10
31425 2020-09-01 20:27:08 Terrasse 18.10 17.67 65.30
31424 2020-09-01 19:58:51 Terrasse 18.40 18.06 67.50
31423 2020-09-01 19:30:39 Terrasse 19.30 19.01 65.90
31422 2020-09-01 19:02:22 Terrasse 19.90 19.47 58.50
31421 2020-09-01 18:34:06 Terrasse 20.40 19.94 55.40
31420 2020-09-01 18:05:49 Terrasse 21.00 20.59 55.00
31419 2020-09-01 17:37:36 Terrasse 21.80 21.47 55.00
31418 2020-09-01 17:09:14 Terrasse 21.40 21.12 58.40
31417 2020-09-01 16:40:58 Terrasse 21.90 21.69 59.00
31416 2020-09-01 16:12:47 Terrasse 22.60 22.41 57.40
31415 2020-09-01 15:44:39 Terrasse 23.60 23.50 56.70
31414 2020-09-01 15:16:16 Terrasse 23.50 23.41 57.60
31413 2020-09-01 14:47:52 Terrasse 22.80 22.63 57.10
31412 2020-09-01 14:19:32 Terrasse 22.70 22.58 59.40
31411 2020-09-01 13:51:00 Terrasse 21.20 21.22 70.60
31410 2020-09-01 13:23:01 Terrasse 22.30 22.38 68.70
31409 2020-09-01 12:54:29 Terrasse 20.60 20.63 73.40
31408 2020-09-01 12:26:09 Terrasse 20.10 20.32 82.70
31407 2020-09-01 11:58:00 Terrasse 20.80 21.17 85.70
31406 2020-09-01 11:29:25 Terrasse 19.30 19.89 99.90
31405 2020-09-01 11:01:06 Terrasse 18.70 19.23 99.90
31404 2020-09-01 10:32:37 Terrasse 17.40 17.80 99.90
31403 2020-09-01 10:04:14 Terrasse 16.50 16.81 99.90
31402 2020-09-01 09:35:55 Terrasse 16.10 16.37 99.90
31401 2020-09-01 09:07:31 Terrasse 15.20 15.38 99.90
31400 2020-09-01 08:39:12 Terrasse 14.60 14.72 99.90
31399 2020-09-01 08:10:50 Terrasse 14.30 14.39 99.90
31398 2020-09-01 07:42:33 Terrasse 14.10 14.17 99.90
31397 2020-09-01 07:14:16 Terrasse 13.90 13.95 99.90
31396 2020-09-01 06:45:59 Terrasse 14.00 14.06 99.90
31395 2020-09-01 06:17:44 Terrasse 14.20 14.28 99.90
31394 2020-09-01 05:49:25 Terrasse 14.40 14.50 99.90
31393 2020-09-01 05:21:09 Terrasse 14.40 14.50 99.90
31392 2020-09-01 04:52:51 Terrasse 14.40 14.50 99.90
31391 2020-09-01 04:24:33 Terrasse 14.40 14.50 99.90
31390 2020-09-01 03:56:17 Terrasse 14.50 14.61 99.90
31389 2020-09-01 03:28:00 Terrasse 14.50 14.61 99.90
31388 2020-09-01 02:59:42 Terrasse 14.50 14.61 99.90
31387 2020-09-01 02:31:27 Terrasse 14.60 14.72 99.90
31386 2020-09-01 02:03:10 Terrasse 14.80 14.94 99.90
31385 2020-09-01 01:34:53 Terrasse 14.90 15.05 99.90
31384 2020-09-01 01:06:35 Terrasse 15.00 15.16 99.90
31383 2020-09-01 00:38:20 Terrasse 15.00 15.16 99.90
31382 2020-09-01 00:10:02 Terrasse 14.90 15.05 99.90
31381 2020-08-31 23:41:45 Terrasse 15.00 15.16 99.90
31380 2020-08-31 23:13:28 Terrasse 15.20 15.38 99.90
31379 2020-08-31 22:45:11 Terrasse 15.30 15.49 99.90
31378 2020-08-31 22:16:54 Terrasse 15.50 15.71 99.90
31377 2020-08-31 21:48:37 Terrasse 15.60 15.82 99.90
31376 2020-08-31 21:20:20 Terrasse 15.70 15.93 99.90
31375 2020-08-31 20:52:03 Terrasse 15.80 16.04 99.90
31374 2020-08-31 20:23:47 Terrasse 16.00 16.26 99.90
31373 2020-08-31 19:55:32 Terrasse 16.20 16.48 99.90
31372 2020-08-31 19:27:16 Terrasse 16.60 16.92 99.90
31371 2020-08-31 18:58:59 Terrasse 16.80 17.14 99.90
31370 2020-08-31 18:30:44 Terrasse 17.10 17.47 99.90
31369 2020-08-31 18:02:26 Terrasse 17.20 17.58 99.90
31368 2020-08-31 17:34:08 Terrasse 17.00 17.36 99.90
31367 2020-08-31 17:05:52 Terrasse 17.20 17.58 99.90
31366 2020-08-31 16:37:39 Terrasse 17.70 18.13 99.90
31365 2020-08-31 16:09:27 Terrasse 18.40 18.90 99.90
31364 2020-08-31 15:41:17 Terrasse 19.70 20.33 99.90
31363 2020-08-31 15:12:58 Terrasse 19.40 20.00 99.90
31362 2020-08-31 14:44:46 Terrasse 20.10 20.77 99.90
31361 2020-08-31 14:16:26 Terrasse 19.70 20.33 99.90
31360 2020-08-31 13:48:01 Terrasse 18.80 19.34 99.90
31359 2020-08-31 13:19:39 Terrasse 18.00 18.46 99.90
31358 2020-08-31 12:51:16 Terrasse 17.10 17.47 99.90
31357 2020-08-31 12:22:59 Terrasse 17.00 17.36 99.90
31356 2020-08-31 11:54:37 Terrasse 16.50 16.81 99.90
31355 2020-08-31 11:26:26 Terrasse 17.20 17.58 99.90
31354 2020-08-31 10:58:02 Terrasse 16.50 16.81 99.90
31353 2020-08-31 10:29:43 Terrasse 16.40 16.70 99.90
31352 2020-08-31 10:01:20 Terrasse 15.90 16.15 99.90
31351 2020-08-31 09:32:58 Terrasse 15.30 15.49 99.90
31350 2020-08-31 09:04:42 Terrasse 15.10 15.27 99.90
31349 2020-08-31 08:36:23 Terrasse 15.00 15.16 99.90
31348 2020-08-31 08:08:04 Terrasse 14.90 15.05 99.90
31347 2020-08-31 07:39:47 Terrasse 14.80 14.94 99.90
31346 2020-08-31 07:11:30 Terrasse 14.80 14.94 99.90
31345 2020-08-31 06:43:12 Terrasse 14.80 14.94 99.90
31344 2020-08-31 06:14:56 Terrasse 14.80 14.94 99.90
31343 2020-08-31 05:46:39 Terrasse 14.90 15.05 99.90
31342 2020-08-31 05:18:23 Terrasse 14.90 15.05 99.90
31341 2020-08-31 04:50:06 Terrasse 15.10 15.27 99.90
31340 2020-08-31 04:21:48 Terrasse 15.10 15.27 99.90
31339 2020-08-31 03:53:30 Terrasse 15.00 15.16 99.90
31338 2020-08-31 03:25:14 Terrasse 15.10 15.27 99.90
31337 2020-08-31 02:56:57 Terrasse 15.10 15.27 99.90
31336 2020-08-31 02:28:40 Terrasse 15.20 15.38 99.90
31335 2020-08-31 02:00:23 Terrasse 15.20 15.38 99.90
31334 2020-08-31 01:32:04 Terrasse 15.30 15.49 99.90
31333 2020-08-31 01:03:45 Terrasse 15.30 15.49 99.90
31332 2020-08-31 00:35:26 Terrasse 15.30 15.49 99.90
31331 2020-08-31 00:07:09 Terrasse 15.40 15.60 99.90
31330 2020-08-30 23:38:51 Terrasse 15.40 15.60 99.90
31329 2020-08-30 23:10:33 Terrasse 15.50 15.71 99.90
31328 2020-08-30 22:42:17 Terrasse 15.60 15.82 99.90
31327 2020-08-30 22:14:00 Terrasse 15.90 16.15 99.90
31326 2020-08-30 21:45:43 Terrasse 16.20 16.48 99.90
31325 2020-08-30 21:17:28 Terrasse 16.50 16.81 99.90
31324 2020-08-30 20:49:11 Terrasse 16.80 17.14 99.90
31323 2020-08-30 20:20:56 Terrasse 17.30 17.69 99.90
31322 2020-08-30 19:53:00 Terrasse 17.60 17.99 98.70
31321 2020-08-30 19:24:37 Terrasse 17.90 18.35 99.90
31320 2020-08-30 18:56:19 Terrasse 18.10 18.14 83.10
31319 2020-08-30 18:28:05 Terrasse 18.50 18.58 83.10
31318 2020-08-30 17:59:53 Terrasse 19.40 19.76 90.60
31317 2020-08-30 17:31:37 Terrasse 19.50 19.75 85.90
31316 2020-08-30 17:03:22 Terrasse 19.70 20.03 88.10
31315 2020-08-30 16:35:04 Terrasse 20.00 20.47 92.30
31314 2020-08-30 16:06:46 Terrasse 19.80 20.17 89.40
31313 2020-08-30 15:38:29 Terrasse 19.80 20.20 90.70
31312 2020-08-30 15:10:10 Terrasse 19.80 20.23 91.80
31311 2020-08-30 14:41:52 Terrasse 19.70 20.33 99.90
31310 2020-08-30 14:13:32 Terrasse 19.40 20.00 99.90
31309 2020-08-30 13:45:15 Terrasse 19.40 20.00 99.90
31308 2020-08-30 13:16:55 Terrasse 19.00 19.56 99.90
31307 2020-08-30 12:48:36 Terrasse 18.80 19.34 99.90
31306 2020-08-30 12:20:16 Terrasse 18.50 19.01 99.90
31305 2020-08-30 11:51:55 Terrasse 18.10 18.57 99.90
31304 2020-08-30 11:23:39 Terrasse 18.10 18.57 99.90
31303 2020-08-30 10:55:16 Terrasse 17.60 18.02 99.90
31302 2020-08-30 10:26:53 Terrasse 16.80 17.14 99.90
31301 2020-08-30 09:58:31 Terrasse 15.90 16.15 99.90
31300 2020-08-30 09:30:14 Terrasse 15.90 16.15 99.90
31299 2020-08-30 09:01:53 Terrasse 15.50 15.71 99.90
31298 2020-08-30 08:33:43 Terrasse 15.10 15.27 99.90
31297 2020-08-30 08:05:22 Terrasse 14.90 15.05 99.90
31296 2020-08-30 07:37:04 Terrasse 14.70 14.83 99.90
31295 2020-08-30 07:08:46 Terrasse 14.70 14.83 99.90
31294 2020-08-30 06:40:29 Terrasse 14.70 14.83 99.90
31293 2020-08-30 06:12:12 Terrasse 14.80 14.94 99.90
31292 2020-08-30 05:43:56 Terrasse 15.00 15.16 99.90
31291 2020-08-30 05:15:38 Terrasse 15.00 15.16 99.90
31290 2020-08-30 04:47:21 Terrasse 15.00 15.16 99.90
31289 2020-08-30 04:19:05 Terrasse 15.20 15.38 99.90
31288 2020-08-30 03:50:48 Terrasse 15.20 15.38 99.90
31287 2020-08-30 03:22:33 Terrasse 15.40 15.60 99.90
31286 2020-08-30 02:54:17 Terrasse 15.70 15.93 99.90
31285 2020-08-30 02:26:00 Terrasse 15.70 15.93 99.90
31284 2020-08-30 01:57:44 Terrasse 15.70 15.93 99.90
31283 2020-08-30 01:29:28 Terrasse 15.70 15.93 99.90
31282 2020-08-30 01:01:12 Terrasse 15.90 16.15 99.90
31281 2020-08-30 00:32:55 Terrasse 16.10 16.37 99.90
31280 2020-08-30 00:04:38 Terrasse 16.20 16.48 99.90
31279 2020-08-29 23:36:22 Terrasse 16.40 16.70 99.90
31278 2020-08-29 23:08:06 Terrasse 16.70 17.03 99.90
31277 2020-08-29 22:39:49 Terrasse 16.90 17.25 99.90
31276 2020-08-29 22:11:32 Terrasse 17.20 17.58 99.90
31275 2020-08-29 21:43:19 Terrasse 17.70 18.13 99.90
31274 2020-08-29 21:15:02 Terrasse 18.00 18.41 97.70
31273 2020-08-29 20:46:47 Terrasse 18.40 18.90 99.90
31272 2020-08-29 20:18:33 Terrasse 19.00 19.29 89.40
31271 2020-08-29 19:50:16 Terrasse 19.40 19.39 76.20
31270 2020-08-29 19:21:58 Terrasse 19.60 19.44 69.70
31269 2020-08-29 18:53:40 Terrasse 19.90 19.77 69.80
31268 2020-08-29 18:25:23 Terrasse 20.10 20.03 71.40
31267 2020-08-29 17:57:06 Terrasse 20.50 20.49 72.00
31266 2020-08-29 17:28:47 Terrasse 20.30 20.26 71.80
31265 2020-08-29 17:00:31 Terrasse 20.70 20.60 68.00
31264 2020-08-29 16:32:13 Terrasse 20.80 20.71 68.10
31263 2020-08-29 15:05:32 Terrasse 20.50 20.65 78.40
31262 2020-08-29 14:37:08 Terrasse 19.80 20.24 92.00
31261 2020-08-29 14:08:45 Terrasse 19.20 19.78 99.80
31260 2020-08-29 13:40:24 Terrasse 18.40 18.90 99.90
31259 2020-08-29 13:12:08 Terrasse 18.50 19.01 99.90
31258 2020-08-29 12:43:43 Terrasse 17.70 18.13 99.90
31257 2020-08-29 12:15:24 Terrasse 17.40 17.80 99.90
31256 2020-08-29 11:47:03 Terrasse 17.10 17.47 99.90
31255 2020-08-29 11:18:41 Terrasse 16.50 16.81 99.90
31254 2020-08-29 10:50:21 Terrasse 15.90 16.15 99.90
31253 2020-08-29 10:22:01 Terrasse 15.60 15.82 99.90
31252 2020-08-29 09:53:40 Terrasse 15.20 15.38 99.90
31251 2020-08-29 09:25:22 Terrasse 15.00 15.16 99.90
31250 2020-08-29 08:57:04 Terrasse 14.80 14.94 99.90
31249 2020-08-29 08:28:45 Terrasse 14.50 14.61 99.90
31248 2020-08-29 08:00:28 Terrasse 14.40 14.50 99.90
31247 2020-08-29 07:32:11 Terrasse 14.40 14.50 99.90
31246 2020-08-29 07:03:54 Terrasse 14.30 14.39 99.90
31245 2020-08-29 06:35:38 Terrasse 14.30 14.39 99.90
31244 2020-08-29 06:07:22 Terrasse 14.40 14.50 99.90
31243 2020-08-29 05:39:05 Terrasse 14.60 14.72 99.90
31242 2020-08-29 05:10:49 Terrasse 14.70 14.83 99.90
31241 2020-08-29 04:42:33 Terrasse 14.90 15.05 99.90
31240 2020-08-29 04:14:16 Terrasse 15.00 15.16 99.90
31239 2020-08-29 03:46:00 Terrasse 15.30 15.49 99.90
31238 2020-08-29 03:17:44 Terrasse 15.40 15.60 99.90
31237 2020-08-29 02:49:38 Terrasse 15.70 15.93 99.90
31236 2020-08-29 02:21:19 Terrasse 15.90 16.15 99.90
31235 2020-08-29 01:53:03 Terrasse 15.90 16.15 99.90
31234 2020-08-29 01:24:46 Terrasse 16.00 16.26 99.90
31233 2020-08-29 00:56:31 Terrasse 16.30 16.52 96.90
31232 2020-08-29 00:28:16 Terrasse 16.60 16.58 86.80
31231 2020-08-29 00:00:01 Terrasse 16.90 16.60 74.90
31230 2020-08-28 23:31:47 Terrasse 17.40 17.04 70.60
31229 2020-08-28 23:03:30 Terrasse 17.80 17.40 67.40
31228 2020-08-28 22:35:13 Terrasse 18.00 17.57 65.50
31227 2020-08-28 22:06:55 Terrasse 18.30 17.84 63.30
31226 2020-08-28 21:38:38 Terrasse 18.50 18.09 64.50
31225 2020-08-28 21:10:21 Terrasse 18.70 18.29 63.90
31224 2020-08-28 20:42:06 Terrasse 19.30 18.82 58.70
31223 2020-08-28 20:13:50 Terrasse 19.80 19.35 57.90
31222 2020-08-28 19:45:35 Terrasse 20.30 19.88 57.10
31221 2020-08-28 19:17:23 Terrasse 20.70 20.31 56.80
31220 2020-08-28 18:50:30 Terrasse 21.10 20.73 56.20
31219 2020-08-28 18:20:31 Terrasse 21.40 21.10 57.50
31218 2020-08-28 17:52:11 Terrasse 21.40 21.09 57.40
31217 2020-08-28 17:23:55 Terrasse 21.80 21.63 61.20
31216 2020-08-28 16:55:38 Terrasse 22.20 22.11 62.50
31215 2020-08-28 16:27:21 Terrasse 22.40 22.51 69.40
31214 2020-08-28 15:59:04 Terrasse 22.70 22.68 63.40
31213 2020-08-28 15:30:47 Terrasse 23.10 23.10 62.70
31212 2020-08-28 15:02:30 Terrasse 23.50 23.53 62.30
31211 2020-08-28 14:34:12 Terrasse 23.30 23.33 63.00
31210 2020-08-28 14:05:55 Terrasse 23.40 23.45 63.30
31209 2020-08-28 13:37:40 Terrasse 23.60 23.67 63.30
31208 2020-08-28 13:09:04 Terrasse 22.70 22.99 75.20
31207 2020-08-28 12:40:27 Terrasse 21.20 21.98 99.90
31206 2020-08-28 12:12:12 Terrasse 20.50 21.21 99.90
31205 2020-08-28 11:43:49 Terrasse 19.40 20.00 99.90
31204 2020-08-28 11:15:26 Terrasse 19.00 19.56 99.90
31203 2020-08-28 10:47:14 Terrasse 18.60 19.12 99.90
31202 2020-08-28 10:18:51 Terrasse 18.40 18.90 99.90
31201 2020-08-28 09:50:31 Terrasse 18.10 18.57 99.90
31200 2020-08-28 09:23:15 Terrasse 17.90 18.35 99.90
31199 2020-08-28 08:41:12 Terrasse 17.00 17.36 99.90
31198 2020-08-28 08:12:52 Terrasse 16.50 16.81 99.90
31197 2020-08-28 07:44:34 Terrasse 16.40 16.70 99.90
31196 2020-08-28 07:16:15 Terrasse 16.30 16.59 99.90
31195 2020-08-28 06:48:08 Terrasse 16.40 16.70 99.90
31194 2020-08-28 06:19:49 Terrasse 16.60 16.92 99.90
31193 2020-08-28 05:51:32 Terrasse 16.80 17.14 99.90
31192 2020-08-28 05:23:15 Terrasse 16.90 17.25 99.90
31191 2020-08-28 04:54:59 Terrasse 17.20 17.58 99.90
31190 2020-08-28 04:26:44 Terrasse 17.50 17.91 99.90
31189 2020-08-28 03:58:28 Terrasse 17.60 18.02 99.90
31188 2020-08-28 03:30:11 Terrasse 17.80 18.24 99.90
31187 2020-08-28 03:01:54 Terrasse 17.90 18.35 99.90
31186 2020-08-28 02:33:38 Terrasse 18.00 18.28 92.70
31185 2020-08-28 02:05:21 Terrasse 18.10 18.36 91.70
31184 2020-08-28 01:37:03 Terrasse 18.10 18.31 89.70
31183 2020-08-28 01:08:46 Terrasse 18.20 18.41 89.40
31182 2020-08-28 00:40:28 Terrasse 18.30 18.25 79.00
31181 2020-08-28 00:12:12 Terrasse 18.30 18.18 76.30
31180 2020-08-27 23:43:55 Terrasse 18.40 18.20 72.80
31179 2020-08-27 23:15:38 Terrasse 18.60 18.33 69.60
31178 2020-08-27 22:47:21 Terrasse 18.80 18.50 67.60
31177 2020-08-27 22:19:05 Terrasse 19.00 18.68 66.00
31176 2020-08-27 21:50:49 Terrasse 19.20 18.90 66.10
31175 2020-08-27 21:22:33 Terrasse 19.50 19.17 63.70
31174 2020-08-27 20:54:19 Terrasse 19.90 19.56 61.90
31173 2020-08-27 20:26:05 Terrasse 20.50 20.17 59.80
31172 2020-08-27 19:57:50 Terrasse 21.00 20.63 56.60
31171 2020-08-27 19:29:35 Terrasse 21.40 21.09 57.10
31170 2020-08-27 19:01:21 Terrasse 21.70 21.35 54.60
31169 2020-08-27 18:33:08 Terrasse 22.20 21.92 55.20
31168 2020-08-27 18:04:53 Terrasse 22.60 22.34 54.60
31167 2020-08-27 17:36:38 Terrasse 23.00 22.77 54.00
31166 2020-08-27 17:08:22 Terrasse 23.20 23.02 55.30
31165 2020-08-27 16:40:04 Terrasse 23.30 23.10 54.00
31164 2020-08-27 16:11:45 Terrasse 23.40 23.25 55.80
31163 2020-08-27 15:43:24 Terrasse 22.90 22.70 55.70
31162 2020-08-27 15:15:04 Terrasse 22.60 22.46 59.10
31161 2020-08-27 14:46:44 Terrasse 22.20 22.08 61.60
31160 2020-08-27 14:18:12 Terrasse 21.10 21.06 68.70
31159 2020-08-27 13:49:52 Terrasse 21.10 21.19 73.80
31158 2020-08-27 13:21:30 Terrasse 20.00 20.25 84.00
31157 2020-08-27 12:53:14 Terrasse 20.10 20.35 83.50
31156 2020-08-27 12:24:54 Terrasse 19.70 20.17 93.50
31155 2020-08-27 11:56:40 Terrasse 19.70 20.33 99.90
31154 2020-08-27 11:28:11 Terrasse 19.30 19.89 99.90
31153 2020-08-27 10:59:47 Terrasse 18.20 18.68 99.90
31152 2020-08-27 10:31:29 Terrasse 18.00 18.46 99.90
31151 2020-08-27 10:03:10 Terrasse 17.60 18.02 99.90
31150 2020-08-27 09:34:48 Terrasse 17.00 17.36 99.90
31149 2020-08-27 09:06:23 Terrasse 16.10 16.37 99.90
31148 2020-08-27 08:38:01 Terrasse 15.40 15.60 99.90
31147 2020-08-27 08:09:43 Terrasse 15.00 15.16 99.90
31146 2020-08-27 07:41:25 Terrasse 14.90 15.05 99.90
31145 2020-08-27 07:13:08 Terrasse 15.00 15.16 99.90
31144 2020-08-27 06:44:52 Terrasse 15.10 15.27 99.90
31143 2020-08-27 06:16:37 Terrasse 15.30 15.49 99.90
31142 2020-08-27 05:48:21 Terrasse 15.50 15.71 99.90
31141 2020-08-27 05:20:20 Terrasse 15.80 16.04 99.90
31140 2020-08-27 04:51:59 Terrasse 16.00 16.26 99.90
31139 2020-08-27 04:23:54 Terrasse 16.20 16.48 99.90
31138 2020-08-27 03:55:54 Terrasse 16.30 16.59 99.90
31137 2020-08-27 03:27:38 Terrasse 16.30 16.59 99.90
31136 2020-08-27 02:59:10 Terrasse 16.50 16.81 99.90
31135 2020-08-27 02:31:31 Terrasse 16.80 17.14 99.90
31134 2020-08-27 02:00:28 Terrasse 17.00 17.16 92.20
31133 2020-08-27 01:32:19 Terrasse 17.30 17.38 87.70
31132 2020-08-27 01:01:20 Terrasse 17.50 17.45 82.00
31131 2020-08-27 00:33:10 Terrasse 17.60 17.45 78.00
31130 2020-08-27 00:05:07 Terrasse 17.80 17.59 75.00
31129 2020-08-26 23:36:55 Terrasse 18.10 17.87 72.90
31128 2020-08-26 23:08:21 Terrasse 18.40 18.14 70.80
31127 2020-08-26 22:40:04 Terrasse 18.50 18.21 69.30
31126 2020-08-26 22:11:45 Terrasse 18.70 18.40 68.00
31125 2020-08-26 21:43:29 Terrasse 18.80 18.52 68.30
31124 2020-08-26 21:15:14 Terrasse 19.20 18.95 67.90
31123 2020-08-26 20:46:57 Terrasse 19.50 19.19 64.70
31122 2020-08-26 20:18:40 Terrasse 19.60 19.26 62.90
31121 2020-08-26 19:50:23 Terrasse 19.90 19.57 62.40
31120 2020-08-26 19:22:08 Terrasse 20.10 19.75 60.50
31119 2020-08-26 18:53:49 Terrasse 20.20 19.87 61.00
31118 2020-08-26 18:25:33 Terrasse 20.30 19.93 59.30
31117 2020-08-26 17:57:16 Terrasse 20.30 19.95 60.00
31116 2020-08-26 17:28:59 Terrasse 20.50 20.22 62.00
31115 2020-08-26 17:00:38 Terrasse 20.10 19.80 62.50
31114 2020-08-26 16:32:21 Terrasse 20.10 19.81 62.80
31113 2020-08-26 16:04:04 Terrasse 20.20 19.89 61.80
31112 2020-08-26 15:35:47 Terrasse 20.10 19.86 64.80
31111 2020-08-26 15:07:27 Terrasse 19.80 19.57 66.60
31110 2020-08-26 14:39:11 Terrasse 19.70 19.47 66.80
31109 2020-08-26 14:10:50 Terrasse 19.20 18.99 69.60
31108 2020-08-26 13:42:32 Terrasse 19.00 18.81 70.90
31107 2020-08-26 13:14:15 Terrasse 18.60 18.39 71.80
31106 2020-08-26 12:45:57 Terrasse 18.50 18.29 72.00
31105 2020-08-26 12:17:40 Terrasse 18.50 18.29 72.20
31104 2020-08-26 11:49:24 Terrasse 18.60 18.31 68.70
31103 2020-08-26 11:21:06 Terrasse 18.60 18.29 67.90
31102 2020-08-26 10:52:48 Terrasse 18.40 18.09 68.60
31101 2020-08-26 10:24:31 Terrasse 18.30 17.99 69.00
31100 2020-08-26 09:56:12 Terrasse 18.20 17.87 68.90
31099 2020-08-26 09:27:55 Terrasse 18.20 17.90 69.80
31098 2020-08-26 08:59:38 Terrasse 18.20 18.28 84.50
31097 2020-08-26 08:31:21 Terrasse 18.40 18.40 80.70
31096 2020-08-26 08:03:01 Terrasse 17.90 17.74 76.50
31095 2020-08-26 07:34:44 Terrasse 17.90 17.72 75.50
31094 2020-08-26 07:06:28 Terrasse 18.00 17.87 77.20
31093 2020-08-26 06:38:12 Terrasse 18.20 18.18 80.70
31092 2020-08-26 06:09:56 Terrasse 18.40 18.66 90.60
31091 2020-08-26 05:41:39 Terrasse 18.50 19.01 99.90
31090 2020-08-26 05:13:22 Terrasse 18.70 19.23 99.90
31089 2020-08-26 04:45:06 Terrasse 18.80 19.34 99.90
31088 2020-08-26 04:16:47 Terrasse 18.80 19.34 99.90
31087 2020-08-26 03:48:29 Terrasse 18.50 18.61 84.50
31086 2020-08-26 03:20:09 Terrasse 18.40 18.33 77.80
31085 2020-08-26 02:51:50 Terrasse 18.30 18.16 75.50
31084 2020-08-26 02:23:33 Terrasse 18.40 18.29 76.40
31083 2020-08-26 01:55:13 Terrasse 18.30 18.23 78.40
31082 2020-08-26 01:26:56 Terrasse 18.00 18.04 83.60
31081 2020-08-26 00:58:38 Terrasse 18.00 18.23 91.10
31080 2020-08-26 00:30:20 Terrasse 18.10 18.37 92.20
31079 2020-08-26 00:02:04 Terrasse 18.20 18.59 96.40
31078 2020-08-25 23:33:47 Terrasse 18.30 18.79 99.90
31077 2020-08-25 23:05:31 Terrasse 18.60 19.12 99.80
31076 2020-08-25 22:37:16 Terrasse 18.90 19.40 97.90
31075 2020-08-25 22:08:59 Terrasse 19.00 19.51 97.70
31074 2020-08-25 21:40:42 Terrasse 19.10 19.55 95.10
31073 2020-08-25 21:12:25 Terrasse 19.40 19.80 92.20
31072 2020-08-25 20:44:11 Terrasse 19.90 20.12 83.10
31071 2020-08-25 20:15:54 Terrasse 20.00 20.08 77.60
31070 2020-08-25 19:47:39 Terrasse 20.70 20.68 70.90
31069 2020-08-25 19:19:21 Terrasse 21.00 21.01 71.10
31068 2020-08-25 18:51:00 Terrasse 20.80 20.76 70.00
31067 2020-08-25 18:22:43 Terrasse 20.80 20.82 72.10
31066 2020-08-25 17:54:26 Terrasse 21.00 21.03 71.80
31065 2020-08-25 17:26:13 Terrasse 21.40 21.54 74.50
31064 2020-08-25 16:57:54 Terrasse 21.50 21.79 79.90
31063 2020-08-25 16:29:40 Terrasse 21.50 21.45 66.80
31062 2020-08-25 16:01:25 Terrasse 22.10 22.08 65.60
31061 2020-08-25 15:33:06 Terrasse 21.80 21.75 65.60
31060 2020-08-25 15:04:51 Terrasse 21.80 21.74 65.30
31059 2020-08-25 14:36:44 Terrasse 21.90 21.86 65.50
31058 2020-08-25 14:08:18 Terrasse 21.70 21.71 68.30
31057 2020-08-25 13:39:52 Terrasse 20.60 20.45 66.30
31056 2020-08-25 13:11:37 Terrasse 20.80 20.67 66.60
31055 2020-08-25 12:43:22 Terrasse 21.40 21.34 66.80
31054 2020-08-25 12:15:02 Terrasse 20.90 20.87 69.70
31053 2020-08-25 11:46:58 Terrasse 21.60 21.63 69.60
31052 2020-08-25 11:18:12 Terrasse 19.30 19.71 92.80
31051 2020-08-25 10:49:52 Terrasse 18.90 19.45 99.80
31050 2020-08-25 10:21:32 Terrasse 18.40 18.90 99.90
31049 2020-08-25 09:53:11 Terrasse 18.10 18.57 99.90
31048 2020-08-25 09:24:51 Terrasse 17.80 18.24 99.90
31047 2020-08-25 08:56:33 Terrasse 17.40 17.80 99.90
31046 2020-08-25 08:28:12 Terrasse 16.90 17.25 99.90
31045 2020-08-25 07:59:49 Terrasse 16.10 16.37 99.90
31044 2020-08-25 07:31:30 Terrasse 15.80 16.04 99.90
31043 2020-08-25 07:03:12 Terrasse 15.80 16.04 99.90
31042 2020-08-25 06:34:55 Terrasse 16.10 16.37 99.90
31041 2020-08-25 06:06:40 Terrasse 16.50 16.81 99.90
31040 2020-08-25 05:38:23 Terrasse 16.60 16.92 99.90
31039 2020-08-25 05:10:06 Terrasse 16.70 17.03 99.90
31038 2020-08-25 04:41:49 Terrasse 16.80 17.14 99.90
31037 2020-08-25 04:13:32 Terrasse 16.80 17.14 99.90
31036 2020-08-25 03:45:14 Terrasse 16.90 17.25 99.90
31035 2020-08-25 03:16:58 Terrasse 17.00 17.36 99.90
31034 2020-08-25 02:06:41 Terrasse 17.80 17.99 90.20
31033 2020-08-25 01:12:02 Terrasse 17.90 17.80 78.70
31032 2020-08-25 00:31:09 Terrasse 18.00 17.80 74.60
31031 2020-08-24 23:04:13 Terrasse 18.40 18.07 67.80
31030 2020-08-24 22:21:54 Terrasse 18.10 17.68 65.60
31029 2020-08-24 21:53:39 Terrasse 18.20 17.79 65.70
31028 2020-08-24 21:25:25 Terrasse 18.60 18.31 68.70
31027 2020-08-24 20:57:12 Terrasse 18.90 18.53 64.50
31026 2020-08-24 20:28:59 Terrasse 19.60 19.22 61.40
31025 2020-08-24 20:00:44 Terrasse 20.20 19.81 58.90
31024 2020-08-24 19:32:30 Terrasse 20.60 20.25 58.90
31023 2020-08-24 19:04:16 Terrasse 21.10 20.76 57.20
31022 2020-08-24 18:36:02 Terrasse 21.60 21.25 55.10
31021 2020-08-24 18:07:47 Terrasse 22.00 21.74 56.70
31020 2020-08-24 17:39:27 Terrasse 22.00 21.82 59.90
31019 2020-08-24 17:11:12 Terrasse 22.40 22.33 62.70
31018 2020-08-24 16:42:56 Terrasse 22.40 22.30 61.30
31017 2020-08-24 16:14:35 Terrasse 21.90 21.71 59.90
31016 2020-08-24 15:46:17 Terrasse 21.20 20.95 60.20
31015 2020-08-24 15:18:05 Terrasse 21.80 21.57 58.90
31014 2020-08-24 14:49:47 Terrasse 22.10 21.92 59.50
31013 2020-08-24 14:21:33 Terrasse 22.20 22.03 59.40
31012 2020-08-24 13:53:12 Terrasse 21.50 21.26 59.40
31011 2020-08-24 13:25:03 Terrasse 22.00 21.76 57.50
31010 2020-08-24 12:56:44 Terrasse 22.10 21.92 59.40
31009 2020-08-24 12:28:17 Terrasse 20.50 20.36 67.20
31008 2020-08-24 12:00:06 Terrasse 20.40 20.43 74.10
31007 2020-08-24 11:31:37 Terrasse 18.80 19.13 91.80
31006 2020-08-24 11:03:24 Terrasse 19.30 19.50 84.80
31005 2020-08-24 10:35:01 Terrasse 18.70 19.11 95.30
31004 2020-08-24 10:06:38 Terrasse 17.60 18.02 99.90
31003 2020-08-24 09:38:28 Terrasse 17.30 17.69 99.90
31002 2020-08-24 09:10:05 Terrasse 16.80 17.14 99.90
31001 2020-08-24 08:41:47 Terrasse 16.30 16.59 99.90
31000 2020-08-24 08:13:30 Terrasse 16.20 16.48 99.90
30999 2020-08-24 07:45:13 Terrasse 16.00 16.26 99.90
30998 2020-08-24 07:16:55 Terrasse 15.80 16.04 99.90
30997 2020-08-24 06:48:39 Terrasse 15.80 16.04 99.90
30996 2020-08-24 06:20:22 Terrasse 16.00 16.26 99.90
30995 2020-08-24 05:52:06 Terrasse 16.20 16.48 99.90
30994 2020-08-24 05:23:50 Terrasse 16.10 16.37 99.90
30993 2020-08-24 04:55:34 Terrasse 16.20 16.48 99.90
30992 2020-08-24 04:27:19 Terrasse 16.30 16.59 99.90
30991 2020-08-24 03:59:04 Terrasse 16.50 16.81 99.90
30990 2020-08-24 03:30:49 Terrasse 16.80 17.14 99.90
30989 2020-08-24 03:02:34 Terrasse 16.80 17.14 99.90
30988 2020-08-24 02:34:17 Terrasse 16.80 17.14 99.90
30987 2020-08-24 02:06:01 Terrasse 17.00 17.36 99.90
30986 2020-08-24 01:37:48 Terrasse 17.20 17.58 99.90
30985 2020-08-24 01:09:34 Terrasse 17.50 17.91 99.90
30984 2020-08-24 00:41:19 Terrasse 17.90 18.16 92.60
30983 2020-08-24 00:13:05 Terrasse 18.00 18.00 82.10
30982 2020-08-23 23:44:49 Terrasse 18.30 18.09 72.80
30981 2020-08-23 23:16:34 Terrasse 18.60 18.31 68.70
30980 2020-08-23 22:48:20 Terrasse 18.90 18.59 66.80
30979 2020-08-23 22:20:05 Terrasse 19.40 19.07 64.10
30978 2020-08-23 21:51:50 Terrasse 19.80 19.46 62.20
30977 2020-08-23 21:23:36 Terrasse 20.20 19.87 60.90
30976 2020-08-23 20:55:22 Terrasse 20.50 20.16 59.40
30975 2020-08-23 20:27:07 Terrasse 20.90 20.55 57.80
30974 2020-08-23 19:58:51 Terrasse 21.20 20.79 54.30
30973 2020-08-23 19:30:38 Terrasse 21.80 21.41 52.50
30972 2020-08-23 19:02:22 Terrasse 22.20 21.83 51.80
30971 2020-08-23 18:34:10 Terrasse 22.90 22.59 51.60
30970 2020-08-23 18:05:54 Terrasse 23.20 22.90 50.80
30969 2020-08-23 17:37:39 Terrasse 23.70 23.47 51.60
30968 2020-08-23 17:09:21 Terrasse 23.60 23.36 51.40
30967 2020-08-23 16:41:07 Terrasse 24.10 23.93 52.10
30966 2020-08-23 16:12:52 Terrasse 24.30 24.12 51.10
30965 2020-08-23 15:44:35 Terrasse 24.90 24.76 50.30
30964 2020-08-23 15:16:15 Terrasse 25.10 24.99 50.90
30963 2020-08-23 14:48:02 Terrasse 24.90 24.82 52.50
30962 2020-08-23 14:19:55 Terrasse 26.80 27.47 54.20
30961 2020-08-23 13:51:37 Terrasse 25.90 25.99 55.30
30960 2020-08-23 13:22:57 Terrasse 24.30 24.23 55.50
30959 2020-08-23 12:55:02 Terrasse 26.10 26.89 56.30
30958 2020-08-23 12:26:03 Terrasse 21.20 21.41 77.90
30957 2020-08-23 11:57:54 Terrasse 21.40 21.55 74.70
30956 2020-08-23 11:29:12 Terrasse 21.00 21.42 86.90
30955 2020-08-23 11:01:05 Terrasse 21.70 22.38 94.10
30954 2020-08-23 10:32:38 Terrasse 20.30 20.99 99.90
30953 2020-08-23 10:04:18 Terrasse 19.80 20.44 99.90
30952 2020-08-23 09:35:58 Terrasse 19.30 19.89 99.90
30951 2020-08-23 09:07:39 Terrasse 19.00 19.56 99.90
30950 2020-08-23 08:39:22 Terrasse 18.90 19.45 99.90
30949 2020-08-23 08:11:04 Terrasse 18.90 19.45 99.90
30948 2020-08-23 07:42:47 Terrasse 18.80 19.34 99.90
30947 2020-08-23 07:14:32 Terrasse 18.90 19.45 99.90
30946 2020-08-23 06:46:15 Terrasse 18.80 19.34 99.90
30945 2020-08-23 06:17:59 Terrasse 18.80 19.34 99.90
30944 2020-08-23 05:49:43 Terrasse 18.80 19.34 99.90
30943 2020-08-23 05:21:27 Terrasse 18.90 19.45 99.90
30942 2020-08-23 04:53:10 Terrasse 19.00 19.56 99.70
30941 2020-08-23 04:24:55 Terrasse 19.40 19.84 93.50
30940 2020-08-23 03:56:39 Terrasse 19.70 19.82 80.20
30939 2020-08-23 03:28:21 Terrasse 19.70 19.91 83.60
30938 2020-08-23 03:00:03 Terrasse 19.60 19.84 85.30
30937 2020-08-23 02:31:46 Terrasse 19.80 19.90 79.10
30936 2020-08-23 02:03:31 Terrasse 19.90 20.04 80.20
30935 2020-08-23 01:35:15 Terrasse 19.90 20.24 87.90
30934 2020-08-23 01:06:59 Terrasse 20.10 20.54 91.00
30933 2020-08-23 00:38:41 Terrasse 20.30 20.62 85.40
30932 2020-08-23 00:10:25 Terrasse 20.50 20.62 77.30
30931 2020-08-22 23:42:09 Terrasse 20.80 20.77 70.20
30930 2020-08-22 23:13:53 Terrasse 21.10 20.99 66.10
30929 2020-08-22 22:45:39 Terrasse 21.50 21.37 63.80
30928 2020-08-22 22:17:23 Terrasse 21.90 21.68 58.70
30927 2020-08-22 21:49:06 Terrasse 22.30 22.07 56.80
30926 2020-08-22 21:20:51 Terrasse 22.40 22.18 56.80
30925 2020-08-22 20:52:35 Terrasse 22.70 22.48 55.90
30924 2020-08-22 20:24:20 Terrasse 23.10 22.89 54.70
30923 2020-08-22 19:56:11 Terrasse 23.20 23.04 56.00
30922 2020-08-22 19:27:55 Terrasse 23.80 23.66 54.40
30921 2020-08-22 18:59:41 Terrasse 24.20 24.12 55.30
30920 2020-08-22 18:31:26 Terrasse 24.70 24.64 54.20
30919 2020-08-22 18:03:11 Terrasse 25.20 25.20 54.40
30918 2020-08-22 17:34:56 Terrasse 25.90 25.99 55.30
30917 2020-08-22 17:06:37 Terrasse 25.60 25.66 55.20
30916 2020-08-22 16:38:26 Terrasse 25.80 25.92 56.70
30915 2020-08-22 16:10:08 Terrasse 26.00 26.82 57.10
30914 2020-08-22 15:41:51 Terrasse 25.90 26.03 56.80
30913 2020-08-22 15:13:28 Terrasse 25.50 25.69 60.60
30912 2020-08-22 14:45:08 Terrasse 24.90 25.24 68.80
30911 2020-08-22 14:17:02 Terrasse 24.80 25.94 99.90
30910 2020-08-22 14:16:17 Terrasse 25.20 25.93 99.90
30909 2020-08-22 14:13:28 Terrasse 25.10 25.54 71.70
30908 2020-08-22 12:36:05 Terrasse 24.80 25.94 99.90
30907 2020-08-22 12:07:54 Terrasse 24.70 25.83 99.90
30906 2020-08-22 11:39:16 Terrasse 22.70 23.63 99.90
30905 2020-08-22 11:10:54 Terrasse 21.90 22.75 99.90
30904 2020-08-22 10:42:37 Terrasse 21.80 22.64 99.90
30903 2020-08-22 08:22:01 Terrasse 20.60 21.32 99.90
30902 2020-08-22 07:53:46 Terrasse 20.80 21.54 99.90
30901 2020-08-22 07:25:31 Terrasse 21.00 21.76 99.90
30900 2020-08-22 06:57:16 Terrasse 21.20 21.98 99.90
30899 2020-08-22 06:29:01 Terrasse 21.40 22.20 99.90
30898 2020-08-22 06:00:46 Terrasse 21.70 22.53 99.90
30897 2020-08-22 05:32:31 Terrasse 21.90 22.75 99.90
30896 2020-08-22 05:04:16 Terrasse 22.20 23.08 99.90
30895 2020-08-22 04:36:00 Terrasse 22.30 23.19 99.90
30894 2020-08-22 04:07:47 Terrasse 22.60 23.52 99.90
30893 2020-08-22 03:39:33 Terrasse 23.10 24.07 99.90
30892 2020-08-22 03:11:19 Terrasse 23.60 24.62 99.90
30891 2020-08-22 02:43:05 Terrasse 23.80 24.84 99.90
30890 2020-08-22 02:14:49 Terrasse 24.00 25.06 99.90
30889 2020-08-22 01:46:33 Terrasse 24.20 25.28 99.90
30888 2020-08-22 01:18:19 Terrasse 24.50 25.61 99.90
30887 2020-08-22 00:50:05 Terrasse 24.80 25.94 99.90
30886 2020-08-22 00:21:50 Terrasse 25.40 25.92 73.90
30885 2020-08-21 23:53:35 Terrasse 25.70 26.94 73.00
30884 2020-08-21 23:25:19 Terrasse 25.90 27.14 69.60
30883 2020-08-21 22:57:04 Terrasse 26.10 27.37 68.20
30882 2020-08-21 22:28:49 Terrasse 26.30 27.62 67.70
30881 2020-08-21 22:00:33 Terrasse 26.40 27.72 66.80
30880 2020-08-21 21:32:17 Terrasse 26.50 27.89 67.30
30879 2020-08-21 21:04:02 Terrasse 26.70 28.23 68.10
30878 2020-08-21 20:35:49 Terrasse 27.00 28.72 68.40
30877 2020-08-21 20:07:35 Terrasse 27.30 29.02 66.30
30876 2020-08-21 19:39:20 Terrasse 27.60 29.34 64.70
30875 2020-08-21 19:11:11 Terrasse 28.00 29.69 62.10
30874 2020-08-21 18:42:54 Terrasse 28.40 30.42 62.80
30873 2020-08-21 18:14:39 Terrasse 28.50 30.79 64.20
30872 2020-08-21 17:46:21 Terrasse 28.60 31.01 64.50
30871 2020-08-21 17:18:02 Terrasse 28.50 31.01 65.70
30870 2020-08-21 16:49:47 Terrasse 28.60 31.13 65.30
30869 2020-08-21 16:21:33 Terrasse 28.80 31.25 63.70
30868 2020-08-21 15:53:18 Terrasse 29.40 31.92 61.10
30867 2020-08-21 15:25:02 Terrasse 29.50 31.99 60.50
30866 2020-08-21 14:56:53 Terrasse 30.60 33.90 59.50
30865 2020-08-21 14:28:33 Terrasse 30.90 34.86 60.90
30864 2020-08-21 14:00:15 Terrasse 30.60 34.29 61.20
30863 2020-08-21 13:31:53 Terrasse 29.70 33.08 64.20
30862 2020-08-21 13:03:32 Terrasse 29.40 32.55 64.60
30861 2020-08-21 12:03:48 Terrasse 30.70 35.61 65.60
30860 2020-08-21 11:04:47 Terrasse 27.60 30.43 74.50
30859 2020-08-21 10:35:55 Terrasse 26.80 29.38 81.00
30858 2020-08-21 08:41:09 Terrasse 22.90 23.85 99.90
30857 2020-08-21 08:12:57 Terrasse 22.60 23.52 99.90
30856 2020-08-21 07:44:39 Terrasse 22.30 23.19 99.90
30855 2020-08-21 07:16:23 Terrasse 22.30 23.19 99.90
30854 2020-08-21 06:48:08 Terrasse 22.40 23.30 99.90
30853 2020-08-21 06:19:53 Terrasse 22.50 23.41 99.90
30852 2020-08-21 05:51:39 Terrasse 22.60 23.52 99.90
30851 2020-08-21 04:27:19 Terrasse 23.10 24.07 99.90
30850 2020-08-21 03:59:16 Terrasse 23.40 24.40 99.90
30849 2020-08-21 03:31:01 Terrasse 23.30 24.29 99.90
30848 2020-08-21 03:02:48 Terrasse 23.60 24.62 99.90
30847 2020-08-21 02:34:44 Terrasse 23.80 24.84 99.90
30846 2020-08-21 02:06:49 Terrasse 24.10 25.15 98.80
30845 2020-08-21 01:38:49 Terrasse 24.40 25.42 96.70
30844 2020-08-21 01:10:35 Terrasse 24.70 25.68 94.00
30843 2020-08-21 00:42:24 Terrasse 24.90 25.89 93.80
30842 2020-08-21 00:14:14 Terrasse 25.00 26.03 94.60
30841 2020-08-20 23:46:11 Terrasse 25.20 26.02 95.10
30840 2020-08-20 23:18:08 Terrasse 25.40 26.55 96.60
30839 2020-08-20 22:50:17 Terrasse 25.60 27.11 96.00
30838 2020-08-20 22:21:56 Terrasse 25.80 27.68 96.00
30837 2020-08-20 21:53:49 Terrasse 26.10 28.36 91.40
30836 2020-08-20 21:25:45 Terrasse 26.30 28.56 85.50
30835 2020-08-20 20:57:31 Terrasse 26.80 29.37 80.80
30834 2020-08-20 20:29:14 Terrasse 27.20 29.77 75.90
30833 2020-08-20 20:01:01 Terrasse 27.70 30.40 72.50
30832 2020-08-20 19:32:48 Terrasse 28.30 30.98 68.10
30831 2020-08-20 19:04:35 Terrasse 28.80 31.54 65.50
30830 2020-08-20 16:38:58 Terrasse 30.10 34.10 65.00
30829 2020-08-20 15:08:10 Terrasse 30.50 34.92 64.70
30828 2020-08-20 10:47:15 Terrasse 23.20 24.18 99.90
30827 2020-08-20 10:18:53 Terrasse 22.10 22.97 99.90
30826 2020-08-20 09:50:34 Terrasse 21.30 22.09 99.90
30825 2020-08-20 09:22:15 Terrasse 20.50 21.21 99.90
30824 2020-08-20 08:54:00 Terrasse 20.30 20.99 99.90
30823 2020-08-20 08:25:42 Terrasse 20.00 20.66 99.90
30822 2020-08-20 07:57:26 Terrasse 19.70 20.33 99.90
30821 2020-08-20 07:29:12 Terrasse 19.70 20.33 99.90
30820 2020-08-20 06:33:02 Terrasse 20.10 20.77 99.90
30819 2020-08-20 05:36:52 Terrasse 20.70 21.43 99.90
30818 2020-08-20 05:08:50 Terrasse 20.70 21.43 99.90
30817 2020-08-20 04:40:48 Terrasse 20.80 21.54 99.90
30816 2020-08-20 03:41:27 Terrasse 20.90 21.65 99.90
30815 2020-08-20 02:45:21 Terrasse 20.80 21.54 99.90
30814 2020-08-20 01:49:11 Terrasse 21.00 21.76 99.90
30813 2020-08-20 01:20:56 Terrasse 21.00 21.76 99.90
30812 2020-08-19 21:06:24 Terrasse 23.40 23.64 70.70
30811 2020-08-19 20:38:12 Terrasse 24.00 24.20 67.00
30810 2020-08-19 20:11:14 Terrasse 24.50 24.72 65.70
30809 2020-08-19 19:13:42 Terrasse 25.20 25.33 59.40
30808 2020-08-19 18:45:27 Terrasse 25.50 25.64 58.70
30807 2020-08-19 18:17:14 Terrasse 25.90 26.07 58.40
30806 2020-08-19 17:48:57 Terrasse 25.80 25.93 57.30
30805 2020-08-19 17:20:44 Terrasse 26.10 26.91 56.90
30804 2020-08-19 16:52:29 Terrasse 26.40 27.16 55.90
30803 2020-08-19 16:24:16 Terrasse 27.10 27.87 55.40
30802 2020-08-19 15:55:59 Terrasse 27.40 28.45 58.20
30801 2020-08-19 15:27:42 Terrasse 27.40 28.45 58.20
30800 2020-08-19 14:59:29 Terrasse 27.60 28.88 60.00
30799 2020-08-19 14:31:14 Terrasse 27.80 28.87 57.10
30798 2020-08-19 14:03:01 Terrasse 28.10 29.59 59.90
30797 2020-08-19 13:34:44 Terrasse 27.80 29.41 62.40
30796 2020-08-19 13:06:41 Terrasse 29.90 32.66 60.10
30795 2020-08-19 12:37:37 Terrasse 26.10 27.74 77.20
30794 2020-08-19 12:09:29 Terrasse 25.70 27.08 79.30
30793 2020-08-19 11:41:09 Terrasse 24.70 25.83 99.90
30792 2020-08-19 11:12:29 Terrasse 22.80 23.74 99.90
30791 2020-08-19 10:44:02 Terrasse 21.10 21.87 99.90
30790 2020-08-19 10:15:40 Terrasse 20.00 20.66 99.90
30789 2020-08-19 09:47:19 Terrasse 19.20 19.78 99.90
30788 2020-08-19 09:19:01 Terrasse 18.70 19.23 99.90
30787 2020-08-19 08:50:39 Terrasse 17.80 18.24 99.90
30786 2020-08-19 08:22:28 Terrasse 17.00 17.36 99.90
30785 2020-08-19 07:54:08 Terrasse 16.60 16.92 99.90
30784 2020-08-19 07:25:54 Terrasse 16.30 16.59 99.90
30783 2020-08-19 06:57:40 Terrasse 16.30 16.59 99.90
30782 2020-08-19 06:29:25 Terrasse 16.30 16.59 99.90
30781 2020-08-19 06:01:11 Terrasse 16.30 16.59 99.90
30780 2020-08-19 05:32:57 Terrasse 16.50 16.81 99.90
30779 2020-08-19 05:04:43 Terrasse 16.70 17.03 99.90
30778 2020-08-19 04:36:29 Terrasse 16.80 17.14 99.90
30777 2020-08-19 04:08:14 Terrasse 17.00 17.36 99.90
30776 2020-08-19 03:40:01 Terrasse 17.30 17.69 99.90
30775 2020-08-19 03:11:46 Terrasse 17.50 17.91 99.90
30774 2020-08-19 02:43:31 Terrasse 17.60 18.02 99.90
30773 2020-08-19 02:15:16 Terrasse 17.90 18.35 99.90
30772 2020-08-19 01:46:59 Terrasse 18.10 18.57 99.90
30771 2020-08-19 01:18:45 Terrasse 18.30 18.79 99.90
30770 2020-08-19 00:50:29 Terrasse 18.30 18.79 99.90
30769 2020-08-19 00:22:13 Terrasse 18.40 18.90 99.90
30768 2020-08-18 23:53:56 Terrasse 18.40 18.90 99.90
30767 2020-08-18 23:25:42 Terrasse 18.30 18.79 99.90
30766 2020-08-18 22:57:26 Terrasse 18.30 18.79 99.90
30765 2020-08-18 22:29:11 Terrasse 18.50 19.01 99.90
30764 2020-08-18 22:00:57 Terrasse 18.70 19.23 99.90
30763 2020-08-18 21:32:44 Terrasse 19.10 19.67 99.90
30762 2020-08-18 21:04:36 Terrasse 20.00 20.66 99.90
30761 2020-08-18 20:36:32 Terrasse 20.50 20.98 90.90
30760 2020-08-18 20:08:15 Terrasse 20.90 21.58 97.10
30759 2020-08-18 19:40:00 Terrasse 21.00 21.76 99.70
30758 2020-08-18 19:11:46 Terrasse 21.00 21.76 99.90
30757 2020-08-18 18:43:36 Terrasse 21.30 22.09 99.90
30756 2020-08-18 16:54:22 Terrasse 24.90 24.98 58.90
30755 2020-08-18 16:26:13 Terrasse 25.60 25.78 59.80
30754 2020-08-18 15:57:57 Terrasse 25.60 25.73 58.10
30753 2020-08-18 15:29:45 Terrasse 25.40 25.47 56.60
30752 2020-08-18 15:01:37 Terrasse 26.40 27.27 58.20
30751 2020-08-18 14:33:12 Terrasse 26.00 26.85 57.80
30750 2020-08-18 14:04:59 Terrasse 25.90 26.07 58.50
30749 2020-08-18 13:36:41 Terrasse 26.30 27.19 58.70
30748 2020-08-18 13:08:29 Terrasse 27.20 28.33 59.90
30747 2020-08-18 12:40:07 Terrasse 27.40 28.81 62.30
30746 2020-08-18 10:43:26 Terrasse 21.60 22.42 99.90
30745 2020-08-18 10:15:19 Terrasse 20.90 21.65 99.90
30744 2020-08-18 09:47:18 Terrasse 20.90 21.65 99.90
30743 2020-08-18 09:18:51 Terrasse 20.20 20.88 99.90
30742 2020-08-18 08:50:46 Terrasse 19.50 20.11 99.90
30741 2020-08-18 08:22:23 Terrasse 18.90 19.45 99.90
30740 2020-08-18 07:54:07 Terrasse 18.50 19.01 99.90
30739 2020-08-18 07:25:52 Terrasse 18.30 18.79 99.90
30738 2020-08-18 06:29:36 Terrasse 18.50 19.01 99.90
30737 2020-08-18 06:01:24 Terrasse 18.60 19.12 99.90
30736 2020-08-18 05:33:11 Terrasse 18.80 19.34 99.90
30735 2020-08-18 05:04:57 Terrasse 19.10 19.67 99.90
30734 2020-08-18 04:36:44 Terrasse 19.40 20.00 99.90
30733 2020-08-18 04:08:32 Terrasse 19.70 20.33 99.90
30732 2020-08-18 03:40:17 Terrasse 19.90 20.55 99.90
30731 2020-08-18 03:12:01 Terrasse 20.10 20.77 99.90
30730 2020-08-18 02:43:47 Terrasse 20.20 20.88 99.90
30729 2020-08-18 02:15:32 Terrasse 20.20 20.88 99.90
30728 2020-08-18 01:47:17 Terrasse 20.30 20.99 99.90
30727 2020-08-18 01:19:05 Terrasse 20.50 21.21 99.90
30726 2020-08-17 20:00:56 Terrasse 23.20 24.18 99.90
30725 2020-08-17 19:32:56 Terrasse 23.50 24.51 99.90
30724 2020-08-17 17:09:49 Terrasse 24.30 25.39 99.90
30723 2020-08-17 16:41:41 Terrasse 24.00 25.06 99.90
30722 2020-08-17 16:13:37 Terrasse 23.90 24.95 99.90
30721 2020-08-17 14:45:38 Terrasse 24.60 25.72 99.90
30720 2020-08-17 14:17:35 Terrasse 24.20 25.28 99.90
30719 2020-08-17 13:17:05 Terrasse 26.60 30.42 99.90
30718 2020-08-17 12:42:17 Terrasse 23.60 24.62 99.90
30717 2020-08-17 12:14:20 Terrasse 23.30 24.29 99.90
30716 2020-08-17 11:46:02 Terrasse 22.40 23.30 99.90
30715 2020-08-17 11:17:47 Terrasse 22.10 22.97 99.90
30714 2020-08-17 10:49:31 Terrasse 21.70 22.53 99.90
30713 2020-08-17 10:21:14 Terrasse 20.90 21.65 99.90
30712 2020-08-17 09:52:57 Terrasse 20.60 21.32 99.90
30711 2020-08-17 09:24:40 Terrasse 20.20 20.88 99.90
30710 2020-08-17 08:56:27 Terrasse 20.00 20.66 99.90
30709 2020-08-17 08:28:12 Terrasse 19.90 20.55 99.90
30708 2020-08-17 07:59:58 Terrasse 20.00 20.66 99.90
30707 2020-08-17 07:31:46 Terrasse 20.00 20.66 99.90
30706 2020-08-17 07:03:33 Terrasse 20.20 20.88 99.90
30705 2020-08-17 03:20:06 Terrasse 21.50 22.31 99.90
30704 2020-08-17 01:51:54 Terrasse 22.60 23.52 99.90
30703 2020-08-17 01:23:48 Terrasse 23.30 24.29 99.90
30702 2020-08-17 00:55:48 Terrasse 23.80 24.84 99.90
30701 2020-08-17 00:27:29 Terrasse 23.80 24.81 98.70
30700 2020-08-16 23:59:13 Terrasse 24.10 24.99 92.70
30699 2020-08-16 23:31:00 Terrasse 24.50 25.29 87.60
30698 2020-08-16 23:02:46 Terrasse 24.80 25.76 93.00
30697 2020-08-16 22:34:32 Terrasse 25.10 25.97 88.30
30696 2020-08-16 22:06:17 Terrasse 25.20 26.10 90.20
30695 2020-08-16 21:38:03 Terrasse 25.50 26.77 83.90
30694 2020-08-16 21:09:51 Terrasse 25.80 27.29 80.20
30693 2020-08-16 20:41:38 Terrasse 26.50 28.21 72.80
30692 2020-08-16 20:13:26 Terrasse 27.10 29.07 70.50
30691 2020-08-16 19:45:17 Terrasse 28.00 30.14 65.90
30690 2020-08-16 19:17:43 Terrasse 28.70 30.63 60.70
30689 2020-08-16 18:50:44 Terrasse 29.10 31.19 59.90
30688 2020-08-16 18:20:13 Terrasse 29.50 32.12 61.20
30687 2020-08-16 17:50:09 Terrasse 29.80 32.67 61.10
30686 2020-08-16 17:20:02 Terrasse 30.20 33.22 60.00
30685 2020-08-16 16:49:17 Terrasse 30.40 34.43 63.60
30684 2020-08-16 16:21:22 Terrasse 30.60 34.97 64.00
30683 2020-08-16 15:18:54 Terrasse 30.60 34.41 61.70
30682 2020-08-16 14:50:45 Terrasse 30.40 35.06 66.20
30681 2020-08-16 14:22:22 Terrasse 31.40 35.85 60.50
30680 2020-08-16 13:54:07 Terrasse 31.30 36.62 64.10
30679 2020-08-16 13:26:04 Terrasse 31.70 39.47 69.80
30678 2020-08-16 12:57:39 Terrasse 30.80 38.58 75.00
30677 2020-08-16 12:29:15 Terrasse 28.60 37.95 97.60
30676 2020-08-16 12:01:07 Terrasse 28.80 39.38 99.90
30675 2020-08-16 11:32:42 Terrasse 27.40 34.23 99.90
30674 2020-08-16 11:04:28 Terrasse 25.70 27.45 99.90
30673 2020-08-16 10:36:11 Terrasse 24.20 25.28 99.90
30672 2020-08-16 10:08:36 Terrasse 23.30 24.29 99.90
30671 2020-08-16 09:40:15 Terrasse 22.50 23.41 99.90
30670 2020-08-16 09:12:10 Terrasse 21.90 22.75 99.90
30669 2020-08-16 08:43:43 Terrasse 21.30 22.09 99.90
30668 2020-08-16 08:15:33 Terrasse 20.90 21.65 99.90
30667 2020-08-16 07:47:28 Terrasse 20.60 21.32 99.90
30666 2020-08-16 07:19:18 Terrasse 20.90 21.65 99.90
30665 2020-08-16 06:53:25 Terrasse 21.00 21.76 99.90
30664 2020-08-15 21:13:54 Terrasse 22.70 23.63 99.90
30663 2020-08-15 20:44:29 Terrasse 23.40 24.40 99.90
30662 2020-08-15 20:16:29 Terrasse 23.90 24.95 99.90
30661 2020-08-15 19:48:38 Terrasse 24.30 25.39 99.90
30660 2020-08-15 19:21:39 Terrasse 24.30 25.39 99.90
30659 2020-08-15 18:51:50 Terrasse 24.40 25.50 99.90
30658 2020-08-15 18:24:03 Terrasse 25.20 25.93 99.90
30657 2020-08-15 17:55:51 Terrasse 26.20 29.07 99.90
30656 2020-08-15 17:27:59 Terrasse 26.10 28.74 99.90
30655 2020-08-15 16:59:45 Terrasse 26.60 30.42 99.90
30654 2020-08-15 16:31:38 Terrasse 27.30 33.89 99.90
30653 2020-08-15 16:03:26 Terrasse 27.90 35.89 99.50
30652 2020-08-15 15:35:12 Terrasse 28.00 36.13 99.00
30651 2020-08-15 15:06:59 Terrasse 27.80 35.63 99.90
30650 2020-08-15 14:38:34 Terrasse 26.80 32.24 99.90
30649 2020-08-15 14:10:24 Terrasse 26.40 29.74 99.90
30648 2020-08-15 13:42:21 Terrasse 27.70 35.28 99.90
30647 2020-08-15 13:14:13 Terrasse 29.40 39.07 91.50
30646 2020-08-15 12:45:35 Terrasse 27.10 33.22 99.90
30645 2020-08-15 12:17:25 Terrasse 26.30 29.40 99.90
30644 2020-08-15 11:49:02 Terrasse 25.40 26.53 99.90
30643 2020-08-15 11:20:46 Terrasse 24.30 25.39 99.90
30642 2020-08-15 10:52:18 Terrasse 22.60 23.52 99.90
30641 2020-08-15 10:24:55 Terrasse 21.40 22.20 99.90
30640 2020-08-15 09:27:47 Terrasse 20.10 20.77 99.90
30639 2020-08-15 08:59:31 Terrasse 19.70 20.33 99.90
30638 2020-08-15 08:31:16 Terrasse 19.20 19.78 99.90
30637 2020-08-15 08:03:00 Terrasse 18.70 19.23 99.90
30636 2020-08-15 07:34:45 Terrasse 18.60 19.12 99.90
30635 2020-08-15 07:07:02 Terrasse 18.30 18.79 99.90
30634 2020-08-15 06:39:01 Terrasse 18.30 18.79 99.90
30633 2020-08-15 06:11:03 Terrasse 18.10 18.57 99.90
30632 2020-08-15 04:18:33 Terrasse 18.60 19.12 99.90
30631 2020-08-15 03:50:20 Terrasse 18.70 19.23 99.90
30630 2020-08-15 03:22:11 Terrasse 19.00 19.56 99.90
30629 2020-08-15 02:53:56 Terrasse 19.10 19.67 99.90
30628 2020-08-15 02:25:42 Terrasse 19.10 19.67 99.90
30627 2020-08-15 01:57:31 Terrasse 19.20 19.78 99.90
30626 2020-08-15 01:29:19 Terrasse 19.30 19.89 99.90
30625 2020-08-15 01:01:06 Terrasse 19.40 20.00 99.90
30624 2020-08-15 00:32:52 Terrasse 19.40 20.00 99.90
30623 2020-08-15 00:04:39 Terrasse 19.40 20.00 99.90
30622 2020-08-14 23:36:25 Terrasse 19.40 20.00 99.90
30621 2020-08-14 23:08:12 Terrasse 19.40 20.00 99.90
30620 2020-08-14 22:40:02 Terrasse 19.60 20.22 99.90
30619 2020-08-14 22:11:48 Terrasse 19.80 20.44 99.90
30618 2020-08-14 21:43:35 Terrasse 19.90 20.55 99.90
30617 2020-08-14 21:15:22 Terrasse 19.90 20.55 99.90
30616 2020-08-14 20:47:08 Terrasse 20.00 20.66 99.90
30615 2020-08-14 20:18:55 Terrasse 20.30 20.99 99.90
30614 2020-08-14 19:50:43 Terrasse 20.50 21.21 99.90
30613 2020-08-14 19:22:30 Terrasse 20.80 21.54 99.90
30612 2020-08-14 18:54:16 Terrasse 20.90 21.65 99.90
30611 2020-08-14 18:26:01 Terrasse 21.00 21.76 99.90
30610 2020-08-14 17:57:46 Terrasse 20.70 21.43 99.90
30609 2020-08-14 16:57:43 Terrasse 20.70 21.43 99.90
30608 2020-08-14 16:31:57 Terrasse 21.10 21.87 99.90
30607 2020-08-14 12:59:23 Terrasse 25.20 25.93 99.90
30606 2020-08-14 12:31:57 Terrasse 25.30 26.22 99.90
30605 2020-08-14 12:00:21 Terrasse 25.40 26.53 99.90
30604 2020-08-14 11:32:32 Terrasse 25.70 27.45 99.90
30603 2020-08-14 11:04:23 Terrasse 23.80 24.84 99.90
30602 2020-08-14 10:35:56 Terrasse 23.30 24.29 99.90
30601 2020-08-14 09:37:31 Terrasse 22.20 23.08 99.90
30600 2020-08-14 09:09:20 Terrasse 21.90 22.75 99.90
30599 2020-08-14 08:41:06 Terrasse 21.70 22.53 99.90
30598 2020-08-14 08:12:53 Terrasse 21.40 22.20 99.90
30597 2020-08-14 07:44:40 Terrasse 21.20 21.98 99.90
30596 2020-08-14 07:16:27 Terrasse 21.30 22.09 99.90
30595 2020-08-14 06:48:15 Terrasse 21.40 22.20 99.90
30594 2020-08-14 06:20:02 Terrasse 21.40 22.20 99.90
30593 2020-08-14 05:51:51 Terrasse 21.50 22.31 99.90
30592 2020-08-14 05:23:40 Terrasse 21.50 22.31 99.90
30591 2020-08-14 04:55:27 Terrasse 21.60 22.42 99.90
30590 2020-08-14 04:27:16 Terrasse 21.70 22.53 99.90
30589 2020-08-14 03:59:05 Terrasse 21.70 22.53 99.90
30588 2020-08-14 03:31:02 Terrasse 21.70 22.53 99.90
30587 2020-08-14 03:02:48 Terrasse 21.90 22.75 99.90
30586 2020-08-14 02:34:36 Terrasse 21.80 22.64 99.90
30585 2020-08-14 02:06:25 Terrasse 21.90 22.75 99.90
30584 2020-08-14 01:38:13 Terrasse 22.00 22.86 99.90
30583 2020-08-14 01:10:07 Terrasse 22.10 22.97 99.90
30582 2020-08-14 00:41:54 Terrasse 22.20 23.08 99.90
30581 2020-08-14 00:13:44 Terrasse 22.30 23.19 99.90
30580 2020-08-13 23:45:32 Terrasse 22.40 23.30 99.90
30579 2020-08-13 23:17:20 Terrasse 22.60 23.52 99.90
30578 2020-08-13 22:21:07 Terrasse 23.00 23.96 99.90
30577 2020-08-13 21:52:56 Terrasse 23.10 24.07 99.90
30576 2020-08-13 21:24:44 Terrasse 23.30 24.29 99.90
30575 2020-08-13 20:56:32 Terrasse 23.60 24.62 99.90
30574 2020-08-13 20:28:21 Terrasse 24.00 25.06 99.90
30573 2020-08-13 20:00:09 Terrasse 24.20 25.28 99.90
30572 2020-08-13 19:31:59 Terrasse 24.40 25.50 99.90
30571 2020-08-13 19:03:47 Terrasse 24.60 25.72 99.90
30570 2020-08-13 18:35:40 Terrasse 24.70 25.83 99.90
30569 2020-08-13 18:07:29 Terrasse 24.60 25.72 99.90
30568 2020-08-13 17:39:17 Terrasse 24.60 25.72 99.90
30567 2020-08-13 17:11:04 Terrasse 24.60 25.72 99.90
30566 2020-08-13 16:42:54 Terrasse 24.80 25.94 99.90
30565 2020-08-13 16:14:43 Terrasse 25.00 25.34 99.90
30564 2020-08-13 15:46:30 Terrasse 25.10 25.63 99.90
30563 2020-08-13 15:18:32 Terrasse 25.10 25.63 99.90
30562 2020-08-13 14:50:16 Terrasse 24.60 25.72 99.90
30561 2020-08-13 14:22:04 Terrasse 24.40 25.50 99.90
30560 2020-08-13 13:53:48 Terrasse 24.10 25.17 99.90
30559 2020-08-13 13:25:35 Terrasse 23.90 24.95 99.90
30558 2020-08-13 12:57:28 Terrasse 23.90 24.95 99.90
30557 2020-08-13 12:29:20 Terrasse 23.70 24.73 99.90
30556 2020-08-13 12:01:04 Terrasse 23.40 24.40 99.90
30555 2020-08-13 11:32:53 Terrasse 22.60 23.52 99.90
30554 2020-08-13 11:04:41 Terrasse 22.60 23.52 99.90
30553 2020-08-13 10:36:30 Terrasse 22.70 23.63 99.90
30552 2020-08-13 10:09:47 Terrasse 22.60 23.52 99.90
30551 2020-08-13 09:39:56 Terrasse 23.00 23.96 99.90
30550 2020-08-13 09:12:00 Terrasse 25.50 26.83 99.90
30549 2020-08-13 09:11:43 Terrasse 25.50 26.83 99.90
30548 2020-08-13 09:10:21 Terrasse 23.80 24.84 99.90
30547 2020-08-13 07:37:40 Terrasse 23.40 24.40 99.90
30546 2020-08-12 19:58:24 Terrasse 29.30 30.58 53.80
30545 2020-08-12 19:30:05 Terrasse 30.70 33.05 54.70
30544 2020-08-12 19:01:43 Terrasse 31.10 33.58 53.80
30543 2020-08-12 18:33:22 Terrasse 31.60 34.01 51.60
30542 2020-08-12 18:05:02 Terrasse 32.10 34.75 50.80
30541 2020-08-12 17:36:45 Terrasse 33.10 36.15 48.80
30540 2020-08-12 17:08:20 Terrasse 33.20 36.64 49.80
30539 2020-08-12 16:39:56 Terrasse 33.30 37.05 50.50
30538 2020-08-12 16:11:32 Terrasse 33.40 38.10 53.10
30537 2020-08-12 15:43:09 Terrasse 33.50 38.80 54.50
30536 2020-08-12 14:46:47 Terrasse 33.60 39.00 54.40
30535 2020-08-12 14:19:27 Terrasse 33.80 39.37 54.10
30534 2020-08-12 13:46:50 Terrasse 33.60 39.07 54.60
30533 2020-08-12 13:18:40 Terrasse 34.70 41.38 53.60
30532 2020-08-12 12:49:58 Terrasse 32.30 36.86 57.00
30531 2020-08-12 12:21:19 Terrasse 31.10 34.98 59.70
30530 2020-08-12 11:52:51 Terrasse 30.80 35.01 62.40
30529 2020-08-12 11:24:04 Terrasse 28.50 31.07 66.10
30528 2020-08-12 10:55:27 Terrasse 27.90 30.55 70.60
30527 2020-08-12 10:27:00 Terrasse 27.20 29.37 71.80
30526 2020-08-12 09:58:28 Terrasse 26.40 28.11 73.90
30525 2020-08-12 09:29:56 Terrasse 25.50 24.13 1.00
30524 2020-08-12 09:01:26 Terrasse 24.80 25.94 99.90
30523 2020-08-12 08:32:59 Terrasse 24.20 25.28 99.90
30522 2020-08-12 08:04:32 Terrasse 24.00 23.23 29.60
30521 2020-08-12 07:36:08 Terrasse 23.90 22.37 1.00
30520 2020-08-12 07:07:43 Terrasse 24.00 22.48 1.00
30519 2020-08-12 06:39:20 Terrasse 24.30 22.81 1.00
30518 2020-08-12 06:13:11 Terrasse 24.80 24.86 58.30
30517 2020-08-11 23:23:07 Terrasse 26.10 27.36 68.10
30516 2020-08-11 22:54:49 Terrasse 26.20 27.52 68.50
30515 2020-08-11 22:26:39 Terrasse 26.40 27.89 70.00
30514 2020-08-11 21:58:20 Terrasse 26.90 28.34 65.40
30513 2020-08-11 21:30:02 Terrasse 27.30 28.74 63.20
30512 2020-08-11 20:05:31 Terrasse 28.80 30.09 55.60
30511 2020-08-11 19:37:14 Terrasse 29.10 30.74 57.00
30510 2020-08-11 19:08:55 Terrasse 29.30 30.79 55.20
30509 2020-08-11 18:40:40 Terrasse 29.80 31.76 56.20
30508 2020-08-11 18:12:27 Terrasse 31.10 34.54 57.90
30507 2020-08-11 17:44:08 Terrasse 31.50 35.88 59.80
30506 2020-08-11 17:16:01 Terrasse 32.90 35.35 47.30
30505 2020-08-11 16:47:46 Terrasse 33.80 36.48 45.20
30504 2020-08-11 16:19:30 Terrasse 34.80 38.38 44.90
30503 2020-08-11 15:51:38 Terrasse 35.00 39.18 46.00
30502 2020-08-11 14:55:24 Terrasse 35.10 39.54 46.40
30501 2020-08-11 14:27:08 Terrasse 35.30 40.44 47.60
30500 2020-08-11 13:58:52 Terrasse 36.00 40.97 44.90
30499 2020-08-11 13:30:40 Terrasse 36.40 42.88 47.20
30498 2020-08-11 13:02:04 Terrasse 35.40 41.64 50.00
30497 2020-08-11 12:33:25 Terrasse 32.20 35.81 54.10
30496 2020-08-11 12:05:06 Terrasse 32.10 36.33 56.70
30495 2020-08-11 11:36:38 Terrasse 31.10 34.34 57.10
30494 2020-08-11 11:08:10 Terrasse 29.60 31.93 59.10
30493 2020-08-11 10:39:41 Terrasse 28.30 30.22 62.50
30492 2020-08-11 10:11:13 Terrasse 27.00 28.48 65.30
30491 2020-08-11 09:42:50 Terrasse 26.40 27.81 68.60
30490 2020-08-11 09:14:27 Terrasse 25.70 26.87 69.60
30489 2020-08-11 08:46:04 Terrasse 25.10 25.50 70.20
30488 2020-08-11 08:17:42 Terrasse 24.60 24.95 70.10
30487 2020-08-11 07:49:21 Terrasse 24.40 24.75 71.00
30486 2020-08-11 07:21:02 Terrasse 24.40 24.72 69.70
30485 2020-08-11 06:52:43 Terrasse 24.40 24.70 69.20
30484 2020-08-11 06:24:23 Terrasse 24.40 24.68 68.30
30483 2020-08-11 05:56:05 Terrasse 24.40 24.68 68.50
30482 2020-08-11 05:27:47 Terrasse 24.70 24.99 67.50
30481 2020-08-11 04:59:29 Terrasse 24.90 25.18 66.30
30480 2020-08-11 04:31:10 Terrasse 25.10 25.39 65.90
30479 2020-08-11 04:02:52 Terrasse 25.40 25.68 64.50
30478 2020-08-11 03:34:36 Terrasse 25.70 25.98 63.50
30477 2020-08-11 03:06:18 Terrasse 26.00 27.00 61.90
30476 2020-08-11 02:37:59 Terrasse 26.20 27.19 61.10
30475 2020-08-11 02:09:40 Terrasse 26.40 27.40 60.70
30474 2020-08-11 01:41:22 Terrasse 26.50 27.48 60.00
30473 2020-08-11 01:13:03 Terrasse 26.70 27.71 60.00
30472 2020-08-11 00:44:44 Terrasse 27.00 28.04 59.40
30471 2020-08-11 00:16:27 Terrasse 27.20 28.30 59.50
30470 2020-08-10 23:48:08 Terrasse 27.40 28.58 59.70
30469 2020-08-10 23:19:51 Terrasse 27.60 28.81 59.30
30468 2020-08-10 22:51:32 Terrasse 27.90 29.17 58.70
30467 2020-08-10 22:23:13 Terrasse 28.20 29.40 57.00
30466 2020-08-10 21:55:01 Terrasse 28.40 29.41 54.60
30465 2020-08-10 21:26:41 Terrasse 28.60 29.66 54.40
30464 2020-08-10 20:58:38 Terrasse 29.10 30.19 53.10
30463 2020-08-10 20:30:17 Terrasse 29.50 31.01 54.60
30462 2020-08-10 20:01:59 Terrasse 30.00 31.32 51.70
30461 2020-08-10 19:33:44 Terrasse 30.40 31.79 50.80
30460 2020-08-10 19:05:28 Terrasse 30.70 31.79 48.10
30459 2020-08-10 18:37:10 Terrasse 31.10 32.53 48.70
30458 2020-08-10 18:08:52 Terrasse 31.40 33.06 48.90
30457 2020-08-10 17:40:34 Terrasse 31.80 33.38 47.20
30456 2020-08-10 17:12:14 Terrasse 32.00 33.50 46.20
30455 2020-08-10 16:43:54 Terrasse 32.00 33.74 47.30
30454 2020-08-10 16:15:32 Terrasse 31.70 32.86 45.50
30453 2020-08-10 15:47:08 Terrasse 31.00 32.37 48.70
30452 2020-08-10 15:18:43 Terrasse 30.10 30.95 48.40
30451 2020-08-10 14:50:19 Terrasse 29.40 30.90 54.90
30450 2020-08-10 14:21:59 Terrasse 29.40 31.33 57.60
30449 2020-08-10 13:53:36 Terrasse 28.50 30.44 61.70
30448 2020-08-10 13:25:14 Terrasse 28.20 29.85 60.80
30447 2020-08-10 12:56:53 Terrasse 27.90 29.24 59.40
30446 2020-08-10 12:28:39 Terrasse 28.10 29.35 57.80
30445 2020-08-10 12:00:19 Terrasse 28.10 29.18 56.20
30444 2020-08-10 11:32:05 Terrasse 28.70 30.18 57.40
30443 2020-08-10 11:03:43 Terrasse 28.90 30.59 58.10
30442 2020-08-10 10:35:17 Terrasse 27.50 28.68 59.30
30441 2020-08-10 10:06:49 Terrasse 26.50 27.54 61.20
30440 2020-08-10 09:38:29 Terrasse 26.00 26.94 60.40
30439 2020-08-10 09:10:10 Terrasse 26.00 26.97 61.30
30438 2020-08-10 08:41:48 Terrasse 25.70 25.91 60.70
30437 2020-08-10 08:13:25 Terrasse 25.20 25.43 63.50
30436 2020-08-10 07:45:05 Terrasse 24.90 25.13 64.40
30435 2020-08-10 07:16:45 Terrasse 24.90 25.06 61.80
30434 2020-08-10 06:48:24 Terrasse 24.70 24.80 60.30
30433 2020-08-10 06:20:04 Terrasse 24.70 24.76 58.60
30432 2020-08-10 05:51:45 Terrasse 24.80 24.84 57.80
30431 2020-08-10 05:23:27 Terrasse 24.90 24.95 57.70
30430 2020-08-10 04:55:08 Terrasse 25.30 25.36 56.60
30429 2020-08-10 04:26:49 Terrasse 25.40 25.46 56.00
30428 2020-08-10 03:58:29 Terrasse 25.40 25.45 55.70
30427 2020-08-10 03:30:12 Terrasse 25.80 25.87 55.00
30426 2020-08-10 03:01:55 Terrasse 26.20 26.86 53.40
30425 2020-08-10 02:33:38 Terrasse 26.60 27.21 53.00
30424 2020-08-10 02:05:20 Terrasse 27.20 27.67 50.90
30423 2020-08-10 01:37:01 Terrasse 27.20 27.60 49.80
30422 2020-08-10 01:08:40 Terrasse 27.40 27.82 50.20
30421 2020-08-10 00:40:22 Terrasse 27.50 27.80 48.50
30420 2020-08-10 00:12:05 Terrasse 27.80 27.99 47.00
30419 2020-08-09 23:43:44 Terrasse 28.00 28.17 46.80
30418 2020-08-09 23:15:25 Terrasse 28.10 28.27 46.70
30417 2020-08-09 22:47:06 Terrasse 28.20 28.17 44.30
30416 2020-08-09 22:18:47 Terrasse 28.50 28.54 45.00
30415 2020-08-09 21:50:26 Terrasse 28.60 28.64 44.90
30414 2020-08-09 21:22:10 Terrasse 28.50 28.53 44.90
30413 2020-08-09 20:53:48 Terrasse 28.50 28.76 47.30
30412 2020-08-09 20:25:36 Terrasse 28.80 29.31 49.20
30411 2020-08-09 19:57:18 Terrasse 29.40 30.18 49.90
30410 2020-08-09 19:29:25 Terrasse 30.30 31.59 50.50
30409 2020-08-09 18:56:57 Terrasse 31.60 32.43 44.10
30408 2020-08-09 18:28:41 Terrasse 32.10 33.41 45.00
30407 2020-08-09 18:00:25 Terrasse 32.90 34.67 44.60
30406 2020-08-09 17:32:12 Terrasse 34.10 36.65 43.80
30405 2020-08-09 17:03:56 Terrasse 34.80 36.88 40.10
30404 2020-08-09 16:35:41 Terrasse 35.60 39.07 42.10
30403 2020-08-09 16:07:30 Terrasse 36.50 39.19 37.30
30402 2020-08-09 14:42:59 Terrasse 36.70 39.98 38.40
30401 2020-08-09 14:14:41 Terrasse 37.10 40.95 38.80
30400 2020-08-09 13:46:35 Terrasse 38.00 42.88 38.80
30399 2020-08-09 13:18:16 Terrasse 38.50 44.29 39.40
30398 2020-08-09 12:49:30 Terrasse 35.80 39.73 42.80
30397 2020-08-09 12:21:13 Terrasse 33.80 36.68 45.90
30396 2020-08-09 11:53:07 Terrasse 33.80 37.13 47.40
30395 2020-08-09 11:24:59 Terrasse 32.30 35.02 50.40
30394 2020-08-09 10:57:04 Terrasse 30.40 32.48 54.50
30393 2020-08-09 10:27:56 Terrasse 28.70 30.27 58.10
30392 2020-08-09 09:59:29 Terrasse 27.30 28.84 64.30
30391 2020-08-09 09:31:03 Terrasse 26.30 27.62 67.70
30390 2020-08-09 09:02:38 Terrasse 25.40 25.71 65.60
30389 2020-08-09 08:34:13 Terrasse 24.50 24.75 66.70
30388 2020-08-09 08:05:52 Terrasse 24.00 24.26 69.20
30387 2020-08-09 07:37:32 Terrasse 23.70 23.87 66.80
30386 2020-08-09 07:09:14 Terrasse 23.60 23.63 61.80
30385 2020-08-09 06:40:56 Terrasse 23.80 23.78 59.20
30384 2020-08-09 06:12:37 Terrasse 24.20 24.17 57.20
30383 2020-08-09 05:44:19 Terrasse 24.40 24.37 56.30
30382 2020-08-09 05:16:01 Terrasse 24.70 24.68 55.80
30381 2020-08-09 04:47:43 Terrasse 24.90 24.89 55.40
30380 2020-08-09 04:19:24 Terrasse 25.20 25.22 55.20
30379 2020-08-09 03:51:06 Terrasse 25.40 25.42 54.70
30378 2020-08-09 03:22:47 Terrasse 25.60 25.61 53.40
30377 2020-08-09 02:54:28 Terrasse 25.80 25.82 53.10
30376 2020-08-09 02:26:12 Terrasse 26.20 26.82 52.40
30375 2020-08-09 01:57:55 Terrasse 26.40 26.95 51.40
30374 2020-08-09 01:29:37 Terrasse 26.70 27.21 51.30
30373 2020-08-09 01:01:17 Terrasse 26.90 27.31 49.80
30372 2020-08-09 00:32:59 Terrasse 27.10 27.51 49.90
30371 2020-08-09 00:04:45 Terrasse 27.40 27.77 49.50
30370 2020-08-08 23:37:09 Terrasse 27.80 28.21 49.80
30369 2020-08-08 23:06:47 Terrasse 28.10 28.56 50.00
30368 2020-08-08 22:36:36 Terrasse 28.40 29.14 52.20
30367 2020-08-08 22:08:32 Terrasse 28.90 29.55 50.20
30366 2020-08-08 21:37:57 Terrasse 29.50 30.25 49.40
30365 2020-08-08 21:09:41 Terrasse 30.20 31.20 49.10
30364 2020-08-08 20:41:26 Terrasse 30.80 32.25 49.80
30363 2020-08-08 20:13:10 Terrasse 31.50 33.27 49.10
30362 2020-08-08 19:44:53 Terrasse 31.90 33.08 45.00
30361 2020-08-08 19:16:37 Terrasse 32.40 33.14 41.40
30360 2020-08-08 18:48:20 Terrasse 32.90 34.08 42.10
30359 2020-08-08 18:20:02 Terrasse 33.30 34.42 40.70
30358 2020-08-08 17:51:45 Terrasse 33.70 35.66 42.90
30357 2020-08-08 17:23:28 Terrasse 34.20 35.85 40.30
30356 2020-08-08 16:55:12 Terrasse 35.00 37.40 40.60
30355 2020-08-08 16:26:55 Terrasse 34.60 36.26 39.20
30354 2020-08-08 15:58:37 Terrasse 35.10 37.37 39.90
30353 2020-08-08 15:30:18 Terrasse 35.70 38.42 39.60
30352 2020-08-08 15:02:01 Terrasse 35.50 38.52 41.10
30351 2020-08-08 14:33:46 Terrasse 36.00 39.64 41.40
30350 2020-08-08 14:05:34 Terrasse 36.50 40.24 40.20
30349 2020-08-08 13:37:28 Terrasse 37.30 41.09 38.10
30348 2020-08-08 13:08:57 Terrasse 37.40 42.86 41.80
30347 2020-08-08 12:40:06 Terrasse 33.40 36.78 48.90
30346 2020-08-08 12:11:53 Terrasse 33.00 35.73 48.00
30345 2020-08-08 11:43:27 Terrasse 32.20 34.81 50.30
30344 2020-08-08 11:14:56 Terrasse 30.70 32.93 54.10
30343 2020-08-08 10:46:18 Terrasse 28.70 30.59 60.40
30342 2020-08-08 10:17:50 Terrasse 27.10 29.09 70.70
30341 2020-08-08 09:49:33 Terrasse 26.10 27.68 75.80
30340 2020-08-08 09:21:04 Terrasse 25.10 26.01 89.70
30339 2020-08-08 08:52:38 Terrasse 24.10 25.04 94.70
30338 2020-08-08 08:24:15 Terrasse 23.30 24.21 96.60
30337 2020-08-08 07:55:55 Terrasse 23.00 23.96 99.60
30336 2020-08-08 07:27:37 Terrasse 22.80 23.31 83.30
30335 2020-08-08 06:59:20 Terrasse 22.80 23.01 71.90
30334 2020-08-08 06:31:02 Terrasse 22.80 22.93 68.90
30333 2020-08-08 06:02:45 Terrasse 23.10 23.20 66.60
30332 2020-08-08 05:34:28 Terrasse 23.30 23.39 65.40
30331 2020-08-08 05:06:10 Terrasse 23.50 23.56 63.50
30330 2020-08-08 04:37:53 Terrasse 23.60 23.63 61.90
30329 2020-08-08 04:09:34 Terrasse 23.80 23.80 59.80
30328 2020-08-08 03:41:16 Terrasse 23.90 23.88 58.90
30327 2020-08-08 03:13:00 Terrasse 24.00 24.00 59.00
30326 2020-08-08 02:44:43 Terrasse 24.40 24.41 58.20
30325 2020-08-08 02:16:26 Terrasse 24.70 24.73 57.70
30324 2020-08-08 01:48:09 Terrasse 24.90 24.94 57.40
30323 2020-08-08 01:19:52 Terrasse 25.20 25.25 56.30
30322 2020-08-08 00:51:35 Terrasse 25.50 25.56 55.60
30321 2020-08-08 00:23:18 Terrasse 25.80 25.86 54.60
30320 2020-08-07 23:55:02 Terrasse 26.10 26.79 53.90
30319 2020-08-07 23:26:45 Terrasse 26.40 27.02 53.00
30318 2020-08-07 22:58:27 Terrasse 26.80 27.37 52.40
30317 2020-08-07 22:30:12 Terrasse 27.20 27.69 51.20
30316 2020-08-07 22:01:57 Terrasse 27.60 28.12 51.40
30315 2020-08-07 21:33:40 Terrasse 28.20 28.74 50.70
30314 2020-08-07 21:05:25 Terrasse 28.80 29.57 51.40
30313 2020-08-07 20:37:09 Terrasse 29.50 30.43 50.70
30312 2020-08-07 20:09:05 Terrasse 30.10 30.75 47.10
30311 2020-08-07 19:40:45 Terrasse 30.70 31.13 44.10
30310 2020-08-07 19:12:28 Terrasse 31.10 31.29 41.60
30309 2020-08-07 18:44:11 Terrasse 31.40 31.89 42.70
30308 2020-08-07 18:15:54 Terrasse 31.80 32.44 42.50
30307 2020-08-07 17:47:36 Terrasse 32.10 32.95 42.80
30306 2020-08-07 17:19:18 Terrasse 32.40 33.34 42.40
30305 2020-08-07 16:51:01 Terrasse 32.70 33.80 42.30
30304 2020-08-07 16:22:45 Terrasse 33.20 34.24 40.60
30303 2020-08-07 15:54:28 Terrasse 33.70 35.19 41.10
30302 2020-08-07 15:26:06 Terrasse 33.70 34.47 38.10
30301 2020-08-07 14:57:48 Terrasse 33.70 34.59 38.60
30300 2020-08-07 14:29:31 Terrasse 34.10 35.03 37.70
30299 2020-08-07 14:01:15 Terrasse 34.30 35.38 37.80
30298 2020-08-07 13:32:58 Terrasse 34.50 35.64 37.50
30297 2020-08-07 13:04:36 Terrasse 34.00 35.48 40.20
30296 2020-08-07 12:35:59 Terrasse 31.10 31.79 44.70
30295 2020-08-07 12:07:46 Terrasse 31.40 32.47 45.90
30294 2020-08-07 11:39:20 Terrasse 30.40 31.43 48.70
30293 2020-08-07 11:10:46 Terrasse 28.60 29.24 50.80
30292 2020-08-07 10:42:10 Terrasse 26.50 27.17 54.20
30291 2020-08-07 10:13:42 Terrasse 25.00 25.04 57.00
30290 2020-08-07 09:45:15 Terrasse 23.90 23.89 59.20
30289 2020-08-07 09:16:52 Terrasse 22.70 22.61 60.70
30288 2020-08-07 08:48:34 Terrasse 21.50 21.38 64.10
30287 2020-08-07 08:20:09 Terrasse 20.60 20.46 67.00
30286 2020-08-07 07:51:49 Terrasse 20.10 19.99 69.90
30285 2020-08-07 07:23:31 Terrasse 20.00 19.76 65.30
30284 2020-08-07 06:55:12 Terrasse 19.90 19.58 62.70
30283 2020-08-07 06:26:53 Terrasse 20.00 19.64 60.80
30282 2020-08-07 05:58:35 Terrasse 20.10 19.73 60.00
30281 2020-08-07 05:30:21 Terrasse 20.30 19.94 59.60
30280 2020-08-07 05:02:05 Terrasse 20.50 20.15 59.20
30279 2020-08-07 04:33:48 Terrasse 20.90 20.56 57.90
30278 2020-08-07 04:05:30 Terrasse 21.30 20.99 57.60
30277 2020-08-07 03:37:13 Terrasse 21.50 21.19 57.00
30276 2020-08-07 03:08:57 Terrasse 21.70 21.39 56.20
30275 2020-08-07 02:40:39 Terrasse 22.00 21.72 56.00
30274 2020-08-07 02:12:21 Terrasse 22.20 21.92 55.40
30273 2020-08-07 01:44:04 Terrasse 22.50 22.24 55.10
30272 2020-08-07 01:15:48 Terrasse 22.70 22.44 54.10
30271 2020-08-07 00:47:31 Terrasse 23.10 22.89 54.40
30270 2020-08-07 00:19:12 Terrasse 23.40 23.21 54.00
30269 2020-08-06 23:50:55 Terrasse 23.70 23.52 53.50
30268 2020-08-06 23:22:38 Terrasse 24.00 23.84 53.00
30267 2020-08-06 22:54:21 Terrasse 24.40 24.27 52.60
30266 2020-08-06 22:26:04 Terrasse 24.60 24.47 51.70
30265 2020-08-06 21:57:47 Terrasse 25.10 25.00 51.00
30264 2020-08-06 21:29:32 Terrasse 25.70 25.64 50.20
30263 2020-08-06 21:01:18 Terrasse 26.40 26.86 49.50
30262 2020-08-06 20:33:02 Terrasse 27.20 27.49 48.20
30261 2020-08-06 20:04:44 Terrasse 27.60 27.79 47.00
30260 2020-08-06 19:36:28 Terrasse 28.10 28.20 45.90
30259 2020-08-06 19:08:11 Terrasse 28.60 28.56 44.00
30258 2020-08-06 18:39:54 Terrasse 29.10 29.09 43.90
30257 2020-08-06 18:11:36 Terrasse 29.30 29.45 45.10
30256 2020-08-06 17:43:19 Terrasse 29.60 29.62 43.40
30255 2020-08-06 17:15:00 Terrasse 29.70 29.71 43.20
30254 2020-08-06 16:46:41 Terrasse 29.80 29.89 43.70
30253 2020-08-06 16:18:25 Terrasse 30.20 30.16 41.90
30252 2020-08-06 15:50:10 Terrasse 31.00 31.67 44.80
30251 2020-08-06 15:21:52 Terrasse 31.40 31.68 41.50
30250 2020-08-06 14:53:32 Terrasse 31.20 31.68 43.20
30249 2020-08-06 14:25:13 Terrasse 31.50 31.81 41.40
30248 2020-08-06 13:57:00 Terrasse 32.00 32.46 41.00
30247 2020-08-06 13:28:46 Terrasse 32.10 32.62 41.10
30246 2020-08-06 13:00:16 Terrasse 31.40 32.41 45.60
30245 2020-08-06 12:31:57 Terrasse 28.30 28.72 49.20
30244 2020-08-06 12:03:37 Terrasse 28.50 28.95 49.20
30243 2020-08-06 11:35:14 Terrasse 27.60 28.12 51.30
30242 2020-08-06 11:06:36 Terrasse 25.60 25.72 57.50
30241 2020-08-06 10:38:54 Terrasse 23.90 23.99 63.10
30240 2020-08-06 10:08:52 Terrasse 22.40 22.50 69.10
30239 2020-08-06 09:40:27 Terrasse 21.40 21.97 91.00
30238 2020-08-06 09:12:01 Terrasse 20.30 20.48 80.10
30237 2020-08-06 08:43:35 Terrasse 19.30 19.65 90.70
30236 2020-08-06 08:15:12 Terrasse 18.70 18.38 67.30
30235 2020-08-06 07:46:52 Terrasse 18.20 17.93 71.10
30234 2020-08-06 07:18:33 Terrasse 17.90 17.56 69.50
30233 2020-08-06 06:50:16 Terrasse 18.00 17.59 66.40
30232 2020-08-06 06:21:58 Terrasse 18.10 17.64 64.00
30231 2020-08-06 05:53:39 Terrasse 18.30 17.81 62.40
30230 2020-08-06 05:25:22 Terrasse 18.50 18.03 62.10
30229 2020-08-06 04:57:04 Terrasse 18.70 18.22 60.90
30228 2020-08-06 04:28:48 Terrasse 19.00 18.52 60.00
30227 2020-08-06 04:00:31 Terrasse 19.10 18.61 59.00
30226 2020-08-06 03:32:14 Terrasse 19.40 18.91 57.90
30225 2020-08-06 03:03:57 Terrasse 19.60 19.10 57.00
30224 2020-08-06 02:35:40 Terrasse 19.80 19.31 56.30
30223 2020-08-06 02:07:23 Terrasse 20.00 19.50 55.20
30222 2020-08-06 01:39:05 Terrasse 20.30 19.80 54.30
30221 2020-08-06 01:10:57 Terrasse 20.60 20.11 53.30
30220 2020-08-06 00:42:37 Terrasse 20.90 20.42 52.80
30219 2020-08-06 00:14:20 Terrasse 21.30 20.83 51.60
30218 2020-08-05 23:46:04 Terrasse 21.70 21.25 50.60
30217 2020-08-05 23:17:46 Terrasse 22.10 21.67 49.80
30216 2020-08-05 22:49:26 Terrasse 22.20 21.79 50.20
30215 2020-08-05 22:21:10 Terrasse 22.60 22.26 51.40
30214 2020-08-05 21:52:54 Terrasse 23.20 22.91 51.10
30213 2020-08-05 21:24:39 Terrasse 24.00 23.80 51.40
30212 2020-08-05 20:56:26 Terrasse 24.80 24.57 47.10
30211 2020-08-05 20:28:11 Terrasse 25.60 25.36 43.70
30210 2020-08-05 19:59:56 Terrasse 26.10 25.84 41.30
30209 2020-08-05 19:31:40 Terrasse 26.50 26.58 41.50
30208 2020-08-05 19:03:25 Terrasse 26.80 26.82 42.10
30207 2020-08-05 18:35:08 Terrasse 27.20 27.14 42.40
30206 2020-08-05 18:06:50 Terrasse 27.40 27.34 43.00
30205 2020-08-05 17:38:32 Terrasse 27.60 27.46 42.20
30204 2020-08-05 17:10:17 Terrasse 28.10 27.90 42.00
30203 2020-08-05 16:42:00 Terrasse 28.30 28.03 41.30
30202 2020-08-05 16:13:43 Terrasse 28.70 28.42 41.30
30201 2020-08-05 15:45:26 Terrasse 29.20 29.03 42.20
30200 2020-08-05 15:17:07 Terrasse 29.30 28.75 38.20
30199 2020-08-05 14:48:49 Terrasse 29.40 28.91 38.80
30198 2020-08-05 14:20:34 Terrasse 29.90 29.63 40.50
30197 2020-08-05 13:52:19 Terrasse 30.10 29.79 39.90
30196 2020-08-05 13:24:00 Terrasse 30.30 29.92 39.00
30195 2020-08-05 12:55:29 Terrasse 28.60 28.43 42.60
30194 2020-08-05 12:27:10 Terrasse 27.00 27.17 45.70
30193 2020-08-05 11:58:49 Terrasse 26.90 27.27 49.00
30192 2020-08-05 11:30:22 Terrasse 25.60 25.60 53.20
30191 2020-08-05 11:01:41 Terrasse 23.50 23.45 59.20
30190 2020-08-05 10:33:11 Terrasse 21.80 21.63 61.20
30189 2020-08-05 10:04:44 Terrasse 20.50 20.34 66.50
30188 2020-08-05 09:36:20 Terrasse 19.50 19.17 63.90
30187 2020-08-05 09:07:55 Terrasse 18.60 18.25 66.50
30186 2020-08-05 08:41:15 Terrasse 17.60 17.26 70.80
30185 2020-08-05 08:09:31 Terrasse 16.90 16.53 72.30
30184 2020-08-05 07:41:11 Terrasse 16.30 15.87 72.00
30183 2020-08-05 07:12:52 Terrasse 16.10 15.53 67.50
30182 2020-08-05 06:44:35 Terrasse 16.10 15.42 63.50
30181 2020-08-05 06:16:18 Terrasse 16.20 15.47 61.00
30180 2020-08-05 05:48:02 Terrasse 16.40 15.66 59.90
30179 2020-08-05 05:19:46 Terrasse 16.60 15.82 57.80
30178 2020-08-05 04:51:30 Terrasse 16.70 15.92 57.10
30177 2020-08-05 04:23:13 Terrasse 16.90 16.12 56.30
30176 2020-08-05 03:54:56 Terrasse 17.10 16.33 55.90
30175 2020-08-05 03:26:41 Terrasse 17.30 16.53 55.20
30174 2020-08-05 02:58:25 Terrasse 17.50 16.75 55.20
30173 2020-08-05 02:30:09 Terrasse 17.80 17.06 54.60
30172 2020-08-05 02:01:52 Terrasse 18.10 17.38 54.00
30171 2020-08-05 01:33:36 Terrasse 18.40 17.70 53.90
30170 2020-08-05 01:05:19 Terrasse 18.80 18.09 51.90
30169 2020-08-05 00:37:03 Terrasse 19.10 18.41 51.50
30168 2020-08-05 00:08:45 Terrasse 19.40 18.75 51.70
30167 2020-08-04 23:40:29 Terrasse 19.60 18.90 49.30
30166 2020-08-04 23:12:13 Terrasse 20.00 19.31 48.10
30165 2020-08-04 22:43:57 Terrasse 20.30 19.66 48.70
30164 2020-08-04 22:15:48 Terrasse 20.70 20.11 49.20
30163 2020-08-04 21:47:31 Terrasse 21.10 20.57 49.80
30162 2020-08-04 21:19:14 Terrasse 21.60 21.09 48.80
30161 2020-08-04 20:51:01 Terrasse 22.20 21.76 49.30
30160 2020-08-04 20:22:45 Terrasse 22.80 22.40 48.60
30159 2020-08-04 19:54:30 Terrasse 23.50 23.18 48.80
30158 2020-08-04 19:26:15 Terrasse 24.20 23.85 45.00
30157 2020-08-04 18:57:58 Terrasse 24.80 24.41 41.20
30156 2020-08-04 18:29:41 Terrasse 25.20 24.86 41.60
30155 2020-08-04 18:01:24 Terrasse 25.70 25.35 39.30
30154 2020-08-04 17:33:11 Terrasse 26.20 25.95 41.10
30153 2020-08-04 17:04:52 Terrasse 26.30 26.51 43.20
30152 2020-08-04 16:36:32 Terrasse 26.30 26.62 45.70
30151 2020-08-04 16:08:20 Terrasse 27.40 27.31 42.50
30150 2020-08-04 15:40:03 Terrasse 27.70 27.66 43.80
30149 2020-08-04 15:11:42 Terrasse 27.30 27.38 45.00
30148 2020-08-04 14:43:22 Terrasse 27.00 27.09 44.30
30147 2020-08-04 14:15:00 Terrasse 26.90 27.14 46.70
30146 2020-08-04 13:46:42 Terrasse 25.40 25.29 49.50
30145 2020-08-04 13:18:46 Terrasse 28.90 28.84 43.60
30144 2020-08-04 12:50:15 Terrasse 26.80 27.26 50.50
30143 2020-08-04 12:21:56 Terrasse 25.40 25.35 52.00
30142 2020-08-04 11:53:35 Terrasse 24.90 24.88 55.00
30141 2020-08-04 11:24:49 Terrasse 21.80 21.56 58.20
30140 2020-08-04 10:56:15 Terrasse 21.30 21.04 59.70
30139 2020-08-04 10:27:54 Terrasse 21.70 21.53 61.50
30138 2020-08-04 09:59:30 Terrasse 20.60 20.36 62.90
30137 2020-08-04 09:31:06 Terrasse 19.40 19.13 66.50
30136 2020-08-04 09:02:39 Terrasse 18.10 17.77 69.30
30135 2020-08-04 08:34:18 Terrasse 17.70 17.33 69.10
30134 2020-08-04 08:06:01 Terrasse 17.40 17.00 69.00
30133 2020-08-04 07:37:41 Terrasse 17.10 16.65 68.30
30132 2020-08-04 07:09:22 Terrasse 17.00 16.54 68.40
30131 2020-08-04 06:41:04 Terrasse 17.00 16.53 67.90
30130 2020-08-04 06:12:47 Terrasse 17.20 16.73 67.20
30129 2020-08-04 05:44:30 Terrasse 17.50 17.01 65.10
30128 2020-08-04 05:16:13 Terrasse 17.80 17.31 64.10
30127 2020-08-04 04:47:55 Terrasse 18.00 17.52 63.70
30126 2020-08-04 04:19:38 Terrasse 18.20 17.72 62.90
30125 2020-08-04 03:51:21 Terrasse 18.30 17.79 61.40
30124 2020-08-04 03:23:02 Terrasse 18.40 17.85 59.50
30123 2020-08-04 02:54:45 Terrasse 18.50 17.95 59.20
30122 2020-08-04 02:26:27 Terrasse 18.70 18.18 59.60
30121 2020-08-04 01:58:09 Terrasse 18.80 18.28 59.30
30120 2020-08-04 01:29:51 Terrasse 19.00 18.49 58.80
30119 2020-08-04 01:01:33 Terrasse 19.00 18.50 59.30
30118 2020-08-04 00:33:14 Terrasse 19.20 18.73 59.50
30117 2020-08-04 00:04:57 Terrasse 19.30 18.85 60.00
30116 2020-08-03 23:36:48 Terrasse 19.40 18.98 60.60
30115 2020-08-03 23:08:26 Terrasse 19.50 19.15 62.90
30114 2020-08-03 22:40:09 Terrasse 19.60 19.25 62.70
30113 2020-08-03 22:11:52 Terrasse 19.90 19.56 62.00
30112 2020-08-03 21:43:35 Terrasse 20.20 19.84 60.00
30111 2020-08-03 21:15:16 Terrasse 20.40 20.06 60.00
30110 2020-08-03 20:46:58 Terrasse 20.60 20.41 64.90
30109 2020-08-03 20:18:41 Terrasse 20.90 20.71 63.80
30108 2020-08-03 19:50:23 Terrasse 21.00 20.84 64.70
30107 2020-08-03 19:22:05 Terrasse 21.10 20.98 65.60
30106 2020-08-03 18:53:48 Terrasse 21.30 21.21 66.00
30105 2020-08-03 18:25:29 Terrasse 21.40 21.37 68.00
30104 2020-08-03 17:57:14 Terrasse 21.80 21.78 66.80
30103 2020-08-03 17:28:59 Terrasse 22.60 22.73 69.40
30102 2020-08-03 17:00:56 Terrasse 22.50 22.80 76.40
30101 2020-08-03 16:32:33 Terrasse 22.90 23.09 70.70
30100 2020-08-03 16:04:40 Terrasse 23.10 23.22 67.30
30099 2020-08-03 15:34:14 Terrasse 23.00 23.21 70.90
30098 2020-08-03 15:05:57 Terrasse 23.20 23.43 70.90
30097 2020-08-03 14:37:33 Terrasse 22.10 22.72 90.10
30096 2020-08-03 14:09:14 Terrasse 21.80 22.25 84.80
30095 2020-08-03 13:40:57 Terrasse 22.40 22.48 68.20
30094 2020-08-03 13:12:36 Terrasse 22.20 22.37 72.60
30093 2020-08-03 12:44:18 Terrasse 22.00 22.13 71.80
30092 2020-08-03 12:15:55 Terrasse 21.80 22.07 77.80
30091 2020-08-03 11:47:32 Terrasse 20.60 20.82 80.60
30090 2020-08-03 11:19:17 Terrasse 21.10 21.32 78.70
30089 2020-08-03 10:51:02 Terrasse 21.60 21.71 72.40
30088 2020-08-03 10:22:40 Terrasse 21.60 21.77 75.00
30087 2020-08-03 09:54:14 Terrasse 20.50 20.77 82.80
30086 2020-08-03 09:25:53 Terrasse 19.80 20.20 90.60
30085 2020-08-03 08:57:33 Terrasse 19.80 20.38 97.40
30084 2020-08-03 08:29:11 Terrasse 19.30 19.84 97.70
30083 2020-08-03 08:00:51 Terrasse 18.80 19.34 99.90
30082 2020-08-03 07:32:33 Terrasse 18.80 19.34 99.90
30081 2020-08-03 07:04:14 Terrasse 18.70 19.23 99.90
30080 2020-08-03 06:35:57 Terrasse 18.70 19.22 99.50
30079 2020-08-03 06:07:40 Terrasse 18.60 19.12 99.90
30078 2020-08-03 05:39:22 Terrasse 18.50 19.01 99.90
30077 2020-08-03 05:11:04 Terrasse 18.50 18.95 97.50
30076 2020-08-03 04:42:46 Terrasse 18.50 18.87 94.40
30075 2020-08-03 04:14:30 Terrasse 18.60 18.86 89.70
30074 2020-08-03 03:46:15 Terrasse 18.90 19.01 82.90
30073 2020-08-03 03:17:58 Terrasse 19.20 19.19 77.10
30072 2020-08-03 02:49:42 Terrasse 19.50 19.41 73.10
30071 2020-08-03 02:21:25 Terrasse 19.80 19.66 70.00
30070 2020-08-03 01:53:06 Terrasse 20.00 19.86 69.20
30069 2020-08-03 01:24:47 Terrasse 20.50 20.35 66.80
30068 2020-08-03 00:56:31 Terrasse 20.50 20.35 66.90
30067 2020-08-03 00:28:13 Terrasse 20.80 20.64 65.30
30066 2020-08-02 23:59:57 Terrasse 21.30 21.14 63.20
30065 2020-08-02 23:31:39 Terrasse 21.70 21.55 62.40
30064 2020-08-02 23:03:22 Terrasse 21.90 21.75 61.40
30063 2020-08-02 22:35:05 Terrasse 22.30 22.09 57.50
30062 2020-08-02 22:06:49 Terrasse 22.70 22.51 56.80
30061 2020-08-02 21:38:30 Terrasse 22.80 22.59 55.80
30060 2020-08-02 21:10:14 Terrasse 23.10 22.90 55.00
30059 2020-08-02 20:41:59 Terrasse 23.80 23.67 55.10
30058 2020-08-02 20:13:42 Terrasse 24.40 24.25 51.90
30057 2020-08-02 19:45:25 Terrasse 24.70 24.54 50.30
30056 2020-08-02 19:17:07 Terrasse 25.10 25.02 51.70
30055 2020-08-02 18:48:53 Terrasse 25.60 25.52 49.90
30054 2020-08-02 18:20:35 Terrasse 26.10 26.07 49.80
30053 2020-08-02 17:52:18 Terrasse 26.60 27.09 50.70
30052 2020-08-02 17:24:02 Terrasse 27.10 27.53 50.30
30051 2020-08-02 16:55:45 Terrasse 27.30 27.76 50.70
30050 2020-08-02 16:27:24 Terrasse 27.40 27.92 51.60
30049 2020-08-02 15:59:03 Terrasse 27.10 27.82 54.70
30048 2020-08-02 15:30:45 Terrasse 26.40 27.06 53.70
30047